[[{"header":{"parameterUnit":"m.s-1","parameterCategory":1,"la1":31.0,"la2":29.5877,"lo1":-88.7671,"lo2":-86.6584,"dx":0.0162,"dy":0.0185,"nx":115,"ny":88,"refTime":"2023-02-06T18:00:00:Z","depth":0,"parameterNumber":2,"parameterNumberName":"U-component_of_WINDS"},"data":[0.0,0.0,0.0,0.0,0.0,0.0,0.0,0.0,0.0,0.0,0.0,0.0,0.0,0.0,0.0,0.0,0.0,0.0,0.0,0.0,0.0,0.0,0.0,0.0,0.0,0.0,0.0,0.0,0.0,0.0,0.0,0.0,0.0,0.0,0.0,0.0,0.0,0.0,0.0,0.0,0.0,0.0,0.0,0.0,0.0,0.0,0.0,0.0,0.0,0.0,0.0,0.0,0.0,0.0,0.0,0.0,0.0,0.0,0.0,0.0,0.0,0.0,0.0,0.0,0.0,0.0,0.0,0.0,0.0,0.0,0.0,0.0,0.0,0.0,0.0,0.0,0.0,0.0,0.0,0.0,0.0,0.0,0.0,0.0,0.0,0.0,0.0,0.0,0.0,0.0,0.0,0.0,0.0,0.0,0.0,0.0,0.0,0.0,0.0,0.0,0.0,0.0,0.0,0.0,0.0,0.0,0.0,0.0,0.0,0.0,0.0,0.0,0.0,0.0,0.0,0.0,0.0,0.0,0.0,0.0,0.0,0.0,0.0,0.0,0.0,0.0,0.0,0.0,0.0,0.0,0.0,0.0,0.0,0.0,0.0,0.0,0.0,0.0,0.0,0.0,0.0,0.0,0.0,0.0,0.0,0.0,0.0,0.0,0.0,0.0,0.0,0.0,0.0,0.0,0.0,0.0,0.0,0.0,0.0,0.0,0.0,0.0,0.0,0.0,0.0,0.0,0.0,0.0,0.0,0.0,0.0,0.0,0.0,0.0,0.0,0.0,0.0,0.0,0.0,0.0,0.0,0.0,0.0,0.0,0.0,0.0,0.0,0.0,0.0,0.0,0.0,0.0,0.0,0.0,0.0,0.0,0.0,0.0,0.0,0.0,0.0,0.0,0.0,0.0,0.0,0.0,0.0,0.0,0.0,0.0,0.0,0.0,0.0,0.0,0.0,0.0,0.0,0.0,0.0,0.0,0.0,0.0,0.0,0.0,0.0,0.0,0.0,0.0,0.0,0.0,0.0,0.0,0.0,0.0,0.0,0.0,0.0,0.0,0.0,0.0,0.0,0.0,0.0,0.0,0.0,0.0,0.0,0.0,0.0,0.0,0.0,0.0,0.0,0.0,0.0,0.0,0.0,0.0,0.0,0.0,0.0,0.0,0.0,0.0,0.0,0.0,0.0,0.0,0.0,0.0,0.0,0.0,0.0,0.0,0.0,0.0,0.0,0.0,0.0,0.0,0.0,0.0,0.0,0.0,0.0,0.0,0.0,0.0,0.0,0.0,0.0,0.0,0.0,0.0,0.0,0.0,0.0,0.0,0.0,0.0,0.0,0.0,0.0,0.0,0.0,0.0,0.0,0.0,0.0,0.0,0.0,0.0,0.0,0.0,0.0,0.0,0.0,0.0,0.0,0.0,0.0,0.0,0.0,0.0,0.0,0.0,0.0,0.0,0.0,0.0,0.0,0.0,0.0,0.0,0.0,0.0,0.0,0.0,0.0,0.0,0.0,0.0,0.0,0.0,0.0,0.0,0.0,0.0,0.0,0.0,0.0,0.0,0.0,0.0,0.0,0.0,0.0,0.0,0.0,0.0,0.0,0.0,0.0,0.0,0.0,0.0,0.0,0.0,0.0,0.0,0.0,0.0,0.0,0.0,0.0,0.0,0.0,0.0,0.0,0.0,0.0,0.0,0.0,0.0,0.0,0.0,0.0,0.0,0.0,0.0,0.0,0.0,0.0,0.0,0.0,0.0,0.0,0.0,0.0,0.0,0.0,0.0,0.0,0.0,0.0,0.0,0.0,0.0,0.0,0.0,0.0,0.0,0.0,0.0,0.0,0.0,0.0,0.0,0.0,0.0,0.0,0.0,0.0,0.0,0.0,0.0,0.0,0.0,0.0,0.0,0.0,0.0,0.0,0.0,0.0,0.0,0.0,0.0,0.0,0.0,0.0,0.0,0.0,0.0,0.0,0.0,0.0,0.0,0.0,0.0,0.0,0.0,0.0,0.0,0.0,0.0,0.0,0.0,0.0,0.0,0.0,0.0,0.0,0.0,0.0,0.0,0.0,0.0,0.0,0.0,0.0,0.0,0.0,0.0,0.0,0.0,0.0,0.0,0.0,0.0,0.0,0.0,0.0,0.0,0.0,0.0,0.0,0.0,0.0,0.0,0.0,0.0,0.0,0.0,0.0,0.0,0.0,0.0,0.0,0.0,0.0,0.0,0.0,0.0,0.0,0.0,0.0,0.0,0.0,0.0,0.0,0.0,0.0,0.0,0.0,0.0,0.0,0.0,0.0,0.0,0.0,0.0,0.0,0.0,0.0,0.0,0.0,0.0,0.0,0.0,0.0,0.0,0.0,0.0,0.0,0.0,0.0,0.0,0.0,0.0,0.0,0.0,0.0,0.0,0.0,0.0,0.0,0.0,0.0,0.0,0.0,0.0,0.0,0.0,0.0,0.0,0.0,0.0,0.0,0.0,0.0,0.0,0.0,0.0,0.0,0.0,0.0,0.0,0.0,0.0,0.0,0.0,0.0,0.0,0.0,0.0,0.0,0.0,0.0,0.0,0.0,0.0,0.0,0.0,0.0,0.0,0.0,0.0,0.0,0.0,0.0,0.0,0.0,0.0,0.0,0.0,0.0,0.0,0.0,0.0,0.0,0.0,0.0,0.0,0.0,0.0,0.0,0.0,0.0,0.0,0.0,0.0,0.0,0.0,0.0,0.0,0.0,0.0,0.0,0.0,0.0,0.0,0.0,0.0,0.0,0.0,0.0,0.0,0.0,0.0,0.0,0.0,0.0,0.0,0.0,0.0,0.0,0.0,0.0,0.0,0.0,0.0,0.0,0.0,0.0,0.0,0.0,0.0,0.0,0.0,0.0,0.0,0.0,0.0,0.0,0.0,0.0,0.0,0.0,0.0,0.0,0.0,0.0,0.0,0.0,0.0,0.0,0.0,0.0,0.0,0.0,0.0,0.0,0.0,0.0,0.0,0.0,0.0,0.0,0.0,0.0,0.0,0.0,0.0,0.0,0.0,0.0,0.0,0.0,0.0,0.0,0.0,0.0,0.0,0.0,0.0,0.0,0.0,0.0,0.0,0.0,0.0,0.0,0.0,0.0,0.0,0.0,0.0,0.0,0.0,0.0,0.0,0.0,0.0,0.0,0.0,0.0,0.0,0.0,0.0,0.0,0.0,0.0,0.0,0.0,0.0,0.0,0.0,0.0,0.0,0.0,0.0,0.0,0.0,0.0,0.0,0.0,0.0,0.0,0.0,0.0,0.0,0.0,0.0,0.0,0.0,0.0,0.0,0.0,0.0,0.0,0.0,0.0,0.0,0.0,0.0,0.0,0.0,0.0,0.0,0.0,0.0,0.0,0.0,0.0,0.0,0.0,0.0,0.0,0.0,0.0,0.0,0.0,0.0,0.0,0.0,0.0,0.0,0.0,0.0,0.0,0.0,0.0,0.0,0.0,0.0,0.0,0.0,0.0,0.0,0.0,0.0,0.0,0.0,0.0,0.0,0.0,0.0,0.0,0.0,0.0,0.0,0.0,0.0,0.0,0.0,0.0,0.0,0.0,0.0,0.0,0.0,0.0,0.0,0.0,0.0,0.0,0.0,0.0,0.0,0.0,0.0,0.0,0.0,0.0,0.0,0.0,0.0,0.0,0.0,0.0,0.0,0.0,0.0,0.0,0.0,0.0,0.0,0.0,0.0,0.0,0.0,0.0,0.0,0.0,0.0,0.0,0.0,0.0,0.0,0.0,0.0,0.0,0.0,0.0,0.0,0.0,0.0,0.0,0.0,0.0,0.0,0.0,0.0,0.0,0.0,0.0,0.0,0.0,0.0,0.0,0.0,0.0,0.0,0.0,0.0,0.0,0.0,0.0,0.0,0.0,0.0,0.0,0.0,0.0,0.0,0.0,0.0,0.0,0.0,0.0,0.0,0.0,0.0,0.0,0.0,0.0,0.0,0.0,0.0,0.0,0.0,0.0,0.0,0.0,0.0,0.0,0.0,0.0,0.0,0.0,0.0,0.0,0.0,0.0,0.0,0.0,0.0,0.0,0.0,0.0,0.0,0.0,0.0,0.0,0.0,0.0,0.0,0.0,0.0,0.0,0.0,0.0,0.0,0.0,0.0,0.0,0.0,0.0,0.0,0.0,0.0,0.0,0.0,0.0,0.0,0.0,0.0,0.0,0.0,0.0,0.0,0.0,0.0,0.0,0.0,0.0,0.0,0.0,0.0,0.0,0.0,0.0,0.0,0.0,0.0,-1.1519,0.0,0.0,0.0,0.0,0.0,0.0,0.0,0.0,0.0,0.0,0.0,0.0,0.0,0.0,0.0,0.0,0.0,0.0,0.0,0.0,0.0,0.0,0.0,0.0,0.0,0.0,0.0,0.0,0.0,0.0,0.0,0.0,0.0,0.0,0.0,0.0,0.0,0.0,0.0,0.0,0.0,0.0,0.0,0.0,0.0,0.0,0.0,0.0,0.0,0.0,0.0,0.0,0.0,0.0,0.0,0.0,0.0,0.0,0.0,0.0,0.0,0.0,0.0,0.0,0.0,0.0,0.0,0.0,0.0,0.0,0.0,0.0,0.0,0.0,0.0,0.0,0.0,0.0,0.0,0.0,0.0,0.0,0.0,0.0,0.0,0.0,0.0,0.0,0.0,0.0,0.0,0.0,0.0,0.0,0.0,0.0,0.0,0.0,0.0,0.0,0.0,0.0,0.0,0.0,0.0,0.0,0.0,0.0,0.0,0.0,-0.9354,-1.021,-1.0364,-1.083,-1.1678,0.0,0.0,0.0,0.0,0.0,0.0,0.0,0.0,0.0,0.0,0.0,0.0,0.0,0.0,0.0,0.0,0.0,0.0,0.0,0.0,0.0,0.0,0.0,0.0,0.0,0.0,0.0,0.0,0.0,0.0,0.0,0.0,0.0,0.0,0.0,0.0,0.0,0.0,0.0,0.0,0.0,0.0,0.0,0.0,0.0,0.0,0.0,0.0,0.0,0.0,0.0,0.0,0.0,0.0,0.0,0.0,0.0,0.0,0.0,0.0,0.0,0.0,0.0,0.0,0.0,0.0,0.0,0.0,0.0,0.0,0.0,0.0,0.0,0.0,0.0,0.0,0.0,0.0,0.0,0.0,0.0,0.0,0.0,0.0,0.0,0.0,0.0,0.0,0.0,0.0,0.0,0.0,0.0,0.0,0.0,0.0,0.0,0.0,0.0,0.0,0.0,0.0,0.0,0.0,0.0,0.0,0.0,0.0,0.0,0.0,0.0,0.0,-1.0728,-1.1141,-1.1769,0.0,0.0,0.0,0.0,0.0,0.0,0.0,0.0,0.0,0.0,0.0,0.0,0.0,0.0,0.0,0.0,0.0,0.0,0.0,0.0,0.0,0.0,0.0,0.0,0.0,0.0,0.0,0.0,0.0,0.0,0.0,0.0,0.0,0.0,0.0,0.0,0.0,0.0,0.0,0.0,0.0,0.0,0.0,0.0,0.0,0.0,0.0,0.0,0.0,0.0,0.0,0.0,0.0,0.0,0.0,0.0,0.0,0.0,0.0,0.0,0.0,0.0,0.0,0.0,0.0,0.0,0.0,0.0,0.0,0.0,0.0,0.0,0.0,0.0,0.0,0.0,0.0,0.0,0.0,0.0,0.0,0.0,0.0,0.0,0.0,0.0,0.0,0.0,0.0,0.0,0.0,0.0,0.0,0.0,0.0,0.0,0.0,0.0,0.0,0.0,0.0,0.0,0.0,0.0,0.0,0.0,0.0,0.0,0.0,0.0,-0.9762,-1.0218,-1.1099,0.0,-1.2036,0.0,0.0,0.0,0.0,0.0,0.0,0.0,0.0,0.0,0.0,0.0,0.0,0.0,0.0,0.0,0.0,0.0,0.0,0.0,0.0,0.0,0.0,0.0,0.0,0.0,0.0,0.0,0.0,0.0,0.0,0.0,0.0,0.0,0.0,0.0,0.0,0.0,0.0,0.0,0.0,0.0,0.0,0.0,0.0,0.0,0.0,0.0,0.0,0.0,0.0,0.0,0.0,0.0,0.0,0.0,0.0,0.0,0.0,0.0,0.0,0.0,0.0,0.0,0.0,0.0,0.0,0.0,0.0,0.0,0.0,0.0,0.0,0.0,0.0,0.0,0.0,0.0,0.0,0.0,0.0,0.0,0.0,0.0,0.0,0.0,0.0,0.0,0.0,0.0,0.0,0.0,0.0,0.0,0.0,0.0,0.0,0.0,0.0,0.0,0.0,0.0,0.0,0.0,0.0,0.0,0.0,0.0,0.0,0.0,0.0,-1.0474,-1.1292,-1.171,-1.2076,0.0,0.0,0.0,0.0,0.0,0.0,0.0,0.0,0.0,0.0,0.0,0.0,0.0,0.0,0.0,0.0,0.0,0.0,0.0,0.0,0.0,0.0,0.0,0.0,0.0,0.0,0.0,0.0,0.0,0.0,0.0,0.0,0.0,0.0,0.0,0.0,0.0,0.0,0.0,0.0,0.0,0.0,0.0,0.0,0.0,0.0,0.0,0.0,0.0,0.0,0.0,0.0,0.0,0.0,0.0,0.0,0.0,0.0,0.0,0.0,0.0,0.0,0.0,0.0,0.0,0.0,0.0,0.0,0.0,0.0,0.0,0.0,0.0,0.0,0.0,0.0,0.0,0.0,0.0,0.0,0.0,0.0,0.0,0.0,0.0,0.0,0.0,0.0,0.0,0.0,0.0,0.0,0.0,0.0,0.0,0.0,0.0,0.0,0.0,0.0,0.0,0.0,0.0,0.0,0.0,0.0,0.0,0.0,0.0,0.0,-1.0364,-1.1082,-1.2175,-1.2363,-1.2569,-1.2968,0.0,0.0,0.0,0.0,0.0,0.0,0.0,0.0,0.0,0.0,0.0,0.0,0.0,0.0,0.0,0.0,0.0,0.0,0.0,0.0,0.0,0.0,0.0,0.0,0.0,0.0,0.0,0.0,0.0,0.0,0.0,0.0,0.0,0.0,0.0,0.0,0.0,0.0,0.0,0.0,0.0,0.0,0.0,0.0,0.0,0.0,0.0,0.0,0.0,0.0,0.0,0.0,0.0,0.0,0.0,0.0,0.0,0.0,0.0,0.0,0.0,0.0,0.0,0.0,0.0,0.0,0.0,0.0,0.0,0.0,0.0,0.0,0.0,0.0,0.0,0.0,0.0,0.0,0.0,0.0,0.0,0.0,0.0,0.0,0.0,0.0,0.0,0.0,0.0,0.0,0.0,0.0,0.0,0.0,0.0,0.0,0.0,0.0,0.0,0.0,0.0,0.0,0.0,0.0,0.0,0.0,0.0,0.0,-0.9458,-1.0466,-1.1534,-1.2627,-1.2987,-1.3266,0.0,0.0,0.0,0.0,0.0,0.0,0.0,0.0,0.0,0.0,0.0,0.0,0.0,0.0,0.0,0.0,0.0,0.0,0.0,0.0,0.0,0.0,0.0,0.0,0.0,0.0,0.0,0.0,0.0,0.0,0.0,0.0,0.0,0.0,0.0,0.0,0.0,0.0,0.0,0.0,0.0,0.0,0.0,0.0,0.0,0.0,0.0,0.0,0.0,0.0,0.0,0.0,0.0,0.0,0.0,0.0,0.0,0.0,0.0,0.0,0.0,0.0,0.0,0.0,0.0,0.0,0.0,0.0,0.0,0.0,0.0,0.0,0.0,0.0,0.0,0.0,0.0,0.0,0.0,0.0,0.0,0.0,0.0,0.0,0.0,0.0,0.0,0.0,0.0,0.0,0.0,0.0,0.0,0.0,0.0,0.0,0.0,0.0,0.0,0.0,0.0,0.0,0.0,0.0,0.0,0.0,0.0,0.0,0.0,-1.06,-1.1551,-1.2166,-1.2323,-1.289,-1.3314,0.0,0.0,0.0,0.0,0.0,0.0,0.0,0.0,0.0,0.0,0.0,0.0,0.0,0.0,0.0,0.0,0.0,0.0,0.0,0.0,0.0,0.0,0.0,0.0,0.0,0.0,0.0,0.0,0.0,0.0,0.0,0.0,0.0,0.0,0.0,0.0,0.0,0.0,0.0,0.0,0.0,0.0,0.0,0.0,0.0,0.0,0.0,0.0,0.0,0.0,0.0,0.0,0.0,0.0,0.0,0.0,0.0,0.0,0.0,0.0,0.0,0.0,0.0,0.0,0.0,0.0,0.0,0.0,0.0,0.0,0.0,0.0,0.0,0.0,0.0,0.0,0.0,0.0,0.0,0.0,0.0,0.0,0.0,0.0,0.0,0.0,0.0,0.0,0.0,0.0,0.0,0.0,0.0,0.0,0.0,0.0,0.0,0.0,0.0,0.0,0.0,0.0,0.0,0.0,0.0,0.0,0.0,0.0,0.0,-1.1519,0.0,-1.2627,-1.251,-1.318,-1.3695,0.0,0.0,0.0,0.0,0.0,0.0,0.0,0.0,0.0,0.0,0.0,0.0,0.0,0.0,0.0,0.0,0.0,0.0,0.0,0.0,0.0,0.0,0.0,0.0,0.0,0.0,0.0,0.0,0.0,0.0,0.0,0.0,0.0,0.0,0.0,0.0,0.0,0.0,0.0,0.0,0.0,0.0,0.0,0.0,0.0,0.0,0.0,0.0,0.0,0.0,0.0,0.0,0.0,0.0,0.0,0.0,0.0,0.0,0.0,0.0,0.0,0.0,0.0,0.0,0.0,0.0,0.0,0.0,0.0,0.0,0.0,0.0,0.0,0.0,0.0,0.0,0.0,0.0,0.0,0.0,0.0,0.0,0.0,0.0,0.0,0.0,0.0,0.0,0.0,0.0,0.0,0.0,0.0,0.0,0.0,0.0,0.0,0.0,0.0,0.0,0.0,0.0,0.0,0.0,0.0,0.0,0.0,0.0,-1.0838,-1.2017,-1.248,-1.2813,-1.317,-1.3789,-1.4455,0.0,0.0,0.0,0.0,0.0,0.0,0.0,0.0,0.0,0.0,0.0,0.0,0.0,0.0,0.0,0.0,0.0,0.0,0.0,0.0,0.0,0.0,0.0,0.0,0.0,0.0,0.0,0.0,0.0,0.0,0.0,0.0,0.0,0.0,0.0,0.0,0.0,0.0,0.0,0.0,0.0,0.0,0.0,0.0,0.0,0.0,0.0,0.0,0.0,0.0,0.0,0.0,0.0,0.0,0.0,0.0,0.0,0.0,0.0,0.0,0.0,0.0,0.0,0.0,0.0,0.0,0.0,0.0,0.0,0.0,0.0,0.0,0.0,0.0,0.0,0.0,0.0,0.0,0.0,0.0,0.0,0.0,0.0,0.0,0.0,0.0,0.0,0.0,0.0,0.0,0.0,0.0,0.0,0.0,0.0,0.0,0.0,0.0,0.0,0.0,0.0,0.0,0.0,0.0,0.0,0.0,0.0,0.0,0.0,-1.2085,-1.252,-1.2706,-1.2608,-1.3705,-1.4373,0.0,0.0,0.0,0.0,0.0,0.0,0.0,0.0,0.0,0.0,0.0,0.0,0.0,0.0,0.0,0.0,0.0,0.0,0.0,0.0,0.0,0.0,0.0,0.0,0.0,0.0,0.0,0.0,0.0,0.0,0.0,0.0,0.0,0.0,0.0,0.0,0.0,0.0,0.0,0.0,0.0,0.0,0.0,0.0,0.0,0.0,0.0,0.0,0.0,0.0,0.0,0.0,0.0,0.0,0.0,0.0,0.0,0.0,0.0,0.0,0.0,0.0,0.0,0.0,0.0,0.0,0.0,0.0,0.0,0.0,0.0,0.0,0.0,0.0,0.0,0.0,0.0,0.0,0.0,0.0,0.0,0.0,0.0,0.0,0.0,0.0,0.0,0.0,0.0,0.0,0.0,0.0,0.0,0.0,0.0,0.0,0.0,0.0,0.0,0.0,0.0,0.0,0.0,0.0,0.0,0.0,0.0,0.0,0.0,-1.2175,-1.252,-1.2666,-1.255,-1.3695,-1.4362,-1.4398,0.0,0.0,0.0,0.0,0.0,0.0,0.0,0.0,0.0,0.0,0.0,0.0,0.0,0.0,0.0,0.0,0.0,0.0,0.0,0.0,0.0,0.0,0.0,0.0,0.0,0.0,0.0,0.0,0.0,0.0,0.0,0.0,0.0,0.0,0.0,0.0,0.0,0.0,0.0,0.0,0.0,0.0,0.0,0.0,0.0,0.0,0.0,0.0,0.0,0.0,0.0,0.0,0.0,0.0,0.0,0.0,0.0,0.0,0.0,0.0,0.0,0.0,0.0,0.0,0.0,0.0,0.0,0.0,0.0,0.0,0.0,0.0,0.0,0.0,0.0,0.0,0.0,0.0,0.0,0.0,0.0,0.0,0.0,0.0,0.0,0.0,0.0,0.0,0.0,0.0,0.0,0.0,0.0,0.0,0.0,0.0,0.0,0.0,0.0,0.0,0.0,0.0,0.0,0.0,0.0,0.0,0.0,0.0,-1.2323,-1.2471,-1.2666,-1.2977,-1.3789,-1.4351,0.0,0.0,0.0,0.0,0.0,0.0,0.0,0.0,0.0,0.0,0.0,0.0,0.0,0.0,0.0,0.0,0.0,0.0,0.0,0.0,0.0,0.0,0.0,0.0,0.0,0.0,0.0,0.0,0.0,0.0,0.0,0.0,0.0,0.0,0.0,0.0,0.0,0.0,0.0,0.0,0.0,0.0,0.0,0.0,0.0,0.0,0.0,0.0,0.0,0.0,0.0,0.0,0.0,0.0,0.0,0.0,0.0,0.0,0.0,0.0,0.0,0.0,0.0,0.0,0.0,0.0,0.0,0.0,0.0,0.0,0.0,0.0,0.0,0.0,0.0,0.0,0.0,0.0,0.0,0.0,0.0,0.0,0.0,0.0,0.0,0.0,0.0,0.0,0.0,0.0,0.0,0.0,0.0,0.0,0.0,0.0,0.0,0.0,0.0,0.0,0.0,0.0,0.0,0.0,0.0,0.0,0.0,0.0,0.0,-1.2578,-1.2735,-1.2774,-1.2813,-1.3742,-1.4305,0.0,0.0,0.0,0.0,0.0,0.0,0.0,0.0,0.0,0.0,0.0,0.0,0.0,0.0,0.0,0.0,0.0,0.0,0.0,0.0,0.0,0.0,0.0,0.0,0.0,0.0,0.0,0.0,0.0,0.0,0.0,0.0,0.0,0.0,0.0,0.0,0.0,0.0,0.0,0.0,0.0,0.0,0.0,0.0,0.0,0.0,0.0,0.0,0.0,0.0,0.0,0.0,0.0,0.0,0.0,0.0,0.0,0.0,0.0,0.0,0.0,0.0,0.0,0.0,0.0,0.0,0.0,0.0,0.0,0.0,0.0,0.0,0.0,0.0,0.0,0.0,0.0,0.0,0.0,0.0,0.0,0.0,0.0,0.0,0.0,0.0,0.0,0.0,0.0,0.0,0.0,0.0,0.0,0.0,0.0,0.0,0.0,0.0,0.0,0.0,0.0,0.0,0.0,0.0,0.0,0.0,0.0,0.0,-1.2664,-1.2936,-1.3095,-1.3182,-1.3307,-1.3885,-1.4361,0.0,0.0,0.0,0.0,0.0,0.0,0.0,0.0,0.0,0.0,0.0,0.0,0.0,0.0,0.0,0.0,0.0,0.0,0.0,0.0,0.0,0.0,0.0,0.0,0.0,0.0,0.0,0.0,0.0,0.0,0.0,0.0,0.0,0.0,0.0,0.0,0.0,0.0,0.0,0.0,0.0,0.0,0.0,0.0,0.0,0.0,0.0,0.0,0.0,0.0,0.0,0.0,0.0,0.0,0.0,0.0,0.0,0.0,0.0,0.0,0.0,0.0,0.0,0.0,0.0,0.0,0.0,0.0,0.0,0.0,0.0,0.0,0.0,0.0,0.0,0.0,0.0,0.0,0.0,0.0,0.0,0.0,0.0,0.0,0.0,0.0,0.0,0.0,0.0,0.0,0.0,0.0,0.0,0.0,0.0,0.0,0.0,0.0,0.0,0.0,0.0,0.0,0.0,0.0,0.0,0.0,0.0,0.0,-1.2836,-1.3359,-1.3523,-1.3769,-1.416,-1.4235,-1.444,0.0,0.0,0.0,0.0,0.0,0.0,0.0,0.0,0.0,0.0,0.0,0.0,0.0,0.0,0.0,0.0,0.0,0.0,0.0,0.0,0.0,0.0,0.0,0.0,0.0,0.0,0.0,0.0,0.0,0.0,0.0,0.0,0.0,0.0,0.0,0.0,0.0,0.0,0.0,0.0,0.0,0.0,0.0,0.0,0.0,0.0,0.0,0.0,0.0,0.0,0.0,0.0,0.0,0.0,0.0,0.0,0.0,0.0,0.0,0.0,0.0,0.0,0.0,0.0,0.0,0.0,0.0,0.0,0.0,0.0,0.0,0.0,0.0,0.0,0.0,0.0,0.0,0.0,0.0,0.0,0.0,0.0,0.0,0.0,0.0,0.0,0.0,0.0,0.0,0.0,0.0,0.0,0.0,0.0,0.0,0.0,0.0,0.0,0.0,0.0,0.0,0.0,0.0,0.0,0.0,0.0,0.0,0.0,-1.342,-1.3879,-1.3951,-1.4209,-1.4629,-1.4689,-1.4821,0.0,0.0,0.0,0.0,0.0,0.0,0.0,0.0,0.0,0.0,0.0,0.0,0.0,0.0,0.0,0.0,0.0,0.0,0.0,0.0,0.0,0.0,0.0,0.0,0.0,0.0,0.0,0.0,0.0,0.0,0.0,0.0,0.0,0.0,0.0,0.0,0.0,0.0,0.0,0.0,0.0,0.0,0.0,0.0,0.0,0.0,0.0,0.0,-3.2231,0.0,0.0,0.0,0.0,0.0,0.0,0.0,0.0,0.0,0.0,0.0,0.0,0.0,0.0,0.0,0.0,0.0,0.0,0.0,0.0,0.0,0.0,0.0,0.0,0.0,0.0,0.0,0.0,0.0,0.0,0.0,0.0,0.0,0.0,0.0,0.0,0.0,0.0,0.0,0.0,0.0,0.0,0.0,0.0,0.0,0.0,0.0,0.0,0.0,0.0,0.0,0.0,0.0,0.0,0.0,0.0,0.0,0.0,0.0,-1.3908,-1.4424,-1.4443,-1.4648,-1.5049,-1.5133,-1.5114,0.0,0.0,0.0,0.0,0.0,0.0,0.0,0.0,0.0,0.0,0.0,0.0,0.0,0.0,0.0,0.0,0.0,0.0,0.0,0.0,0.0,0.0,0.0,0.0,0.0,0.0,0.0,0.0,0.0,0.0,0.0,0.0,0.0,0.0,0.0,0.0,0.0,0.0,0.0,0.0,0.0,0.0,0.0,0.0,0.0,0.0,0.0,0.0,0.0,0.0,0.0,0.0,0.0,0.0,0.0,0.0,0.0,0.0,0.0,0.0,0.0,0.0,0.0,0.0,0.0,0.0,0.0,0.0,0.0,0.0,0.0,0.0,0.0,0.0,0.0,0.0,0.0,0.0,0.0,0.0,0.0,0.0,0.0,0.0,0.0,0.0,0.0,0.0,0.0,0.0,0.0,0.0,0.0,0.0,0.0,0.0,0.0,0.0,0.0,0.0,0.0,0.0,0.0,0.0,0.0,0.0,0.0,-1.384,-1.4344,-1.4853,-1.4883,-1.5049,-1.54,-1.541,-1.5468,-1.5478,0.0,0.0,0.0,0.0,0.0,0.0,0.0,0.0,0.0,0.0,0.0,0.0,0.0,0.0,0.0,0.0,0.0,0.0,0.0,0.0,0.0,0.0,0.0,0.0,0.0,0.0,0.0,0.0,0.0,0.0,0.0,0.0,0.0,0.0,0.0,0.0,0.0,0.0,-3.1336,-3.1531,0.0,0.0,0.0,0.0,0.0,0.0,0.0,0.0,-3.1807,0.0,0.0,0.0,0.0,0.0,0.0,0.0,0.0,0.0,0.0,0.0,0.0,0.0,0.0,0.0,0.0,0.0,0.0,0.0,0.0,0.0,0.0,0.0,0.0,0.0,0.0,0.0,0.0,0.0,0.0,0.0,0.0,0.0,0.0,0.0,0.0,0.0,0.0,0.0,0.0,0.0,0.0,0.0,0.0,0.0,0.0,0.0,0.0,0.0,0.0,0.0,0.0,0.0,0.0,0.0,0.0,-1.434,-1.4528,-1.4883,-1.5293,-1.5303,-1.5342,-1.541,-1.5546,-1.5662,-1.5672,0.0,0.0,0.0,0.0,0.0,0.0,0.0,0.0,0.0,0.0,0.0,0.0,0.0,0.0,0.0,0.0,0.0,0.0,0.0,0.0,0.0,0.0,0.0,0.0,0.0,0.0,0.0,0.0,0.0,0.0,0.0,0.0,0.0,0.0,0.0,0.0,0.0,0.0,0.0,-3.1931,-3.2287,0.0,0.0,0.0,0.0,0.0,0.0,0.0,0.0,-3.1057,0.0,0.0,0.0,0.0,0.0,0.0,0.0,0.0,0.0,0.0,0.0,0.0,0.0,0.0,0.0,0.0,0.0,0.0,0.0,0.0,0.0,0.0,0.0,0.0,0.0,0.0,0.0,0.0,0.0,0.0,0.0,0.0,0.0,0.0,0.0,0.0,0.0,0.0,0.0,0.0,0.0,0.0,0.0,0.0,0.0,0.0,0.0,0.0,0.0,0.0,0.0,0.0,0.0,0.0,0.0,-1.4505,-1.4886,-1.5215,-1.541,-1.542,-1.5468,-1.5536,-1.5672,-1.573,0.0,0.0,0.0,0.0,0.0,0.0,0.0,0.0,0.0,0.0,0.0,0.0,0.0,0.0,0.0,0.0,0.0,0.0,0.0,0.0,0.0,0.0,0.0,0.0,0.0,0.0,0.0,0.0,0.0,0.0,0.0,0.0,0.0,0.0,0.0,0.0,0.0,0.0,0.0,0.0,-3.2216,-3.2272,-3.2007,0.0,0.0,0.0,0.0,0.0,0.0,-3.0725,-3.0982,0.0,0.0,0.0,0.0,0.0,0.0,0.0,0.0,0.0,0.0,0.0,0.0,0.0,0.0,0.0,0.0,0.0,0.0,0.0,0.0,0.0,0.0,0.0,0.0,0.0,0.0,0.0,0.0,0.0,0.0,0.0,0.0,0.0,0.0,0.0,0.0,0.0,0.0,0.0,0.0,0.0,0.0,0.0,0.0,0.0,0.0,0.0,0.0,0.0,0.0,0.0,0.0,0.0,0.0,0.0,-1.4554,-1.5138,-1.542,-1.542,-1.541,-1.5536,-1.5614,-1.573,-1.5798,0.0,0.0,0.0,0.0,0.0,0.0,0.0,0.0,0.0,0.0,0.0,0.0,0.0,0.0,0.0,0.0,0.0,0.0,0.0,0.0,0.0,0.0,0.0,0.0,0.0,0.0,0.0,0.0,0.0,0.0,0.0,0.0,0.0,0.0,0.0,0.0,0.0,0.0,0.0,0.0,0.0,-3.1823,-3.1364,-3.1694,0.0,0.0,0.0,0.0,-2.969,-3.0353,0.0,0.0,0.0,0.0,0.0,0.0,0.0,0.0,0.0,0.0,0.0,0.0,0.0,0.0,0.0,0.0,0.0,0.0,0.0,0.0,0.0,0.0,0.0,0.0,0.0,0.0,0.0,0.0,0.0,0.0,0.0,0.0,0.0,0.0,0.0,0.0,0.0,0.0,0.0,0.0,0.0,0.0,0.0,0.0,0.0,0.0,0.0,0.0,0.0,0.0,0.0,0.0,0.0,0.0,0.0,0.0,-1.507,-1.5284,-1.542,-1.542,-1.5546,-1.5604,-1.542,-1.573,-1.5856,0.0,0.0,0.0,0.0,0.0,0.0,0.0,0.0,0.0,0.0,0.0,0.0,0.0,0.0,0.0,0.0,0.0,0.0,0.0,0.0,0.0,0.0,0.0,0.0,0.0,0.0,0.0,0.0,0.0,0.0,0.0,0.0,0.0,0.0,0.0,0.0,0.0,0.0,0.0,0.0,0.0,-3.0703,-3.0629,-3.0703,-3.0644,0.0,0.0,-2.969,-2.9504,-2.9619,0.0,0.0,0.0,0.0,0.0,0.0,0.0,0.0,0.0,0.0,0.0,0.0,0.0,0.0,0.0,0.0,0.0,0.0,0.0,0.0,0.0,0.0,0.0,0.0,0.0,0.0,0.0,0.0,0.0,0.0,0.0,0.0,0.0,0.0,0.0,0.0,0.0,0.0,0.0,0.0,0.0,0.0,0.0,0.0,0.0,0.0,0.0,0.0,0.0,0.0,0.0,0.0,0.0,0.0,0.0,-1.4916,-1.5205,-1.5313,-1.542,-1.542,-1.5478,-1.5536,-1.5546,-1.573,-1.5846,0.0,0.0,0.0,0.0,0.0,0.0,0.0,0.0,0.0,0.0,0.0,0.0,0.0,0.0,0.0,0.0,0.0,0.0,0.0,0.0,0.0,0.0,0.0,0.0,0.0,0.0,0.0,0.0,0.0,0.0,0.0,0.0,0.0,0.0,0.0,0.0,0.0,0.0,0.0,0.0,0.0,0.0,-3.0086,-3.0569,0.0,0.0,0.0,-2.9519,-2.9513,0.0,0.0,0.0,0.0,0.0,0.0,0.0,0.0,0.0,0.0,0.0,0.0,0.0,0.0,0.0,0.0,0.0,0.0,0.0,0.0,0.0,0.0,0.0,0.0,0.0,0.0,0.0,0.0,0.0,0.0,0.0,0.0,0.0,0.0,0.0,0.0,0.0,0.0,0.0,0.0,0.0,0.0,0.0,0.0,0.0,0.0,0.0,0.0,0.0,0.0,0.0,0.0,0.0,0.0,0.0,0.0,0.0,-1.5264,-1.5362,-1.542,-1.542,-1.541,-1.5536,-1.5614,-1.573,0.0,0.0,0.0,0.0,0.0,0.0,0.0,0.0,0.0,0.0,0.0,0.0,0.0,0.0,0.0,0.0,0.0,0.0,0.0,0.0,0.0,0.0,0.0,0.0,0.0,0.0,0.0,-2.5576,0.0,0.0,0.0,0.0,0.0,0.0,0.0,0.0,0.0,0.0,0.0,0.0,0.0,0.0,-3.0389,-2.9393,-3.0147,-3.0283,0.0,0.0,-2.9495,-2.9533,-3.012,-3.0785,0.0,0.0,0.0,0.0,0.0,0.0,0.0,0.0,0.0,0.0,0.0,0.0,0.0,0.0,0.0,0.0,0.0,0.0,0.0,0.0,0.0,0.0,0.0,0.0,0.0,0.0,0.0,0.0,0.0,0.0,0.0,0.0,0.0,0.0,0.0,0.0,0.0,0.0,0.0,0.0,0.0,0.0,0.0,0.0,0.0,0.0,0.0,0.0,0.0,0.0,0.0,0.0,0.0,0.0,0.0,-1.542,-1.541,-1.542,-1.542,-1.5604,-1.5614,-1.541,-1.573,-1.5856,0.0,0.0,0.0,0.0,0.0,0.0,0.0,0.0,0.0,0.0,0.0,0.0,0.0,0.0,0.0,0.0,0.0,0.0,0.0,0.0,0.0,0.0,0.0,0.0,0.0,0.0,0.0,0.0,0.0,0.0,0.0,0.0,0.0,0.0,0.0,0.0,0.0,0.0,0.0,0.0,0.0,-2.8766,-2.8651,-2.8716,-2.8766,0.0,0.0,-2.9494,-2.9482,-3.0473,-3.1246,-3.1273,0.0,0.0,0.0,0.0,0.0,0.0,0.0,0.0,0.0,0.0,0.0,0.0,0.0,0.0,0.0,0.0,0.0,0.0,0.0,0.0,0.0,0.0,0.0,0.0,0.0,0.0,0.0,0.0,0.0,0.0,0.0,0.0,0.0,0.0,0.0,0.0,0.0,0.0,0.0,0.0,0.0,0.0,0.0,0.0,0.0,0.0,0.0,0.0,0.0,0.0,0.0,0.0,0.0,-1.5264,-1.542,-1.542,-1.542,-1.542,-1.5478,-1.5478,-1.542,-1.5604,-1.5798,0.0,0.0,0.0,0.0,0.0,0.0,0.0,0.0,0.0,0.0,0.0,0.0,0.0,0.0,0.0,0.0,0.0,0.0,0.0,0.0,0.0,0.0,0.0,0.0,0.0,0.0,0.0,0.0,-2.7406,-2.7536,-2.759,0.0,0.0,0.0,0.0,0.0,0.0,0.0,0.0,0.0,0.0,-2.898,-2.8651,-2.8944,0.0,0.0,-2.9333,-2.974,-3.0473,-3.0988,-3.1422,-3.1789,-3.2033,0.0,0.0,0.0,0.0,0.0,0.0,0.0,0.0,0.0,0.0,0.0,0.0,0.0,0.0,0.0,0.0,0.0,0.0,0.0,0.0,0.0,0.0,0.0,0.0,0.0,0.0,0.0,0.0,0.0,0.0,0.0,0.0,0.0,0.0,0.0,0.0,0.0,0.0,0.0,0.0,0.0,0.0,0.0,0.0,0.0,0.0,0.0,0.0,0.0,0.0,0.0,0.0,-1.5303,-1.542,-1.542,-1.542,-1.542,-1.542,-1.5478,-1.5596,-1.5851,-1.6048,0.0,0.0,0.0,0.0,0.0,0.0,0.0,0.0,0.0,0.0,0.0,0.0,0.0,0.0,0.0,0.0,0.0,0.0,0.0,0.0,0.0,0.0,0.0,0.0,0.0,0.0,0.0,0.0,-2.7523,-2.759,-2.7669,0.0,0.0,0.0,0.0,0.0,0.0,0.0,0.0,0.0,0.0,-2.9107,-2.8651,-2.9082,-2.9536,-2.9481,-2.9794,-3.0323,-3.1165,-3.145,-3.1694,-3.2101,0.0,0.0,0.0,0.0,0.0,0.0,0.0,0.0,0.0,0.0,0.0,0.0,0.0,0.0,0.0,0.0,0.0,0.0,0.0,0.0,0.0,0.0,0.0,0.0,0.0,0.0,0.0,0.0,0.0,0.0,-0.1849,0.0,0.0,0.0,0.0,0.0,0.0,0.0,0.0,0.0,0.0,0.0,0.0,0.0,0.0,0.0,0.0,0.0,0.0,0.0,0.0,0.0,0.0,-1.541,-1.542,-1.542,-1.542,-1.542,-1.542,-1.5625,-1.6096,-1.6417,-1.6739,-1.6994,0.0,0.0,0.0,0.0,0.0,0.0,0.0,0.0,0.0,0.0,0.0,0.0,0.0,0.0,0.0,0.0,0.0,0.0,0.0,0.0,0.0,0.0,0.0,0.0,0.0,0.0,-2.7469,-2.7643,-2.7855,0.0,0.0,0.0,0.0,0.0,0.0,0.0,0.0,0.0,0.0,-2.8651,-2.8587,-2.8614,-2.9154,-2.9508,-2.9576,-3.0486,-3.1246,-3.13,-3.1789,-3.2155,0.0,0.0,0.0,0.0,0.0,0.0,0.0,0.0,0.0,0.0,0.0,0.0,0.0,0.0,0.0,0.0,0.0,0.0,0.0,0.0,0.0,0.0,0.0,0.0,0.0,0.0,0.0,-0.0179,-0.0958,0.0,0.0,0.0,0.0,0.0,0.0,0.0,0.0,0.0,0.0,0.0,-1.0408,-1.0408,0.0,0.0,0.0,0.0,0.0,0.0,0.0,0.0,0.0,0.0,0.0,0.0,-1.542,-1.542,-1.542,-1.5557,-1.583,-1.585,-1.6115,-1.6671,-1.6877,-1.7264,-1.7879,0.0,0.0,0.0,0.0,0.0,0.0,0.0,0.0,0.0,0.0,0.0,0.0,0.0,0.0,0.0,0.0,0.0,0.0,0.0,0.0,0.0,0.0,0.0,0.0,0.0,-2.7469,0.0,0.0,0.0,0.0,0.0,0.0,0.0,0.0,0.0,0.0,0.0,-2.8587,-2.8587,-2.8587,-2.8736,-2.9116,-2.9347,-2.9754,0.0,0.0,0.0,0.0,0.0,0.0,0.0,0.0,0.0,0.0,0.0,0.0,0.0,0.0,-3.5946,-3.6071,-3.6996,-3.7852,-3.8473,0.0,0.0,0.0,0.0,0.0,0.0,0.0,0.0,0.0,0.0,0.0,0.0,0.0,0.0,-0.0554,0.0,-0.1419,0.0,0.0,0.0,0.0,0.0,0.0,0.0,0.0,-0.9072,-0.9925,-1.0555,-1.0618,-1.0618,0.0,-1.0807,-1.1476,0.0,0.0,0.0,0.0,0.0,0.0,0.0,0.0,-1.5478,-1.5635,-1.5635,-1.585,-1.6269,-1.6299,-1.6628,-1.7179,-1.754,-1.8009,-1.8609,-1.862,-1.882,0.0,0.0,0.0,0.0,0.0,0.0,0.0,0.0,0.0,0.0,0.0,0.0,0.0,0.0,0.0,0.0,0.0,0.0,0.0,0.0,0.0,0.0,0.0,-2.7469,0.0,0.0,0.0,0.0,0.0,0.0,0.0,0.0,0.0,-2.8587,-2.8587,-2.8587,-2.8587,-2.8763,-2.9048,-2.9414,0.0,0.0,0.0,0.0,0.0,0.0,0.0,-3.2169,-3.2169,-3.2169,-3.2323,-3.2791,-3.4064,-3.5317,-3.6137,0.0,0.0,-3.6694,-3.7096,-3.7658,-3.7994,-3.8674,-3.9458,-4.0217,-4.068,-4.1067,0.0,0.0,0.0,0.0,0.0,0.0,0.0,0.0,-0.0185,-0.0927,0.0,-0.2168,0.0,0.0,0.0,0.0,0.0,-0.7219,0.0,0.0,-0.9837,-1.0618,-1.0618,-1.0618,-1.0618,-1.0624,-1.094,-1.1421,-1.195,-1.2143,0.0,0.0,0.0,0.0,0.0,0.0,-1.5644,-1.6064,-1.6084,-1.6299,-1.6665,-1.6694,-1.7017,-1.7615,-1.8374,-1.8854,-1.9065,-1.9121,-1.9131,-1.9131,-1.9131,0.0,0.0,0.0,0.0,0.0,0.0,0.0,0.0,0.0,0.0,0.0,0.0,0.0,0.0,0.0,0.0,0.0,0.0,0.0,0.0,-2.7469,0.0,0.0,0.0,0.0,0.0,0.0,0.0,0.0,0.0,0.0,-2.8587,-2.8587,-2.86,-2.8627,0.0,0.0,0.0,0.0,-3.13,-3.1327,-3.1816,-3.2169,-3.2169,-3.2169,-3.2169,-3.2169,0.0,0.0,-3.3057,-3.4423,-3.5502,-3.5571,-3.6662,-3.7534,-3.7534,-3.6978,-3.6615,-3.6693,-3.7814,-3.8679,-3.8898,-4.0401,-4.1541,0.2367,0.0,0.0,0.0,0.0,0.0699,0.0257,-0.0066,-0.1114,-0.1834,-0.236,-0.2881,0.0,0.0,0.0,0.0,0.0,0.0,-0.8221,-0.849,-0.9913,-1.0618,-1.0618,-1.0618,-1.0618,-1.0624,-1.094,-1.1178,-1.1358,-1.1677,-1.2343,-1.3381,0.0,0.0,0.0,0.0,-1.584,-1.5794,-1.6283,-1.6485,-1.6356,-1.6917,-1.7524,-1.8215,-1.8736,-1.9075,-1.9131,-1.9131,-1.9131,-1.9131,-1.9131,0.0,0.0,0.0,0.0,0.0,0.0,0.0,0.0,0.0,0.0,0.0,0.0,0.0,0.0,0.0,0.0,0.0,0.0,0.0,-2.7456,-2.7469,-2.7469,0.0,0.0,0.0,0.0,0.0,0.0,0.0,0.0,0.0,-2.8587,-2.8587,-2.875,0.0,0.0,-2.9794,-3.0663,-3.107,-3.1436,-3.1857,-3.2074,0.0,-3.2169,-3.2169,-3.2169,-3.2169,-3.2727,-3.3413,-3.4032,-3.5093,-3.5976,-3.6473,-3.6632,-3.6693,-3.6772,-3.7317,-3.7749,-3.8277,-3.8929,-3.958,-4.013,-4.0904,-4.1456,0.1975,0.1596,0.1595,0.1161,0.0524,0.0131,-0.0198,-0.047,-0.1344,-0.1947,-0.2348,-0.3086,-0.3616,-0.4082,-0.4885,0.0,0.0,0.0,-0.8215,-0.8941,-0.9779,-1.0301,-1.0561,-1.0618,-1.0624,-1.0688,-1.0933,-1.1185,-1.1369,-1.1623,-1.219,-1.3123,0.0,0.0,-1.5285,-1.6009,-1.6345,-1.6364,-1.6715,-1.6787,-1.6486,-1.6784,-1.7186,-1.7696,-1.8046,-1.824,-1.824,-1.824,-1.8375,-1.8654,-1.8654,-1.8787,0.0,0.0,0.0,0.0,0.0,0.0,0.0,0.0,0.0,0.0,0.0,-2.2308,-2.2894,0.0,0.0,0.0,-2.662,-2.7027,-2.7456,-2.7469,0.0,0.0,0.0,0.0,0.0,0.0,0.0,-2.8379,-2.8509,-2.8695,-2.8912,-2.894,-2.9075,-2.9442,-2.9889,-3.0473,-3.1192,0.0,-3.1775,-3.2128,-3.2169,-3.2169,-3.2169,-3.2169,-3.225,-3.2481,-3.3219,-3.3957,-3.4574,-3.5333,-3.6,-3.6332,-3.6457,-3.6405,-3.6405,-3.7148,-3.7749,-3.8052,-3.8694,-3.9478,-4.013,-4.0836,-4.1456,0.1678,0.1008,0.0941,0.0538,-0.0067,-0.0067,-0.047,-0.1076,-0.1143,-0.1545,-0.228,-0.3013,-0.382,-0.4758,-0.5557,0.0,-0.7116,-0.7242,-0.8086,-0.9454,-0.9518,-0.997,-1.0618,-1.0618,-1.0681,-1.08,-1.1017,-1.1369,-1.1768,-1.1927,-1.2241,-1.2541,-1.3615,-1.4571,-1.5495,-1.6194,-1.679,-1.7148,-1.7224,-1.714,-1.6784,-1.6507,-1.6385,-1.6603,-1.6802,-1.6941,-1.6941,-1.6932,-1.7207,-1.7891,-1.7901,-1.824,-1.8931,0.0,0.0,0.0,0.0,0.0,0.0,0.0,0.0,0.0,0.0,0.0,0.0,0.0,0.0,0.0,-2.704,0.0,-2.7469,-2.7469,0.0,0.0,0.0,-2.7669,-2.8079,-2.8079,-2.821,-2.8522,0.0,0.0,-2.9414,-2.9564,-2.9618,-2.9618,-3.0581,-3.13,-3.1368,-3.1829,-3.2169,-3.2169,-3.2169,-3.2169,-3.2182,-3.2236,-3.2467,-3.2928,-3.3593,-3.419,-3.4706,-3.5289,-3.5669,-3.579,-3.6045,-3.6312,-3.6312,-3.6615,-3.6772,-3.6633,-3.7734,-3.884,-3.9305,-4.0447,-4.1456,0.0941,0.0202,-0.0336,-0.0672,-0.0806,-0.0873,-0.0941,-0.1143,-0.1612,-0.2348,-0.3218,-0.4082,-0.5017,-0.5954,-0.6152,-0.6416,-0.6609,-0.7712,-0.8355,-0.8812,-0.9843,-1.0428,-1.0555,-1.0618,-1.0624,-1.0694,-1.1168,-1.1444,-1.1593,-1.2085,-1.257,-1.287,-1.3674,-1.4201,-1.4494,-1.5119,-1.5385,-1.525,-1.5817,-1.6079,-1.6018,-1.6167,-1.6298,-1.6376,-1.6724,-1.6941,-1.6941,-1.6941,-1.7001,-1.7139,-1.7148,-1.7491,-1.824,-1.825,0.0,0.0,0.0,0.0,0.0,0.0,0.0,0.0,0.0,-2.2833,-2.2561,0.0,-2.448,0.0,-2.6676,-2.7469,-2.7469,-2.7469,0.0,0.0,-2.7469,-2.7669,-2.8079,-2.8079,-2.8224,-2.8522,-2.8994,-2.9319,-2.9455,-3.0296,-3.0866,-3.0866,-3.111,-3.1463,-3.1897,-3.2074,-3.2169,-3.2169,-3.2169,-3.2169,-3.2223,-3.2576,-3.2888,-3.3111,-3.3932,-3.4665,-3.4814,-3.533,-3.571,-3.571,-3.579,-3.5884,-3.5884,-3.5965,-3.6317,-3.693,-3.7987,-3.8811,-3.9088,-4.013,-4.1086,0.0403,-0.0067,-0.0806,-0.1076,-0.1076,-0.1143,-0.121,-0.1344,-0.1747,-0.235,-0.322,-0.4417,-0.5484,-0.6284,-0.6354,-0.6548,-0.6942,-0.7717,-0.8361,-0.9,-0.9716,-1.0301,-1.0624,-1.0695,-1.0819,-1.089,-1.1438,-1.1854,-1.2062,-1.2514,-1.2906,-1.3214,-1.3633,-1.3838,-1.3909,-1.4874,-1.5261,-1.51,-1.5171,-1.5251,-1.5321,-1.5321,-1.533,-1.5321,-1.5683,-1.5816,-1.5824,-1.5816,-1.6026,-1.6385,-1.6385,-1.6932,-1.7969,-1.8586,-1.9049,0.0,0.0,0.0,0.0,0.0,0.0,0.0,0.0,0.0,0.0,0.0,-2.4755,-2.5545,-2.6744,-2.7469,-2.7469,-2.7469,-2.7469,-2.7469,-2.7469,-2.7603,-2.7934,-2.7934,-2.8172,-2.8704,-2.908,-2.9484,-2.9734,-3.0656,-3.1311,-3.1253,-3.1208,-3.1342,-3.1709,-3.2009,-3.2023,-3.1482,-3.1556,-3.1884,-3.2112,-3.2685,-3.324,-3.3783,-3.4394,-3.4909,-3.5181,-3.5493,-3.571,-3.571,-3.571,-3.571,-3.5723,-3.5954,-3.6321,-3.6879,-3.7915,-3.8924,-3.9742,-4.0568,-4.1386,-0.0068,-0.0204,-0.0815,-0.1155,-0.1155,-0.1292,-0.1422,-0.1547,-0.1681,-0.2217,-0.3086,-0.4619,-0.5617,-0.6218,-0.6354,-0.6745,-0.7391,-0.7521,-0.8247,-0.9373,-0.9637,-1.0046,-1.0681,-1.0929,-1.1115,-1.132,-1.1817,-1.2317,-1.2713,-1.2975,-1.3214,-1.3477,-1.3492,-1.3492,-1.3564,-1.476,-1.5392,-1.5392,-1.4824,-1.4545,-1.4689,-1.4274,-1.4065,-1.4065,-1.4425,-1.4497,-1.4425,-1.4497,-1.4991,-1.5754,-1.5833,-1.6473,-1.7988,-1.9222,-1.9846,0.0,-2.055,0.0,0.0,0.0,0.0,0.0,0.0,0.0,0.0,-2.5063,-2.5594,-2.6346,-2.704,-2.7469,-2.7469,-2.7469,-2.7469,-2.7469,-2.7469,-2.759,-2.7789,-2.7789,-2.808,-2.8811,-2.9147,-2.956,-3.0,-3.077,-3.1227,-3.1101,-3.1031,-3.1044,-3.0996,-3.1542,-3.1643,-3.0482,-3.0773,-3.1487,-3.2048,-3.2617,-3.3432,-3.4492,-3.4751,-3.5033,-3.5601,-3.5696,-3.571,-3.571,-3.571,-3.5737,-3.5805,-3.6252,-3.6646,-3.696,-3.7979,-3.9264,-4.0363,-4.116,-4.2025,-0.0431,-0.1005,-0.1077,-0.1221,-0.1365,-0.1509,-0.1541,-0.1412,-0.215,-0.3286,-0.4686,-0.5613,-0.6148,-0.6354,-0.6354,-0.6482,-0.6679,-0.7777,-0.8592,-0.9036,-1.0174,-1.0896,-1.1256,-1.1323,-1.1411,-1.1635,-1.2137,-1.253,-1.2805,-1.32,-1.3433,-1.3492,-1.3492,-1.3492,-1.3492,0.0,0.0,0.0,-1.3768,-1.3702,-1.3775,-1.3855,-1.3863,-1.3863,-1.4217,0.0,-1.4425,-1.4569,-1.4991,-1.5762,-1.5833,0.0,0.0,0.0,0.0,0.0,0.0,0.0,0.0,0.0,0.0,0.0,-2.2414,-2.2756,-2.3128,-2.4432,-2.5581,-2.6358,-2.704,-2.7469,-2.7469,-2.7469,-2.7469,-2.7469,-2.7469,-2.759,-2.7789,-2.7789,-2.808,-2.8811,-2.9495,-2.9974,-3.0032,-3.0711,-3.1027,-3.0532,-3.0469,-3.0241,-2.9871,-3.0709,-3.1084,-3.0495,-3.074,-3.1396,-3.1988,-3.2529,-3.3463,-3.4446,-3.4768,-3.4981,-3.5507,-3.571,-3.571,-3.571,-3.571,-3.5886,-3.632,-3.6537,-3.6944,-3.7881,-3.878,-3.9683,-4.0068,-4.0823,-4.164,-0.0874,-0.1166,-0.1166,-0.1239,0.0,-0.1603,-0.158,-0.1611,-0.2657,-0.405,-0.5503,-0.6264,-0.6611,-0.668,-0.6684,-0.668,-0.6753,-0.8165,-0.8904,-0.9086,-1.0522,-1.1283,-1.143,-1.1646,-1.1852,-1.2005,-1.2593,-1.2885,-1.3042,-1.3339,-1.3492,-1.3492,-1.3492,-1.3492,-1.3492,-1.3492,-1.3492,-1.3492,-1.3492,-1.3492,-1.3492,-1.3717,-1.3725,-1.3645,-1.4145,0.0,0.0,0.0,0.0,0.0,0.0,0.0,0.0,-1.887,0.0,-2.0689,-2.1197,-2.1455,-2.1616,-2.1824,-2.2025,-2.2262,-2.2402,-2.299,-2.3863,-2.5146,-2.6139,-2.6837,-2.731,-2.7469,-2.7469,-2.7469,-2.7469,-2.7469,-2.7469,-2.7523,-2.7616,-2.7556,-2.7726,-2.8376,-2.8931,-2.934,-2.9315,-3.0138,-3.0456,-2.9947,-2.9871,-2.9716,-2.9561,-3.0177,-3.0545,-2.996,-3.0649,-3.1331,-3.2045,-3.3146,-3.4045,-3.4968,-3.5184,-3.5359,-3.5642,-3.571,-3.571,-3.5737,-3.594,-3.6266,-3.6551,-3.7066,-3.7704,-3.8274,-3.8974,-3.99,-4.0723,-4.1642,-4.2575,-0.1108,-0.1256,-0.1256,-0.1257,-0.1257,-0.1552,-0.192,-0.2361,0.0,0.0,0.0,-0.6738,-0.7019,-0.7019,-0.7019,-0.7019,-0.7091,-0.8362,-0.9082,-0.9336,-1.0659,-1.1391,-1.159,-1.2043,-1.2301,-1.2322,-1.2926,-1.32,-1.3273,-1.3419,-1.3492,-1.3492,-1.3492,-1.3492,-1.3492,-1.3492,-1.3492,-1.3492,-1.3492,-1.3492,-1.3492,-1.3645,-1.3645,-1.3492,-1.3992,-1.4209,-1.4065,-1.4353,-1.4673,-1.4881,-1.5786,-1.689,-1.7896,-1.9206,-2.0392,-2.1174,-2.159,-2.1883,-2.2025,-2.2025,-2.2111,-2.2317,-2.2478,-2.3276,-2.4945,-2.5639,-2.6333,-2.7255,-2.7323,-2.7323,-2.7323,-2.7323,-2.7242,-2.7108,-2.7108,-2.7146,-2.7194,-2.7069,-2.7145,-2.7804,-2.8201,-2.8467,-2.8579,-2.9369,-2.9871,-2.9419,-2.9275,-2.9263,-2.9263,-2.9651,-2.9856,-2.9774,-3.0552,-3.1363,-3.214,-3.338,-3.4741,-3.5265,-3.544,-3.5548,-3.571,-3.571,-3.575,-3.5913,-3.6293,-3.6646,-3.6931,-3.7704,-3.8423,-3.8559,-3.9128,-4.0041,-4.1561,-4.271,-4.3524,-0.0621,-0.1245,-0.1245,-0.1245,-0.1322,-0.1712,-0.2871,-0.4474,-0.4509,-0.5362,-0.6881,-0.6952,-0.7019,-0.7019,-0.7019,-0.7019,-0.7023,-0.7797,-0.8664,-0.9574,-1.0444,-1.1291,-1.2178,-1.2444,-1.2611,-1.2837,-1.3105,-1.3273,-1.3419,-1.3499,-1.3492,-1.3492,-1.3492,-1.3492,-1.3492,-1.3492,-1.3492,-1.3492,-1.3492,-1.3492,-1.3492,-1.3492,-1.3572,-1.3492,-1.3717,-1.387,-1.3863,-1.4217,-1.4848,-1.578,-1.6147,-1.7276,-1.937,-1.9769,-2.0456,-2.1587,-2.1766,-2.1807,-2.1797,-2.1873,-2.1959,-2.2101,-2.2187,-2.2681,-2.3902,-2.4264,-2.4981,-2.6346,-2.6552,-2.6564,-2.6552,-2.6564,-2.6346,-2.5721,-2.5652,-2.5739,-2.6225,-2.6227,-2.6528,-2.7521,-2.7815,-2.8094,-2.8354,-2.8779,-2.8949,-2.8736,-2.8749,-2.8669,-2.8773,-2.8657,-2.9169,-2.9905,-3.0655,-3.1272,-3.1926,-3.3046,-3.4145,-3.4772,-3.4881,-3.5127,-3.5629,-3.5764,-3.5927,-3.6375,-3.6605,-3.7039,-3.7867,-3.8274,-3.864,-3.8993,-3.9724,-4.0617,-4.1728,-4.2725,-4.36,-0.047,-0.1258,-0.1336,-0.1336,-0.1336,-0.173,-0.3057,-0.4916,-0.4887,-0.5735,-0.7162,-0.724,-0.724,-0.724,-0.724,-0.724,-0.7315,-0.8479,-0.9264,-0.9807,-1.0991,-1.1879,-1.2439,-1.268,-1.2893,-1.3046,-1.3266,-1.3426,-1.3499,-1.3492,-1.3492,-1.3492,-1.3492,-1.3492,-1.3492,-1.3492,-1.3492,-1.3492,-1.3492,-1.3492,-1.3492,-1.3492,-1.3492,-1.3492,-1.3725,-1.3887,-1.4059,-1.4421,-1.5012,-1.5654,-1.6523,-1.7462,-1.8497,-1.9189,-1.986,-2.043,-2.0857,-2.1098,-2.1098,-2.1568,-2.1873,-2.1949,-2.2025,-2.2317,-2.2809,-2.3463,-2.4325,-2.5475,-2.5615,-2.5697,-2.5791,-2.5791,-2.5652,-2.53,-2.5312,-2.5516,-2.584,-2.5828,-2.606,-2.6749,-2.7044,-2.722,-2.7371,-2.7742,-2.8007,-2.8111,-2.8363,-2.8595,-2.8883,-2.8943,-2.9084,-2.9711,-3.1016,-3.1921,-3.2009,-3.3566,-3.4581,-3.4716,-3.5059,-3.5291,-3.5656,-3.5927,-3.628,-3.6592,-3.708,-3.7731,-3.8396,-3.8695,-3.8993,-3.9169,-3.9543,-4.0374,-4.1645,-4.3046,-4.4174,-0.047,-0.1336,-0.1336,-0.1414,-0.1571,-0.2042,-0.329,-0.5002,-0.5234,-0.6086,-0.7403,-0.748,-0.748,-0.748,-0.748,-0.748,-0.771,-0.8993,-0.9744,-1.0045,-1.1397,-1.2298,-1.2606,-1.2826,-1.3046,-1.32,-1.3419,-1.3492,-1.3492,-1.3492,-1.3492,-1.3492,-1.3492,-1.3492,-1.3492,-1.3492,-1.3492,-1.3492,-1.3492,-1.3492,-1.3492,-1.3492,-1.3492,-1.3499,-1.3719,-1.3948,-1.4276,-1.4652,-1.5072,-1.549,-1.6517,-1.7318,-1.7639,-1.8461,-1.9107,-1.9344,-2.006,-2.0624,-2.0779,-2.1405,-2.1807,-2.1807,-2.1949,-2.2035,-2.2101,-2.266,-2.3526,-2.4457,-2.4672,-2.4755,-2.4921,-2.5004,-2.4945,-2.4814,-2.4848,-2.5069,-2.555,-2.5532,-2.5735,-2.6131,-2.6293,-2.6434,-2.6528,-2.6764,-2.7278,-2.7881,-2.8203,-2.8566,-2.9172,-2.9376,-2.9496,-3.0175,-3.1592,-3.2465,-3.2184,-3.3975,-3.5101,-3.4634,-3.5127,-3.5629,-3.594,-3.6334,-3.6768,-3.7039,-3.7758,-3.8355,-3.8586,-3.8966,-3.9237,-3.9305,-3.9394,-3.9881,-4.1659,-4.3427,-4.4648,-0.0471,-0.1257,-0.1497,-0.1805,-0.2198,-0.2902,-0.3915,-0.5007,-0.5777,-0.6626,-0.7492,-0.748,-0.7484,-0.748,-0.748,-0.748,-0.7557,-0.8394,-0.9221,-0.9965,-1.1031,-1.1855,-1.2606,-1.2973,-1.32,-1.32,-1.3426,-1.3492,-1.3492,-1.3492,-1.3492,-1.3492,-1.3492,-1.3492,-1.3492,-1.3492,-1.3492,-1.3492,-1.3492,-1.3492,-1.3492,-1.3492,-1.3492,-1.3499,-1.3784,-1.4028,-1.4101,-1.4491,-1.4952,-1.5579,-1.5888,-1.6677,-1.7743,-1.8052,-1.847,-1.9186,-2.0051,-2.0857,-2.1568,-2.1721,-2.1807,-2.1807,-2.1807,-2.1797,-2.1807,-2.1949,-2.2456,-2.3379,-2.3806,-2.3891,-2.3963,-2.412,-2.3986,-2.353,-2.3749,-2.4084,-2.4625,-2.4985,-2.5447,-2.5859,-2.6008,-2.6052,-2.6373,-2.6528,-2.6951,-2.7719,-2.8044,-2.8395,-2.9222,-2.9761,-3.0434,-3.1376,-3.244,-3.25,-3.2364,-3.3959,-3.4964,-3.4288,-3.4895,-3.5778,-3.6307,-3.6605,-3.6877,-3.7772,-3.8274,-3.864,-3.8993,-3.9292,-3.9292,-3.9394,-3.9469,-3.9895,-4.1645,-4.3506,-4.4723,-0.0572,-0.1311,-0.1556,-0.1866,-0.2322,-0.3076,-0.4101,-0.5184,-0.606,-0.6856,-0.7646,-0.7646,-0.7586,-0.7484,-0.748,-0.748,-0.7633,-0.8846,-0.9599,-1.0045,-1.1403,-1.2378,-1.2753,-1.3053,-1.3266,-1.3346,-1.3499,-1.3492,-1.3492,-1.3492,-1.3492,-1.3492,-1.3492,-1.3492,-1.3492,-1.3492,-1.3492,-1.3492,-1.3492,-1.3579,-1.3733,-1.3587,-1.3587,-1.377,-1.3916,-1.4179,-1.4509,-1.4835,-1.5203,-1.5672,-1.6029,-1.6417,-1.7025,-1.7204,-1.7367,-1.7844,-1.9027,-2.0372,-2.1731,-2.1807,-2.1807,-2.1807,-2.1807,-2.1807,-2.1807,-2.1807,-2.2014,-2.2381,-2.266,-2.2894,-2.3117,-2.3191,-2.3202,-2.3056,-2.3427,-2.394,-2.4432,-2.4891,-2.536,-2.5808,-2.5895,-2.5979,-2.6135,-2.6373,-2.6775,-2.7417,-2.793,-2.8563,-2.9606,-3.0218,-3.1077,-3.2128,-3.2959,-3.3191,-3.3079,-3.4371,-3.5059,-3.4782,-3.5352,-3.6388,-3.6592,-3.7311,-3.7894,-3.8369,-3.8667,-3.8939,-3.921,-3.9305,-3.9305,-3.9469,-4.0388,-4.1156,-4.1908,-4.3521,-4.4708,-0.0841,-0.1431,-0.1766,-0.2083,-0.2458,-0.3219,-0.4268,-0.5381,-0.6202,-0.7101,-0.7829,-0.7829,-0.7756,-0.7626,-0.7529,-0.748,-0.771,-0.914,-0.997,-1.019,-1.1848,-1.282,-1.2973,-1.32,-1.3346,-1.3492,-1.3492,-1.3492,-1.3492,-1.3492,-1.3492,-1.3492,-1.3492,-1.3492,-1.3492,-1.3492,-1.3492,-1.3499,-1.3572,-1.3748,-1.3931,-1.3836,-1.3872,-1.4099,-1.4209,-1.4472,-1.4918,-1.5183,-1.5413,-1.5718,-1.6064,-1.6312,-1.6386,-1.6566,-1.6722,-1.7131,-1.847,-1.9894,-2.1339,-2.1655,-2.1807,-2.1807,-2.1807,-2.1807,-2.1807,-2.1807,-2.1807,-2.1883,-2.1949,-2.2176,-2.2478,-2.2628,-2.2821,-2.3123,-2.3569,-2.4137,-2.4628,-2.5087,-2.5513,-2.5841,-2.5895,-2.5895,-2.5979,-2.6135,-2.649,-2.719,-2.7819,-2.8736,-2.982,-3.0553,-3.1295,-3.2698,-3.3458,-3.3784,-3.3797,-3.4799,-3.5236,-3.5421,-3.5935,-3.6673,-3.6958,-3.7962,-3.8559,-3.8722,-3.9088,-3.9264,-3.9292,-3.9305,-3.9469,-3.9895,-4.0816,-4.1976,-4.2548,-4.3912,-4.4799,-0.1431,-0.1768,-0.2187,-0.244,-0.2769,-0.3677,-0.4592,-0.5515,-0.6427,-0.7256,-0.7918,-0.8,-0.7996,-0.7947,-0.765,-0.7492,-0.7714,-0.9236,-1.0056,-1.0421,-1.207,-1.2973,-1.32,-1.3419,-1.3492,-1.3492,-1.3492,-1.3492,-1.3492,-1.3492,-1.3492,-1.3492,-1.3492,-1.3492,-1.3492,-1.3514,-1.3499,-1.355,-1.3814,-1.3982,-1.404,-1.4282,-1.4421,-1.4494,-1.4728,-1.4882,-1.4903,-1.5248,-1.5492,-1.565,-1.5733,-1.5982,-1.6312,-1.6394,-1.6878,-1.7836,-1.8789,-1.9659,-2.0547,-2.1339,-2.1807,-2.1807,-2.1807,-2.1807,-2.1807,-2.1807,-2.1807,-2.1807,-2.1807,-2.1949,-2.2111,-2.2402,-2.281,-2.3306,-2.3959,-2.4585,-2.5065,-2.5502,-2.583,-2.5895,-2.5895,-2.5895,-2.5895,-2.5895,-2.6356,-2.6992,-2.7363,-2.8077,-2.9682,-3.0497,-3.1565,-3.2867,-3.381,-3.423,-3.3966,-3.4799,-3.5546,-3.5811,-3.6273,-3.6999,-3.7786,-3.8464,-3.8776,-3.9007,-3.9197,-3.9305,-3.9305,-3.9469,-3.9719,-4.0301,-4.1141,-4.214,-4.2936,-4.4251,-4.5129,-0.1579,-0.2014,-0.2333,-0.2578,-0.2917,-0.4303,-0.5149,-0.5639,-0.7168,-0.7934,-0.8191,-0.8191,-0.8126,-0.8008,-0.7882,-0.8074,-0.859,-0.9591,-1.0427,-1.1043,-1.2298,-1.2973,-1.3193,-1.3419,-1.3492,-1.3492,-1.3492,-1.3492,-1.3492,-1.3492,-1.3492,-1.3492,-1.3492,-1.3492,-1.3528,-1.3711,-1.3806,-1.3843,-1.4121,-1.4392,-1.4567,-1.4714,-1.4867,-1.5057,-1.4984,-1.5043,-1.5248,-1.5372,-1.5423,-1.5506,-1.5658,-1.5906,-1.6162,-1.6484,-1.7049,-1.7925,-1.878,-1.9659,-2.0459,-2.1328,-2.1807,-2.1807,-2.1807,-2.1807,-2.1807,-2.1807,-2.1807,-2.1807,-2.1807,-2.1807,-2.1949,-2.2176,-2.2594,-2.3294,-2.3935,-2.4592,-2.512,-2.56,-2.5895,-2.5895,-2.5895,-2.5895,-2.5895,-2.5906,-2.6261,-2.7138,-2.7581,-2.8324,-2.9496,-3.0584,-3.1734,-3.2673,-3.3615,-3.4397,-3.4799,-3.5223,-3.5832,-3.6304,-3.6834,-3.7402,-3.8193,-3.8749,-3.9115,-3.9142,-3.9292,-3.9305,-3.9305,-3.9305,-3.9719,-4.0631,-4.1478,-4.2371,-4.3334,-4.4572,-4.5129,-0.1885,-0.2239,-0.2475,-0.2635,-0.3069,-0.4739,-0.5521,-0.5854,-0.7595,-0.8381,-0.8377,-0.8377,-0.8308,-0.8207,-0.8191,-0.8504,-0.9209,-1.002,-1.0673,-1.1288,-1.2585,-1.3276,-1.35,-1.3732,-1.3806,-1.3792,-1.3697,-1.3601,-1.3499,-1.3492,-1.355,-1.3653,-1.3653,-1.3711,-1.3828,-1.4033,-1.4136,-1.4194,-1.4457,-1.4728,-1.4845,-1.5043,-1.5196,-1.5365,-1.5211,-1.5114,-1.5423,-1.5431,-1.5431,-1.5431,-1.5499,-1.5748,-1.6087,-1.6492,-1.6968,-1.7602,-1.8709,-1.9502,-2.0148,-2.1185,-2.1807,-2.1807,-2.1807,-2.1807,-2.1807,-2.1807,-2.1807,-2.1807,-2.1818,-2.1838,-2.1994,-2.2189,-2.252,-2.3285,-2.3913,-2.4557,-2.5267,-2.5616,-2.5801,-2.5906,-2.5895,-2.5895,-2.5928,-2.6059,-2.6535,-2.7212,-2.7787,-2.8443,-2.9374,-3.0655,-3.1777,-3.2463,-3.3615,-3.4528,-3.5103,-3.5568,-3.6223,-3.6737,-3.7236,-3.789,-3.8464,-3.9007,-3.9264,-3.9305,-3.9305,-3.9305,-3.9305,-3.9305,-3.9881,-4.0788,-4.1601,-4.2504,-4.357,-4.4723,-4.5278,-0.2155,-0.2243,-0.2694,-0.2957,-0.331,-0.4896,-0.5708,-0.6148,-0.7749,-0.854,-0.8536,-0.8552,-0.8528,-0.854,-0.8503,-0.8871,-0.9442,-1.0249,-1.0842,-1.1261,-1.2864,-1.3825,-1.4052,-1.4277,-1.4362,-1.4362,-1.4121,-1.3828,-1.3594,-1.3609,-1.3726,-1.3938,-1.3989,-1.4106,-1.4435,-1.4428,-1.4472,-1.4538,-1.4787,-1.4867,-1.4977,-1.5248,-1.5401,-1.5431,-1.5409,-1.5401,-1.5431,-1.5431,-1.5431,-1.5431,-1.5431,-1.5597,-1.6087,-1.6492,-1.673,-1.7049,-1.8318,-1.9195,-1.9529,-2.0857,-2.1807,-2.1807,-2.1807,-2.1807,-2.1807,-2.1807,-2.1807,-2.1807,-2.1869,-2.2004,-2.2377,-2.2542,-2.2897,-2.3465,-2.4129,-2.4708,-2.5292,-2.5527,-2.5644,-2.5801,-2.5863,-2.5884,-2.6005,-2.6278,-2.6715,-2.7327,-2.7765,-2.8294,-2.9341,-3.0664,-3.1665,-3.2401,-3.3658,-3.4931,-3.5376,-3.5836,-3.6534,-3.7178,-3.7663,-3.8175,-3.8742,-3.9292,-3.9292,-3.9305,-3.9305,-3.9305,-3.9305,-3.9394,-4.0229,-4.1043,-4.185,-4.2826,-4.4066,-4.5129,-4.5352,-0.2155,-0.2244,-0.2694,-0.332,-0.3944,-0.5188,-0.6077,-0.6782,-0.8036,-0.8572,-0.8572,-0.8572,-0.8572,-0.8572,-0.8568,-0.8711,-0.8992,-1.0519,-1.1492,-1.1944,-1.3186,-1.3916,-1.4152,-1.4394,-1.4465,-1.4457,-1.437,-1.4267,-1.4172,-1.415,-1.4231,-1.4304,-1.4318,-1.4362,-1.4501,-1.4677,-1.4794,-1.4831,-1.5109,-1.5277,-1.5277,-1.5372,-1.5431,-1.5431,-1.5431,-1.5431,-1.5431,-1.5431,-1.5431,-1.5431,-1.5431,-1.5597,-1.6087,-1.6492,-1.6648,-1.6886,-1.831,-1.9256,-1.9502,-2.0769,-2.1807,-2.1807,-2.1807,-2.1807,-2.1807,-2.1807,-2.1818,-2.1859,-2.2087,-2.2377,-2.2553,-2.3101,-2.3535,-2.3958,-2.4209,-2.4545,-2.5125,-2.5185,-2.533,-2.5703,-2.5611,-2.5699,-2.6223,-2.6605,-2.6998,-2.7643,-2.796,-2.8335,-2.9157,-3.0609,-3.1577,-3.1952,-3.3627,-3.5207,-3.568,-3.6241,-3.6957,-3.7544,-3.8021,-3.8431,-3.9013,-3.9305,-3.9305,-3.9305,-3.9305,-3.9305,-3.9305,-3.9557,-4.0315,-4.1226,-4.1961,-4.3175,-4.4723,-4.5368,-4.5589,-0.2244,-0.2334,-0.2694,-0.3409,-0.4387,-0.5275,-0.6251,-0.7143,-0.812,-0.8572,-0.8572,-0.8572,-0.8572,-0.8572,-0.8572,-0.8572,-0.8828,-1.0707,-1.1815,-1.2216,-1.3662,-1.4321,-1.4488,-1.4736,-1.4743,-1.4655,-1.464,-1.4575,-1.4465,-1.4472,-1.4531,-1.4618,-1.464,-1.4714,-1.4816,-1.5013,-1.5123,-1.516,-1.5321,-1.5431,-1.5431,-1.5431,-1.5431,-1.5431,-1.5431,-1.5431,-1.5431,-1.5431,-1.5431,-1.5431,-1.5423,-1.5673,-1.6087,-1.6409,-1.6722,-1.7367,-1.839,-1.9423,-1.9816,-2.1011,-2.1807,-2.1807,-2.1807,-2.1807,-2.1807,-2.1807,-2.1849,-2.2087,-2.2304,-2.2635,-2.3039,-2.3484,-2.394,-2.4044,-2.4211,-2.4483,-2.4861,-2.5016,-2.5189,-2.555,-2.5688,-2.6026,-2.6441,-2.7042,-2.7326,-2.7938,-2.82,-2.8616,-2.9385,-3.0598,-3.1412,-3.2325,-3.3977,-3.5135,-3.5884,-3.6603,-3.7418,-3.7896,-3.8349,-3.8714,-3.9149,-3.9305,-3.9305,-3.9305,-3.9305,-3.9305,-3.9305,-3.9305,-3.9807,-4.0887,-4.214,-4.3334,-4.4541,-4.5352,-4.5662,-0.2334,-0.2515,-0.2785,-0.3499,-0.4476,-0.5364,-0.634,-0.7319,-0.8208,-0.8572,-0.8572,-0.8572,-0.8572,-0.8572,-0.8572,-0.8572,-0.9003,-1.0626,-1.1547,-1.2105,-1.3549,-1.465,-1.4809,-1.5141,-1.501,-1.4579,-1.472,-1.467,-1.4403,-1.4468,-1.467,-1.4867,-1.4977,-1.5109,-1.5292,-1.5416,-1.5394,-1.5387,-1.5416,-1.5431,-1.5431,-1.5431,-1.5431,-1.5431,-1.5431,-1.5431,-1.5431,-1.5431,-1.5431,-1.5431,-1.5582,-1.5824,-1.6087,-1.6319,-1.6878,-1.7844,-1.8789,-1.9659,-2.0459,-2.1252,-2.1807,-2.1807,-2.1807,-2.1807,-2.1807,-2.1901,-2.2066,-2.2387,-2.2594,-2.2946,-2.3557,-2.3836,-2.3846,-2.3877,-2.4033,-2.4273,-2.4501,-2.4984,-2.5265,-2.5398,-2.5994,-2.6649,-2.6758,-2.7501,-2.7883,-2.8167,-2.8543,-2.9271,-2.9966,-3.0968,-3.2052,-3.3208,-3.4517,-3.5466,-3.6284,-3.7065,-3.7828,-3.8216,-3.8604,-3.8863,-3.9176,-3.9292,-3.9305,-3.9305,-3.9305,-3.9305,-3.9394,-3.9469,-4.0128,-4.1463,-4.2519,-4.3476,-4.4358,-4.5262,-4.5662,-0.2424,-0.2515,-0.2785,-0.3855,-0.5275,-0.563,-0.6697,-0.812,-0.848,-0.8572,-0.8572,-0.8572,-0.8572,-0.8572,-0.8572,-0.8572,-0.8999,-1.0202,-1.0885,-1.1144,-1.251,-1.3711,-1.4398,-1.4999,-1.4615,-1.3587,-1.3991,-1.4234,-1.4172,-1.4118,-1.4517,-1.5299,-1.5187,-1.5245,-1.5423,-1.5431,-1.5431,-1.5431,-1.5431,-1.5431,-1.5431,-1.5431,-1.5431,-1.5431,-1.5431,-1.5431,-1.5431,-1.5431,-1.5431,-1.5431,-1.5582,-1.5824,-1.6079,-1.6319,-1.6878,-1.7997,-1.8868,-1.9659,-2.0459,-2.1339,-2.1731,-2.1807,-2.1807,-2.1807,-2.1828,-2.2128,-2.2346,-2.2615,-2.3049,-2.3422,-2.3463,-2.365,-2.3681,-2.3443,-2.3515,-2.3618,-2.3872,-2.4045,-2.4523,-2.5352,-2.5888,-2.6627,-2.7381,-2.7861,-2.8189,-2.8646,-2.9259,-3.0,-3.0699,-3.1697,-3.2909,-3.3758,-3.4853,-3.5859,-3.6773,-3.753,-3.8119,-3.8482,-3.8702,-3.893,-3.9189,-3.9305,-3.9305,-3.9305,-3.9305,-3.9305,-3.9557,-3.9793,-4.0958,-4.1947,-4.2906,-4.3789,-4.4692,-4.5515,-4.5662,-0.2604,-0.2694,-0.2875,-0.3942,-0.5633,-0.5722,-0.6786,-0.8388,-0.8572,-0.8572,-0.8572,-0.8572,-0.8572,-0.8572,-0.8572,-0.8572,-0.8828,-0.9946,-1.0549,-1.089,-1.2083,-1.3021,-1.3535,-1.4048,-1.3704,-1.2936,-1.3275,-1.3444,-1.3522,-1.3535,-1.4048,-1.4643,-1.4824,-1.4999,-1.5431,-1.5431,-1.5431,-1.5431,-1.5431,-1.5431,-1.5431,-1.5431,-1.5431,-1.5431,-1.5431,-1.5431,-1.5431,-1.5431,-1.5431,-1.5423,-1.5499,-1.5748,-1.6087,-1.6245,-1.696,-1.839,-1.9018,-1.9816,-2.0857,-2.1568,-2.1731,-2.1807,-2.1807,-2.1921,-2.2087,-2.2366,-2.2532,-2.2853,-2.3318,-2.3391,-2.3267,-2.3277,-2.3244,-2.3116,-2.3043,-2.3217,-2.3556,-2.4161,-2.4791,-2.5589,-2.6367,-2.7031,-2.7981,-2.8189,-2.8704,-2.9271,-2.9772,-3.0609,-3.1424,-3.2661,-3.3756,-3.4612,-3.5427,-3.6439,-3.7187,-3.7881,-3.8456,-3.8756,-3.8948,-3.91,-3.9203,-3.9305,-3.9305,-3.9305,-3.9305,-3.9394,-3.9631,-4.0041,-4.1014,-4.2082,-4.3051,-4.4113,-4.5024,-4.5589,-4.5662,-0.2694,-0.2875,-0.2875,-0.3944,-0.5364,-0.5719,-0.6697,-0.8212,-0.8568,-0.8572,-0.8572,-0.8572,-0.8572,-0.8572,-0.8572,-0.8652,-0.8744,-0.9777,-1.0289,-1.0804,-1.1569,-1.2254,-1.2254,-1.2851,-1.2681,-1.2254,-1.2425,-1.2504,-1.2595,-1.2595,-1.3197,-1.3971,-1.4223,-1.4657,-1.5264,-1.5431,-1.5431,-1.5431,-1.5431,-1.5431,-1.5431,-1.5431,-1.5431,-1.5431,-1.5431,-1.5431,-1.5431,-1.5431,-1.5431,-1.5431,-1.5431,-1.5673,-1.6012,-1.617,-1.7204,-1.8789,-1.9413,-2.0207,-2.1405,-2.1731,-2.1807,-2.1818,-2.1859,-2.2035,-2.2377,-2.2553,-2.278,-2.308,-2.3184,-2.3184,-2.3109,-2.2829,-2.2783,-2.293,-2.2909,-2.3361,-2.3977,-2.4804,-2.5507,-2.6018,-2.7183,-2.7894,-2.8211,-2.8532,-2.9106,-2.9223,-3.0023,-3.1151,-3.2171,-3.3395,-3.4472,-3.547,-3.623,-3.7009,-3.7682,-3.8166,-3.8725,-3.9051,-3.9127,-3.9216,-3.9216,-3.9305,-3.9305,-3.9305,-3.9305,-3.9305,-3.938,-4.0114,-4.1337,-4.2312,-4.3446,-4.4434,-4.5336,-4.5589,-4.5735,-0.2875,-0.2875,-0.2875,-0.3588,-0.4656,-0.5364,-0.6432,-0.7499,-0.83,-0.8572,-0.8572,-0.8572,-0.8572,-0.8572,-0.8572,-0.8656,-0.8828,-0.9432,-0.9781,-1.012,-1.0381,-1.0549,-1.0977,-1.1912,-1.1826,-1.123,-1.1322,-1.158,-1.158,-1.1746,-1.2516,-1.388,-1.3971,-1.4489,-1.5257,-1.5347,-1.5431,-1.5431,-1.5431,-1.5431,-1.5431,-1.5431,-1.5431,-1.5431,-1.5431,-1.5431,-1.5431,-1.5431,-1.5431,-1.5431,-1.5514,-1.5756,-1.6162,-1.6632,-1.7747,-1.9027,-1.9904,-2.0692,-2.1578,-2.1828,-2.1818,-2.188,-2.2128,-2.2387,-2.249,-2.2811,-2.3018,-2.3184,-2.3184,-2.3088,-2.2887,-2.2809,-2.2966,-2.3171,-2.3796,-2.4463,-2.5088,-2.5462,-2.5904,-2.6671,-2.7499,-2.8178,-2.8528,-2.8615,-2.9024,-2.929,-3.0364,-3.1538,-3.2857,-3.4147,-3.5182,-3.6227,-3.6773,-3.7427,-3.792,-3.8402,-3.8841,-3.9216,-3.9216,-3.9305,-3.9305,-3.9305,-3.9305,-3.9305,-3.9305,-3.9394,-3.9618,-4.093,-4.2231,-4.3036,-4.3851,-4.4827,-4.5573,-4.5735,-4.5807,-0.2875,-0.2963,-0.3409,-0.4121,-0.5008,-0.5988,-0.6874,-0.7764,-0.83,-0.8572,-0.8572,-0.8572,-0.8572,-0.8572,-0.8568,-0.8652,-0.8828,-0.9174,-0.9607,-0.9951,-1.0038,-1.0038,-1.0125,-1.0804,-1.089,-1.012,-1.0463,-1.0636,-1.0722,-1.089,-1.166,-1.3275,-1.3451,-1.3886,-1.4741,-1.5173,-1.509,-1.4915,-1.5257,-1.5431,-1.5431,-1.5431,-1.5431,-1.5431,-1.5431,-1.5431,-1.5431,-1.5431,-1.5431,-1.5506,-1.5741,-1.6154,-1.6484,-1.6952,-1.7989,-1.9511,-2.007,-2.0857,-2.1512,-2.2004,-2.2139,-2.2108,-2.2366,-2.2594,-2.2697,-2.2894,-2.2842,-2.2863,-2.2842,-2.2818,-2.2856,-2.3203,-2.3377,-2.394,-2.4577,-2.5452,-2.6119,-2.6314,-2.6552,-2.7355,-2.7978,-2.8429,-2.8669,-2.8839,-2.9669,-3.0204,-3.1199,-3.2422,-3.4073,-3.5244,-3.6015,-3.6776,-3.7245,-3.778,-3.8262,-3.8639,-3.8984,-3.9216,-3.9319,-3.9305,-3.9305,-3.9305,-3.9305,-3.9394,-3.9482,-4.0027,-4.0504,-4.1821,-4.2956,-4.368,-4.4419,-4.5231,-4.5735,-4.5807,-4.5807,-0.2875,-0.2964,-0.3765,-0.4654,-0.5542,-0.6432,-0.7319,-0.8212,-0.8568,-0.8572,-0.8572,-0.8572,-0.8572,-0.8572,-0.8572,-0.8656,-0.8828,-0.9174,-0.9607,-0.9951,-1.0038,-1.0038,-1.0038,-1.012,-1.0207,-1.0038,-1.012,-1.012,-1.012,-1.012,-1.0977,-1.2254,-1.2504,-1.3021,-1.388,-1.4741,-1.4824,-1.4398,-1.4999,-1.5431,-1.5431,-1.5431,-1.5431,-1.5431,-1.5431,-1.5506,-1.5506,-1.5506,-1.559,-1.5748,-1.6386,-1.6944,-1.735,-1.7521,-1.8078,-2.0098,-2.0479,-2.1043,-2.1671,-2.217,-2.2428,-2.2428,-2.247,-2.2646,-2.2853,-2.2749,-2.2687,-2.2687,-2.2718,-2.2797,-2.2951,-2.3695,-2.4352,-2.4945,-2.5546,-2.639,-2.7096,-2.729,-2.7583,-2.7967,-2.8386,-2.8648,-2.8899,-2.9117,-3.0125,-3.121,-3.2154,-3.3285,-3.497,-3.6249,-3.6914,-3.7348,-3.787,-3.8156,-3.8509,-3.8859,-3.9216,-3.9292,-3.9394,-3.9557,-3.9631,-4.0128,-4.0287,-3.9645,-3.9719,-4.036,-4.1085,-4.2231,-4.321,-4.4082,-4.4902,-4.5557,-4.5807,-4.5807,-4.5807,-0.2875,-0.2875,-0.3053,-0.3676,-0.4656,-0.5542,-0.6609,-0.7408,-0.8208,-0.8572,-0.8572,-0.8572,-0.8568,-0.8572,-0.8572,-0.8828,-0.9087,-0.9432,-0.9694,-0.9951,-1.0038,-1.0038,-1.0038,-1.0038,-1.0038,-1.0038,-1.0038,-1.0038,-1.0038,-1.012,-1.0636,-1.1408,-1.1574,-1.2089,-1.3021,-1.3789,-1.4398,-1.423,-1.4915,-1.5347,-1.5431,-1.5431,-1.5431,-1.5431,-1.5499,-1.5575,-1.5658,-1.5741,-1.6057,-1.6862,-1.6935,-1.79,-1.8825,-1.9152,-1.9557,-2.0272,-2.1204,-2.1713,-2.1999,-2.2304,-2.2273,-2.2128,-2.2377,-2.2553,-2.2656,-2.2615,-2.2729,-2.2956,-2.314,-2.3252,-2.3652,-2.4559,-2.5196,-2.5901,-2.6704,-2.7532,-2.7826,-2.8178,-2.8386,-2.8528,-2.868,-2.8943,-2.922,-2.9748,-3.0707,-3.1992,-3.3211,-3.4295,-3.5699,-3.6826,-3.7652,-3.8113,-3.8419,-3.8626,-3.8819,-3.9024,-3.9305,-3.9469,-3.9631,-4.0114,-4.0446,-4.1337,-4.1351,-4.0617,-4.0374,-4.0703,-4.1587,-4.2731,-4.3524,-4.4495,-4.5157,-4.5807,-4.5807,-4.5807,-4.5807,-0.2875,-0.2963,-0.3409,-0.3853,-0.4478,-0.5808,-0.6697,-0.7143,-0.7584,-0.812,-0.8296,-0.812,-0.812,-0.848,-0.8572,-0.8828,-0.9262,-0.9349,-0.9694,-0.9951,-1.0038,-1.0038,-1.0038,-1.0038,-1.0038,-1.0038,-1.0038,-1.0038,-1.0038,-1.0038,-1.0467,-1.1149,-1.1322,-1.1746,-1.2681,-1.362,-1.4055,-1.4314,-1.4915,-1.5431,-1.5431,-1.5431,-1.5431,-1.5431,-1.5575,-1.565,-1.5816,-1.6378,-1.669,-1.7342,-1.8052,-1.9047,-1.9902,-2.0426,-2.0593,-2.1253,-2.1847,-2.2326,-2.2494,-2.2936,-2.3122,-2.2987,-2.308,-2.3194,-2.3132,-2.308,-2.2987,-2.3296,-2.4084,-2.4386,-2.4594,-2.5647,-2.6401,-2.6966,-2.7665,-2.8091,-2.8386,-2.8615,-2.8713,-2.8861,-2.8965,-2.9242,-2.9874,-3.0559,-3.1463,-3.2701,-3.4209,-3.5417,-3.6612,-3.7427,-3.8292,-3.8439,-3.8679,-3.8845,-3.9011,-3.9114,-3.9305,-3.9469,-3.9954,-4.0432,-4.0916,-4.1656,-4.1903,-4.1489,-4.142,-4.1532,-4.2489,-4.3789,-4.4266,-4.4752,-4.5321,-4.5807,-4.5807,-4.5807,-4.5807,-0.2875,-0.2963,-0.3676,-0.4121,-0.4565,-0.5897,-0.6609,-0.6786,-0.6786,-0.7231,-0.7852,-0.7496,-0.7584,-0.8208,-0.8564,-0.8911,-0.9262,-0.9349,-0.9602,-0.9951,-1.0038,-1.0038,-1.0038,-1.0038,-1.0038,-1.0038,-1.0038,-1.0038,-1.0038,-1.0038,-1.0381,-1.0809,-1.1154,-1.1574,-1.2425,-1.3457,-1.3886,-1.4398,-1.4922,-1.5347,-1.5431,-1.5431,-1.5431,-1.5431,-1.5665,-1.5824,-1.5899,-1.6788,-1.7498,-1.8262,-1.9208,-2.0385,-2.105,-2.1311,-2.176,-2.241,-2.2441,-2.2705,-2.3062,-2.3546,-2.366,-2.3443,-2.365,-2.3701,-2.367,-2.3391,-2.3381,-2.3731,-2.4462,-2.5392,-2.5733,-2.6671,-2.7423,-2.785,-2.8047,-2.8309,-2.8571,-2.8735,-2.8735,-2.8872,-2.8998,-2.9665,-3.0503,-3.1415,-3.2346,-3.4065,-3.5609,-3.6582,-3.7632,-3.8179,-3.8738,-3.8765,-3.8948,-3.9024,-3.9203,-3.9216,-3.9305,-3.9394,-4.0114,-4.093,-4.1337,-4.1821,-4.2149,-4.2636,-4.2666,-4.2921,-4.3897,-4.4526,-4.4843,-4.5157,-4.5573,-4.5807,-4.5807,-4.5807,-4.5807,-0.2875,-0.2875,-0.3053,-0.3499,-0.43,-0.4565,-0.5186,-0.5808,-0.5897,-0.5897,-0.634,-0.6786,-0.7051,-0.7584,-0.8472,-0.8999,-0.9262,-0.9432,-0.9689,-0.9951,-1.0038,-1.0038,-1.0038,-1.0038,-1.0038,-1.0038,-1.0038,-1.0038,-1.0038,-1.0038,-1.0125,-1.0381,-1.1068,-1.1494,-1.2174,-1.3457,-1.4055,-1.423,-1.4999,-1.5431,-1.5431,-1.5431,-1.5431,-1.5514,-1.5756,-1.6079,-1.6335,-1.7327,-1.8322,-1.957,-2.0344,-2.1479,-2.2585,-2.2929,-2.3166,-2.3392,-2.3401,-2.3093,-2.333,-2.3701,-2.3836,-2.3619,-2.3463,-2.3318,-2.3588,-2.393,-2.4179,-2.4714,-2.5314,-2.5998,-2.6625,-2.7252,-2.7757,-2.8065,-2.8407,-2.856,-2.885,-2.9046,-2.8954,-2.9513,-2.9881,-3.0582,-3.1413,-3.2309,-3.3396,-3.5277,-3.692,-3.7785,-3.8421,-3.8827,-3.9038,-3.9038,-3.9038,-3.9203,-3.9203,-3.9305,-3.9394,-3.9394,-4.0128,-4.1183,-4.1684,-4.2327,-4.3648,-4.4066,-4.3989,-4.3897,-4.445,-4.4843,-4.5173,-4.541,-4.5735,-4.5807,-4.5807,-4.5807,-4.5807,-0.2875,-0.2875,-0.2875,-0.3142,-0.3588,-0.4032,-0.4565,-0.4832,-0.4921,-0.5188,-0.5542,-0.5455,-0.6074,-0.7139,-0.8296,-0.8911,-0.9262,-0.9432,-0.9602,-0.9951,-1.0038,-1.0038,-1.0038,-1.0038,-1.0038,-1.0038,-1.0038,-1.0038,-1.0038,-1.0125,-1.0212,-1.0722,-1.1154,-1.2003,-1.2601,-1.3626,-1.4314,-1.4824,-1.5257,-1.5431,-1.5431,-1.5431,-1.5423,-1.5582,-1.5922,-1.6425,-1.7188,-1.8327,-1.9507,-2.0738,-2.1619,-2.2595,-2.3268,-2.3495,-2.366,-2.4188,-2.405,-2.3957,-2.4033,-2.4146,-2.4064,-2.4022,-2.395,-2.4126,-2.4291,-2.4669,-2.5068,-2.5627,-2.6335,-2.6943,-2.737,-2.7985,-2.8261,-2.8528,-2.8615,-2.8762,-2.8943,-2.9139,-2.9379,-3.0077,-3.0917,-3.1889,-3.2971,-3.4313,-3.5264,-3.6556,-3.7745,-3.8421,-3.8863,-3.9046,-3.9216,-3.9216,-3.9216,-3.9305,-3.9305,-3.9305,-3.9571,-3.9645,-3.9821,-4.0887,-4.1879,-4.2856,-4.3989,-4.4692,-4.451,-4.4586,-4.4902,-4.4843,-4.4858,-4.5336,-4.5807,-4.5807,-4.5807,-4.5807,-4.5807,-0.2828,-0.2831,-0.2861,-0.2875,-0.2964,-0.3676,-0.3944,-0.3942,-0.3942,-0.43,-0.4743,-0.4565,-0.5364,-0.6962,-0.794,-0.8644,-0.9262,-0.9345,-0.9607,-0.9864,-1.0038,-1.0038,-1.0038,-1.0038,-1.0038,-1.0038,-1.0038,-1.0207,-1.0381,-1.0467,-1.0722,-1.1322,-1.2003,-1.2687,-1.3711,-1.4398,-1.4831,-1.5264,-1.5347,-1.5431,-1.5431,-1.5431,-1.5499,-1.5763,-1.6299,-1.694,-1.7975,-1.958,-2.0852,-2.1621,-2.2676,-2.3485,-2.3939,-2.3959,-2.4041,-2.4341,-2.4382,-2.4382,-2.4426,-2.4478,-2.454,-2.4571,-2.4726,-2.4819,-2.5321,-2.5664,-2.6098,-2.66,-2.7158,-2.7618,-2.8071,-2.8468,-2.8626,-2.868,-2.8828,-2.8839,-2.9079,-2.9513,-3.0296,-3.1147,-3.2269,-3.3845,-3.5052,-3.6457,-3.7398,-3.8127,-3.8674,-3.9149,-3.9216,-3.9216,-3.9216,-3.9305,-3.9305,-3.9305,-3.9305,-3.9394,-3.9645,-3.9996,-4.017,-4.0674,-4.1742,-4.2776,-4.3881,-4.4343,-4.4662,-4.5067,-4.5247,-4.4933,-4.4632,-4.5262,-4.5807,-4.5807,-4.5807,-4.5807,-4.5864,-0.2704,-0.2714,-0.2826,-0.2869,-0.2871,-0.2964,-0.3051,-0.3142,-0.3053,-0.3142,-0.3499,-0.4034,-0.5275,-0.6697,-0.7404,-0.8201,-0.9257,-0.9515,-0.9689,-0.9951,-1.0038,-1.0038,-1.0038,-1.0038,-1.0038,-1.0038,-1.012,-1.0554,-1.1068,-1.1413,-1.1322,-1.1494,-1.2772,-1.3626,-1.4307,-1.4824,-1.509,-1.5431,-1.5431,-1.5431,-1.5431,-1.5438,-1.5597,-1.6073,-1.7092,-1.8029,-1.8479,-2.0485,-2.1904,-2.2448,-2.3317,-2.395,-2.4291,-2.4289,-2.4372,-2.4423,-2.4643,-2.4654,-2.4664,-2.4654,-2.4592,-2.4685,-2.4943,-2.5467,-2.6072,-2.6214,-2.6716,-2.735,-2.7758,-2.8104,-2.8435,-2.8735,-2.885,-2.8976,-2.9112,-2.9398,-2.9717,-3.0278,-3.1066,-3.2198,-3.3533,-3.5064,-3.6302,-3.7595,-3.81,-3.8714,-3.8843,-3.9216,-3.9216,-3.9305,-3.9305,-3.9305,-3.9305,-3.9305,-3.9394,-3.9571,-3.9922,-4.0416,-4.0845,-4.11,-4.1702,-4.271,-4.3726,-4.4266,-4.4677,-4.5157,-4.5573,-4.5336,-4.5262,-4.5573,-4.5807,-4.5807,-4.588,-4.5864,-4.5992,-0.2694,-0.2698,-0.2744,-0.2783,-0.2819,-0.2819,-0.2839,-0.2871,-0.2875,-0.2875,-0.2964,-0.3853,-0.4654,-0.5542,-0.6871,-0.7665,-0.8456,-0.9165,-0.9602,-0.9864,-1.0038,-1.0038,-1.0038,-1.0038,-1.0038,-1.012,-1.0467,-1.0895,-1.1235,-1.2266,-1.2948,-1.3372,-1.388,-1.4398,-1.4915,-1.5173,-1.5347,-1.5431,-1.5431,-1.5431,-1.5431,-1.5529,-1.5921,-1.7207,-1.743,-1.9024,-2.043,-2.1575,-2.2611,-2.3355,-2.3957,-2.4258,-2.4509,-2.455,-2.4592,-2.4633,-2.4799,-2.4954,-2.4974,-2.4985,-2.5068,-2.5357,-2.5753,-2.6114,-2.6725,-2.696,-2.7479,-2.7931,-2.8267,-2.8479,-2.8669,-2.8839,-2.8861,-2.9194,-2.9502,-2.9833,-3.0569,-3.1169,-3.23,-3.3601,-3.4886,-3.6237,-3.7415,-3.8492,-3.8841,-3.9162,-3.9203,-3.9305,-3.9305,-3.9305,-3.9305,-3.9394,-3.9394,-3.9571,-3.9659,-3.9922,-4.027,-4.0773,-4.1437,-4.1771,-4.2117,-4.2496,-4.3442,-4.3989,-4.4677,-4.5173,-4.5573,-4.5735,-4.5807,-4.5807,-4.5807,-4.5807,-4.588,-4.5992,-4.6175,-0.2638,-0.2638,-0.2638,-0.2695,-0.2778,-0.2783,-0.2818,-0.2868,-0.2875,-0.2875,-0.2964,-0.3587,-0.43,-0.501,-0.5985,-0.7489,-0.8281,-0.9078,-0.9515,-0.9864,-1.0038,-1.0038,-1.0038,-1.0038,-1.0212,-1.0467,-1.0982,-1.1408,-1.2345,-1.3542,-1.4055,-1.4307,-1.4482,-1.4915,-1.5173,-1.5431,-1.5431,-1.5431,-1.5431,-1.559,-1.5748,-1.6111,-1.6778,-1.833,-1.9112,-2.0225,-2.1726,-2.275,-2.3422,-2.3924,-2.4258,-2.4413,-2.4592,-2.4654,-2.464,-2.4892,-2.5119,-2.5399,-2.543,-2.5461,-2.5627,-2.6139,-2.6344,-2.682,-2.7299,-2.7714,-2.8071,-2.844,-2.8642,-2.8861,-2.8861,-2.885,-2.919,-2.958,-2.9851,-3.0311,-3.1716,-3.2628,-3.3905,-3.524,-3.6352,-3.73,-3.805,-3.897,-3.9073,-3.9292,-3.9292,-3.9305,-3.9305,-3.9305,-3.9305,-3.9394,-3.9469,-3.9645,-3.9908,-4.0343,-4.0787,-4.1114,-4.1688,-4.2266,-4.2673,-4.3061,-4.3521,-4.4282,-4.4918,-4.5321,-4.5573,-4.5735,-4.5807,-4.5807,-4.588,-4.5992,-4.6136,-4.6262,-4.6528,-0.2519,-0.2515,-0.2519,-0.262,-0.2764,-0.2781,-0.2816,-0.2871,-0.2875,-0.2875,-0.2875,-0.3053,-0.3942,-0.5186,-0.5808,-0.7044,-0.8548,-0.917,-0.9602,-0.9864,-1.0038,-1.0038,-1.0038,-1.0038,-1.0294,-1.1063,-1.158,-1.2345,-1.3626,-1.4146,-1.4657,-1.4999,-1.5173,-1.5264,-1.5431,-1.5431,-1.5431,-1.5431,-1.5431,-1.5831,-1.6578,-1.71,-1.7987,-1.9507,-2.0726,-2.1815,-2.2755,-2.3639,-2.4193,-2.4351,-2.4467,-2.4581,-2.4674,-2.4974,-2.513,-2.5244,-2.5637,-2.5854,-2.5885,-2.5875,-2.6337,-2.6854,-2.7041,-2.7405,-2.8046,-2.8351,-2.838,-2.8664,-2.8757,-2.8872,-2.8872,-2.8916,-2.9542,-3.0206,-3.0597,-3.1423,-3.2864,-3.3914,-3.5133,-3.6246,-3.7404,-3.8355,-3.8805,-3.9305,-3.9292,-3.9292,-3.9292,-3.9305,-3.9394,-3.9571,-3.9659,-3.9747,-3.9908,-4.0083,-4.0443,-4.0958,-4.1381,-4.1633,-4.2034,-4.2526,-4.314,-4.36,-4.4128,-4.4737,-4.5157,-4.5573,-4.5662,-4.5807,-4.588,-4.5936,-4.612,-4.623,-4.6372,-4.6582,-4.686,-0.251,-0.251,-0.251,-0.257,-0.2662,-0.2707,-0.2779,-0.2864,-0.2875,-0.2875,-0.2875,-0.2875,-0.3497,-0.4654,-0.5719,-0.6864,-0.8189,-0.934,-0.9689,-0.9951,-1.0038,-1.0038,-1.0038,-1.0033,-1.0207,-1.0717,-1.1488,-1.2425,-1.3021,-1.4223,-1.4999,-1.5347,-1.5431,-1.5431,-1.5431,-1.5431,-1.5431,-1.5431,-1.5529,-1.5921,-1.7024,-1.7679,-1.8785,-2.0857,-2.1986,-2.2853,-2.3614,-2.4307,-2.4464,-2.4592,-2.4612,-2.4726,-2.4933,-2.5275,-2.5409,-2.5668,-2.6082,-2.6578,-2.6858,-2.7097,-2.7128,-2.7441,-2.767,-2.8014,-2.8395,-2.8581,-2.8664,-2.8779,-2.8916,-2.9118,-2.962,-2.9791,-3.0413,-3.1621,-3.2277,-3.3113,-3.425,-3.5018,-3.6013,-3.7049,-3.8187,-3.8652,-3.9114,-3.9482,-3.9557,-3.9733,-3.9821,-3.9834,-3.9834,-4.0184,-4.0357,-4.0343,-4.043,-4.0702,-4.0972,-4.1311,-4.1578,-4.1829,-4.2146,-4.2622,-4.3235,-4.3989,-4.4617,-4.5157,-4.5484,-4.5807,-4.5807,-4.588,-4.5992,-4.612,-4.6468,-4.6631,-4.6722,-4.6929,-4.7202,-0.251,-0.251,-0.251,-0.2546,-0.2606,-0.2666,-0.2762,-0.2861,-0.2875,-0.2875,-0.2875,-0.2875,-0.3676,-0.4741,-0.5714,-0.7041,-0.8277,-0.9161,-0.9777,-0.9951,-1.0038,-1.0038,-1.0038,-1.012,-1.0544,-1.0971,-1.1997,-1.293,-1.3873,-1.4824,-1.534,-1.5431,-1.5431,-1.5431,-1.5431,-1.5431,-1.5431,-1.5467,-1.5617,-1.6438,-1.7652,-1.8735,-1.9947,-2.1797,-2.2978,-2.3529,-2.419,-2.4571,-2.4633,-2.4705,-2.484,-2.4995,-2.5326,-2.5637,-2.5802,-2.6165,-2.664,-2.7108,-2.7411,-2.7652,-2.7714,-2.7861,-2.8207,-2.8395,-2.8488,-2.8664,-2.891,-2.9058,-2.9173,-2.9753,-3.037,-3.0544,-3.1373,-3.2594,-3.3232,-3.3982,-3.5431,-3.6207,-3.6832,-3.79,-3.8562,-3.9011,-3.9367,-3.9557,-3.9733,-4.0083,-4.0357,-4.0357,-4.027,-4.0616,-4.0873,-4.0873,-4.0873,-4.1043,-4.1227,-4.1578,-4.1843,-4.2107,-4.2407,-4.2784,-4.3457,-4.422,-4.4858,-4.5499,-4.5662,-4.5807,-4.588,-4.5952,-4.6184,-4.6564,-4.7061,-4.7103,-4.7062,-4.7466,-4.7916,-0.251,-0.251,-0.251,-0.2546,-0.2606,-0.2673,-0.2768,-0.2872,-0.2875,-0.2875,-0.2875,-0.2875,-0.3855,-0.5453,-0.598,-0.7217,-0.8899,-0.9515,-0.9777,-0.9951,-1.0038,-1.0038,-1.0125,-1.0294,-1.1063,-1.2083,-1.2936,-1.362,-1.5082,-1.534,-1.5347,-1.5431,-1.5431,-1.5431,-1.5431,-1.5656,-1.5755,-1.592,-1.6117,-1.7315,-1.892,-2.0027,-2.1352,-2.2893,-2.3825,-2.4159,-2.4571,-2.4633,-2.485,-2.5037,-2.5233,-2.5513,-2.5865,-2.631,-2.6475,-2.6703,-2.7118,-2.7348,-2.761,-2.7893,-2.8188,-2.843,-2.8502,-2.8636,-2.8751,-2.8932,-2.9139,-2.9558,-2.9891,-3.0488,-3.0971,-3.1597,-3.2236,-3.2934,-3.3372,-3.47,-3.6332,-3.7268,-3.7808,-3.8472,-3.9024,-3.9482,-3.9908,-4.0097,-4.017,-4.053,-4.0887,-4.0958,-4.0958,-4.0958,-4.1128,-4.1128,-4.1213,-4.1396,-4.1578,-4.1843,-4.1926,-4.2092,-4.2622,-4.3076,-4.3756,-4.4373,-4.5008,-4.5484,-4.5735,-4.588,-4.6008,-4.6271,-4.6651,-4.7093,-4.7728,-4.7887,-4.7994,-4.8575,-4.9009,-0.251,-0.251,-0.251,-0.2545,-0.2612,-0.2711,-0.2803,-0.2869,-0.2875,-0.2875,-0.2875,-0.2875,-0.4034,-0.563,-0.6157,-0.757,-0.8807,-0.9694,-0.9868,-0.9951,-1.0038,-1.0381,-1.0727,-1.0982,-1.1746,-1.2595,-1.3366,-1.3964,-1.4482,-1.4999,-1.5431,-1.5431,-1.5431,-1.5431,-1.5769,-1.6301,-1.6622,-1.6891,-1.7016,-1.8439,-2.0117,-2.1219,-2.2551,-2.3589,-2.4245,-2.4475,-2.4633,-2.4871,-2.5109,-2.5254,-2.5554,-2.5896,-2.6351,-2.6517,-2.6641,-2.7128,-2.7379,-2.7631,-2.7904,-2.8113,-2.8545,-2.9015,-2.9186,-2.9186,-2.9281,-2.9441,-2.9617,-3.0083,-3.0667,-3.1321,-3.2013,-3.2595,-3.3253,-3.3778,-3.4149,-3.5123,-3.6615,-3.7348,-3.7991,-3.91,-3.9659,-4.0009,-4.0357,-4.053,-4.0688,-4.1057,-4.1311,-4.148,-4.148,-4.148,-4.148,-4.148,-4.1564,-4.1745,-4.1829,-4.2009,-4.2009,-4.216,-4.2607,-4.314,-4.3756,-4.4373,-4.5008,-4.5468,-4.5703,-4.5992,-4.6175,-4.6619,-4.7238,-4.7956,-4.8646,-4.8754,-4.8975,-4.9523,-4.9889,-0.251,-0.251,-0.251,-0.2559,-0.2646,-0.2743,-0.2819,-0.2868,-0.2875,-0.2875,-0.2963,-0.332,-0.4389,-0.5805,-0.6684,-0.783,-0.934,-0.9777,-1.0038,-1.0038,-1.0033,-1.0554,-1.0982,-1.1494,-1.218,-1.3027,-1.3795,-1.4307,-1.4657,-1.4999,-1.5431,-1.5431,-1.5431,-1.5762,-1.6293,-1.7051,-1.7968,-1.8472,-1.8999,-1.9883,-2.101,-2.2102,-2.3083,-2.4029,-2.4454,-2.4547,-2.4809,-2.515,-2.5368,-2.5678,-2.6082,-2.6361,-2.6744,-2.6868,-2.6993,-2.74,-2.7526,-2.7968,-2.8369,-2.8612,-2.9061,-2.9524,-2.9784,-3.0,-3.0204,-3.0345,-3.0544,-3.0852,-3.1547,-3.2298,-3.2913,-3.3605,-3.4183,-3.4678,-3.5066,-3.5463,-3.6307,-3.7137,-3.8328,-3.953,-4.017,-4.0516,-4.0773,-4.0873,-4.1128,-4.1494,-4.1745,-4.1745,-4.1829,-4.1829,-4.1829,-4.1829,-4.1912,-4.2009,-4.2092,-4.2092,-4.2242,-4.2242,-4.231,-4.2915,-4.3615,-4.4066,-4.4465,-4.5067,-4.5744,-4.6128,-4.6676,-4.7384,-4.8021,-4.8789,-4.9575,-4.9964,-5.0083,-5.0317,-5.0601,-0.251,-0.2512,-0.252,-0.2598,-0.27,-0.2768,-0.2826,-0.2872,-0.2875,-0.2875,-0.3053,-0.3855,-0.4919,-0.6068,-0.7126,-0.836,-0.9336,-0.9864,-1.0038,-1.0033,-1.0294,-1.0809,-1.1408,-1.1666,-1.2863,-1.3795,-1.4314,-1.4741,-1.5173,-1.5431,-1.5431,-1.5514,-1.5664,-1.6263,-1.7295,-1.806,-1.9127,-2.0247,-2.0685,-2.1213,-2.1911,-2.2688,-2.328,-2.4282,-2.4557,-2.4778,-2.5119,-2.543,-2.572,-2.6279,-2.6672,-2.6848,-2.7044,-2.7284,-2.741,-2.7683,-2.7841,-2.8232,-2.8764,-2.9084,-2.9612,-2.9981,-3.0275,-3.0789,-3.1062,-3.1016,-3.1138,-3.1735,-3.2471,-3.2955,-3.3613,-3.4389,-3.5017,-3.5283,-3.5559,-3.632,-3.7243,-3.8147,-3.9237,-4.0257,-4.0702,-4.0958,-4.1311,-4.148,-4.148,-4.1926,-4.2009,-4.2009,-4.2092,-4.2092,-4.2092,-4.2092,-4.2092,-4.2092,-4.2092,-4.216,-4.2392,-4.2377,-4.2377,-4.285,-4.3693,-4.3834,-4.3756,-4.4874,-4.6104,-4.6742,-4.7355,-4.8194,-4.9066,-4.9702,-5.0492,-5.1111,-5.1347,-5.128,-5.133,-0.251,-0.2519,-0.2609,-0.2695,-0.2764,-0.2826,-0.2858,-0.2875,-0.2875,-0.2964,-0.3142,-0.4028,-0.5181,-0.6331,-0.7654,-0.8803,-0.9515,-0.9864,-0.9951,-1.0294,-1.0636,-1.1402,-1.2339,-1.2857,-1.388,-1.4741,-1.5173,-1.5082,-1.5347,-1.5506,-1.5756,-1.635,-1.6573,-1.7311,-1.8431,-1.9271,-2.0594,-2.1691,-2.2323,-2.2611,-2.3122,-2.3614,-2.411,-2.4578,-2.4722,-2.5078,-2.5461,-2.5927,-2.6206,-2.6579,-2.6941,-2.7127,-2.7241,-2.7441,-2.7536,-2.7694,-2.8254,-2.8785,-2.9257,-2.9721,-3.0166,-3.046,-3.0899,-3.1451,-3.1706,-3.1582,-3.1912,-3.2757,-3.336,-3.3737,-3.4178,-3.4981,-3.5679,-3.5858,-3.6131,-3.715,-3.8264,-3.9251,-4.0243,-4.0773,-4.1142,-4.1494,-4.176,-4.1926,-4.2009,-4.2009,-4.2092,-4.2092,-4.2092,-4.2092,-4.2092,-4.2092,-4.2092,-4.2092,-4.2092,-4.216,-4.231,-4.2541,-4.2622,-4.3155,-4.3849,-4.4312,-4.4692,-4.5683,-4.6614,-4.7419,-4.8388,-4.9436,-5.0194,-5.0735,-5.1173,-5.1744,-5.1926,-5.1926,-5.2026,-0.251,-0.2526,-0.2642,-0.2728,-0.2788,-0.2849,-0.2875,-0.2875,-0.2875,-0.323,-0.3764,-0.4825,-0.5888,-0.7037,-0.8269,-0.9065,-0.9689,-0.9864,-1.0294,-1.0727,-1.1241,-1.2089,-1.3027,-1.388,-1.4482,-1.5173,-1.5347,-1.5347,-1.5514,-1.5529,-1.5869,-1.6913,-1.7411,-1.8237,-1.9583,-2.0888,-2.1815,-2.2438,-2.3481,-2.3917,-2.4024,-2.4196,-2.4522,-2.4774,-2.5078,-2.5388,-2.5896,-2.6361,-2.6589,-2.6827,-2.7127,-2.721,-2.7357,-2.7441,-2.7757,-2.8137,-2.87,-2.9289,-2.9829,-3.0275,-3.0723,-3.1018,-3.1214,-3.1737,-3.2553,-3.246,-3.2757,-3.3453,-3.3946,-3.4409,-3.469,-3.5295,-3.5679,-3.5966,-3.6602,-3.752,-3.8792,-4.0055,-4.0859,-4.148,-4.1745,-4.176,-4.2009,-4.2009,-4.2092,-4.2092,-4.2092,-4.2092,-4.2092,-4.2092,-4.2092,-4.2092,-4.2092,-4.2092,-4.2092,-4.216,-4.2325,-4.2555,-4.2769,-4.3442,-4.4128,-4.4993,-4.5735,-4.6574,-4.7419,-4.8378,-4.9344,-5.0326,-5.1098,-5.1624,-5.1976,-5.2291,-5.2373,-5.2373,-5.234,-0.252,-0.2549,-0.2649,-0.2733,-0.2797,-0.285,-0.2875,-0.2964,-0.3053,-0.3853,-0.4914,-0.5977,-0.7126,-0.8181,-0.9244,-0.9685,-1.0038,-1.0294,-1.0727,-1.1154,-1.1666,-1.2687,-1.3542,-1.4314,-1.4908,-1.5173,-1.5347,-1.559,-1.5748,-1.5914,-1.6484,-1.7443,-1.8355,-1.911,-2.0811,-2.1806,-2.2486,-2.3229,-2.3937,-2.412,-2.4292,-2.4389,-2.4722,-2.5047,-2.5357,-2.5771,-2.6299,-2.6703,-2.691,-2.7055,-2.7326,-2.7336,-2.7525,-2.7757,-2.8169,-2.8689,-2.9257,-2.997,-3.0504,-3.0887,-3.1203,-3.1465,-3.1586,-3.2128,-3.2935,-3.3335,-3.3534,-3.4028,-3.4628,-3.492,-3.5211,-3.5584,-3.5966,-3.6615,-3.7348,-3.8147,-3.9502,-4.0773,-4.1381,-4.2092,-4.2092,-4.2107,-4.2092,-4.2092,-4.2092,-4.2092,-4.2092,-4.2092,-4.2092,-4.2092,-4.2092,-4.2092,-4.2092,-4.2092,-4.2092,-4.2175,-4.2242,-4.2688,-4.3061,-4.3726,-4.4526,-4.5714,-4.667,-4.7221,-4.8171,-4.9295,-5.0167,-5.1069,-5.174,-5.2191,-5.2274,-5.2373,-5.2373,-5.2373,-5.2373,-0.2568,-0.2659,-0.2684,-0.2755,-0.2849,-0.2869,-0.2875,-0.3053,-0.3941,-0.4914,-0.6062,-0.721,-0.8093,-0.8269,-0.9419,-0.9951,-1.0125,-1.0554,-1.0982,-1.1322,-1.2607,-1.3542,-1.4146,-1.4741,-1.5173,-1.5431,-1.559,-1.5831,-1.6358,-1.6802,-1.7813,-1.9177,-2.0386,-2.1248,-2.2186,-2.3001,-2.3431,-2.3937,-2.412,-2.4303,-2.442,-2.4578,-2.4743,-2.5161,-2.5585,-2.6041,-2.6506,-2.6931,-2.7127,-2.7241,-2.7378,-2.7462,-2.7693,-2.8158,-2.8615,-2.9182,-2.9851,-3.046,-3.0963,-3.1236,-3.1509,-3.1655,-3.1924,-3.2432,-3.3135,-3.3645,-3.4028,-3.4519,-3.5017,-3.5295,-3.5584,-3.6414,-3.6989,-3.7991,-3.8819,-3.9692,-4.0859,-4.1381,-4.1912,-4.2092,-4.2092,-4.2092,-4.2092,-4.2092,-4.2092,-4.2092,-4.2092,-4.2092,-4.2092,-4.2092,-4.2092,-4.2092,-4.2092,-4.2092,-4.2092,-4.2092,-4.2242,-4.2754,-4.3521,-4.448,-4.5583,-4.6781,-4.769,-4.8404,-4.9268,-5.0342,-5.1185,-5.1673,-5.1993,-5.2307,-5.2324,-5.2373,-5.2373,-5.2373,-5.2373]},{"header":{"parameterUnit":"m.s-1","parameterCategory":1,"la1":31.0,"la2":29.5877,"lo1":-88.7671,"lo2":-86.6584,"dx":0.0162,"dy":0.0185,"nx":115,"ny":88,"refTime":"2023-02-06T18:00:00:Z","depth":0,"parameterNumber":3,"parameterNumberName":"V-component_of_WINDS"},"data":[0.0,0.0,0.0,0.0,0.0,0.0,0.0,0.0,0.0,0.0,0.0,0.0,0.0,0.0,0.0,0.0,0.0,0.0,0.0,0.0,0.0,0.0,0.0,0.0,0.0,0.0,0.0,0.0,0.0,0.0,0.0,0.0,0.0,0.0,0.0,0.0,0.0,0.0,0.0,0.0,0.0,0.0,0.0,0.0,0.0,0.0,0.0,0.0,0.0,0.0,0.0,0.0,0.0,0.0,0.0,0.0,0.0,0.0,0.0,0.0,0.0,0.0,0.0,0.0,0.0,0.0,0.0,0.0,0.0,0.0,0.0,0.0,0.0,0.0,0.0,0.0,0.0,0.0,0.0,0.0,0.0,0.0,0.0,0.0,0.0,0.0,0.0,0.0,0.0,0.0,0.0,0.0,0.0,0.0,0.0,0.0,0.0,0.0,0.0,0.0,0.0,0.0,0.0,0.0,0.0,0.0,0.0,0.0,0.0,0.0,0.0,0.0,0.0,0.0,0.0,0.0,0.0,0.0,0.0,0.0,0.0,0.0,0.0,0.0,0.0,0.0,0.0,0.0,0.0,0.0,0.0,0.0,0.0,0.0,0.0,0.0,0.0,0.0,0.0,0.0,0.0,0.0,0.0,0.0,0.0,0.0,0.0,0.0,0.0,0.0,0.0,0.0,0.0,0.0,0.0,0.0,0.0,0.0,0.0,0.0,0.0,0.0,0.0,0.0,0.0,0.0,0.0,0.0,0.0,0.0,0.0,0.0,0.0,0.0,0.0,0.0,0.0,0.0,0.0,0.0,0.0,0.0,0.0,0.0,0.0,0.0,0.0,0.0,0.0,0.0,0.0,0.0,0.0,0.0,0.0,0.0,0.0,0.0,0.0,0.0,0.0,0.0,0.0,0.0,0.0,0.0,0.0,0.0,0.0,0.0,0.0,0.0,0.0,0.0,0.0,0.0,0.0,0.0,0.0,0.0,0.0,0.0,0.0,0.0,0.0,0.0,0.0,0.0,0.0,0.0,0.0,0.0,0.0,0.0,0.0,0.0,0.0,0.0,0.0,0.0,0.0,0.0,0.0,0.0,0.0,0.0,0.0,0.0,0.0,0.0,0.0,0.0,0.0,0.0,0.0,0.0,0.0,0.0,0.0,0.0,0.0,0.0,0.0,0.0,0.0,0.0,0.0,0.0,0.0,0.0,0.0,0.0,0.0,0.0,0.0,0.0,0.0,0.0,0.0,0.0,0.0,0.0,0.0,0.0,0.0,0.0,0.0,0.0,0.0,0.0,0.0,0.0,0.0,0.0,0.0,0.0,0.0,0.0,0.0,0.0,0.0,0.0,0.0,0.0,0.0,0.0,0.0,0.0,0.0,0.0,0.0,0.0,0.0,0.0,0.0,0.0,0.0,0.0,0.0,0.0,0.0,0.0,0.0,0.0,0.0,0.0,0.0,0.0,0.0,0.0,0.0,0.0,0.0,0.0,0.0,0.0,0.0,0.0,0.0,0.0,0.0,0.0,0.0,0.0,0.0,0.0,0.0,0.0,0.0,0.0,0.0,0.0,0.0,0.0,0.0,0.0,0.0,0.0,0.0,0.0,0.0,0.0,0.0,0.0,0.0,0.0,0.0,0.0,0.0,0.0,0.0,0.0,0.0,0.0,0.0,0.0,0.0,0.0,0.0,0.0,0.0,0.0,0.0,0.0,0.0,0.0,0.0,0.0,0.0,0.0,0.0,0.0,0.0,0.0,0.0,0.0,0.0,0.0,0.0,0.0,0.0,0.0,0.0,0.0,0.0,0.0,0.0,0.0,0.0,0.0,0.0,0.0,0.0,0.0,0.0,0.0,0.0,0.0,0.0,0.0,0.0,0.0,0.0,0.0,0.0,0.0,0.0,0.0,0.0,0.0,0.0,0.0,0.0,0.0,0.0,0.0,0.0,0.0,0.0,0.0,0.0,0.0,0.0,0.0,0.0,0.0,0.0,0.0,0.0,0.0,0.0,0.0,0.0,0.0,0.0,0.0,0.0,0.0,0.0,0.0,0.0,0.0,0.0,0.0,0.0,0.0,0.0,0.0,0.0,0.0,0.0,0.0,0.0,0.0,0.0,0.0,0.0,0.0,0.0,0.0,0.0,0.0,0.0,0.0,0.0,0.0,0.0,0.0,0.0,0.0,0.0,0.0,0.0,0.0,0.0,0.0,0.0,0.0,0.0,0.0,0.0,0.0,0.0,0.0,0.0,0.0,0.0,0.0,0.0,0.0,0.0,0.0,0.0,0.0,0.0,0.0,0.0,0.0,0.0,0.0,0.0,0.0,0.0,0.0,0.0,0.0,0.0,0.0,0.0,0.0,0.0,0.0,0.0,0.0,0.0,0.0,0.0,0.0,0.0,0.0,0.0,0.0,0.0,0.0,0.0,0.0,0.0,0.0,0.0,0.0,0.0,0.0,0.0,0.0,0.0,0.0,0.0,0.0,0.0,0.0,0.0,0.0,0.0,0.0,0.0,0.0,0.0,0.0,0.0,0.0,0.0,0.0,0.0,0.0,0.0,0.0,0.0,0.0,0.0,0.0,0.0,0.0,0.0,0.0,0.0,0.0,0.0,0.0,0.0,0.0,0.0,0.0,0.0,0.0,0.0,0.0,0.0,0.0,0.0,0.0,0.0,0.0,0.0,0.0,0.0,0.0,0.0,0.0,0.0,0.0,0.0,0.0,0.0,0.0,0.0,0.0,0.0,0.0,0.0,0.0,0.0,0.0,0.0,0.0,0.0,0.0,0.0,0.0,0.0,0.0,0.0,0.0,0.0,0.0,0.0,0.0,0.0,0.0,0.0,0.0,0.0,0.0,0.0,0.0,0.0,0.0,0.0,0.0,0.0,0.0,0.0,0.0,0.0,0.0,0.0,0.0,0.0,0.0,0.0,0.0,0.0,0.0,0.0,0.0,0.0,0.0,0.0,0.0,0.0,0.0,0.0,0.0,0.0,0.0,0.0,0.0,0.0,0.0,0.0,0.0,0.0,0.0,0.0,0.0,0.0,0.0,0.0,0.0,0.0,0.0,0.0,0.0,0.0,0.0,0.0,0.0,0.0,0.0,0.0,0.0,0.0,0.0,0.0,0.0,0.0,0.0,0.0,0.0,0.0,0.0,0.0,0.0,0.0,0.0,0.0,0.0,0.0,0.0,0.0,0.0,0.0,0.0,0.0,0.0,0.0,0.0,0.0,0.0,0.0,0.0,0.0,0.0,0.0,0.0,0.0,0.0,0.0,0.0,0.0,0.0,0.0,0.0,0.0,0.0,0.0,0.0,0.0,0.0,0.0,0.0,0.0,0.0,0.0,0.0,0.0,0.0,0.0,0.0,0.0,0.0,0.0,0.0,0.0,0.0,0.0,0.0,0.0,0.0,0.0,0.0,0.0,0.0,0.0,0.0,0.0,0.0,0.0,0.0,0.0,0.0,0.0,0.0,0.0,0.0,0.0,0.0,0.0,0.0,0.0,0.0,0.0,0.0,0.0,0.0,0.0,0.0,0.0,0.0,0.0,0.0,0.0,0.0,0.0,0.0,0.0,0.0,0.0,0.0,0.0,0.0,0.0,0.0,0.0,0.0,0.0,0.0,0.0,0.0,0.0,0.0,0.0,0.0,0.0,0.0,0.0,0.0,0.0,0.0,0.0,0.0,0.0,0.0,0.0,0.0,0.0,0.0,0.0,0.0,0.0,0.0,0.0,0.0,0.0,0.0,0.0,0.0,0.0,0.0,0.0,0.0,0.0,0.0,0.0,0.0,0.0,0.0,0.0,0.0,0.0,0.0,0.0,0.0,0.0,0.0,0.0,0.0,0.0,0.0,0.0,0.0,0.0,0.0,0.0,0.0,0.0,0.0,0.0,0.0,0.0,0.0,0.0,0.0,0.0,0.0,0.0,0.0,0.0,0.0,0.0,0.0,0.0,0.0,0.0,0.0,0.0,0.0,0.0,0.0,0.0,0.0,0.0,0.0,0.0,0.0,0.0,0.0,0.0,0.0,0.0,0.0,0.0,0.0,0.0,0.0,0.0,0.0,0.0,0.0,0.0,0.0,0.0,0.0,0.0,0.0,0.0,0.0,0.0,0.0,0.0,0.0,0.0,0.0,0.0,0.0,0.0,0.0,0.0,0.0,0.0,0.0,0.0,0.0,0.0,0.0,0.0,0.0,0.0,0.0,0.0,0.0,0.0,0.0,0.0,0.0,0.0,0.0,0.0,0.0,0.0,0.0,0.0,0.0,0.0,0.0,0.0,0.0,-2.2977,0.0,0.0,0.0,0.0,0.0,0.0,0.0,0.0,0.0,0.0,0.0,0.0,0.0,0.0,0.0,0.0,0.0,0.0,0.0,0.0,0.0,0.0,0.0,0.0,0.0,0.0,0.0,0.0,0.0,0.0,0.0,0.0,0.0,0.0,0.0,0.0,0.0,0.0,0.0,0.0,0.0,0.0,0.0,0.0,0.0,0.0,0.0,0.0,0.0,0.0,0.0,0.0,0.0,0.0,0.0,0.0,0.0,0.0,0.0,0.0,0.0,0.0,0.0,0.0,0.0,0.0,0.0,0.0,0.0,0.0,0.0,0.0,0.0,0.0,0.0,0.0,0.0,0.0,0.0,0.0,0.0,0.0,0.0,0.0,0.0,0.0,0.0,0.0,0.0,0.0,0.0,0.0,0.0,0.0,0.0,0.0,0.0,0.0,0.0,0.0,0.0,0.0,0.0,0.0,0.0,0.0,0.0,0.0,0.0,0.0,-2.3899,-2.3482,-2.3414,-2.3224,-2.2919,0.0,0.0,0.0,0.0,0.0,0.0,0.0,0.0,0.0,0.0,0.0,0.0,0.0,0.0,0.0,0.0,0.0,0.0,0.0,0.0,0.0,0.0,0.0,0.0,0.0,0.0,0.0,0.0,0.0,0.0,0.0,0.0,0.0,0.0,0.0,0.0,0.0,0.0,0.0,0.0,0.0,0.0,0.0,0.0,0.0,0.0,0.0,0.0,0.0,0.0,0.0,0.0,0.0,0.0,0.0,0.0,0.0,0.0,0.0,0.0,0.0,0.0,0.0,0.0,0.0,0.0,0.0,0.0,0.0,0.0,0.0,0.0,0.0,0.0,0.0,0.0,0.0,0.0,0.0,0.0,0.0,0.0,0.0,0.0,0.0,0.0,0.0,0.0,0.0,0.0,0.0,0.0,0.0,0.0,0.0,0.0,0.0,0.0,0.0,0.0,0.0,0.0,0.0,0.0,0.0,0.0,0.0,0.0,0.0,0.0,0.0,0.0,-2.3271,-2.3098,-2.285,0.0,0.0,0.0,0.0,0.0,0.0,0.0,0.0,0.0,0.0,0.0,0.0,0.0,0.0,0.0,0.0,0.0,0.0,0.0,0.0,0.0,0.0,0.0,0.0,0.0,0.0,0.0,0.0,0.0,0.0,0.0,0.0,0.0,0.0,0.0,0.0,0.0,0.0,0.0,0.0,0.0,0.0,0.0,0.0,0.0,0.0,0.0,0.0,0.0,0.0,0.0,0.0,0.0,0.0,0.0,0.0,0.0,0.0,0.0,0.0,0.0,0.0,0.0,0.0,0.0,0.0,0.0,0.0,0.0,0.0,0.0,0.0,0.0,0.0,0.0,0.0,0.0,0.0,0.0,0.0,0.0,0.0,0.0,0.0,0.0,0.0,0.0,0.0,0.0,0.0,0.0,0.0,0.0,0.0,0.0,0.0,0.0,0.0,0.0,0.0,0.0,0.0,0.0,0.0,0.0,0.0,0.0,0.0,0.0,0.0,-2.3714,-2.35,-2.314,0.0,-2.2755,0.0,0.0,0.0,0.0,0.0,0.0,0.0,0.0,0.0,0.0,0.0,0.0,0.0,0.0,0.0,0.0,0.0,0.0,0.0,0.0,0.0,0.0,0.0,0.0,0.0,0.0,0.0,0.0,0.0,0.0,0.0,0.0,0.0,0.0,0.0,0.0,0.0,0.0,0.0,0.0,0.0,0.0,0.0,0.0,0.0,0.0,0.0,0.0,0.0,0.0,0.0,0.0,0.0,0.0,0.0,0.0,0.0,0.0,0.0,0.0,0.0,0.0,0.0,0.0,0.0,0.0,0.0,0.0,0.0,0.0,0.0,0.0,0.0,0.0,0.0,0.0,0.0,0.0,0.0,0.0,0.0,0.0,0.0,0.0,0.0,0.0,0.0,0.0,0.0,0.0,0.0,0.0,0.0,0.0,0.0,0.0,0.0,0.0,0.0,0.0,0.0,0.0,0.0,0.0,0.0,0.0,0.0,0.0,0.0,0.0,-2.3387,-2.3025,-2.2859,-2.2712,0.0,0.0,0.0,0.0,0.0,0.0,0.0,0.0,0.0,0.0,0.0,0.0,0.0,0.0,0.0,0.0,0.0,0.0,0.0,0.0,0.0,0.0,0.0,0.0,0.0,0.0,0.0,0.0,0.0,0.0,0.0,0.0,0.0,0.0,0.0,0.0,0.0,0.0,0.0,0.0,0.0,0.0,0.0,0.0,0.0,0.0,0.0,0.0,0.0,0.0,0.0,0.0,0.0,0.0,0.0,0.0,0.0,0.0,0.0,0.0,0.0,0.0,0.0,0.0,0.0,0.0,0.0,0.0,0.0,0.0,0.0,0.0,0.0,0.0,0.0,0.0,0.0,0.0,0.0,0.0,0.0,0.0,0.0,0.0,0.0,0.0,0.0,0.0,0.0,0.0,0.0,0.0,0.0,0.0,0.0,0.0,0.0,0.0,0.0,0.0,0.0,0.0,0.0,0.0,0.0,0.0,0.0,0.0,0.0,0.0,-2.3414,-2.3105,-2.2659,-2.2535,-2.2443,-2.2237,0.0,0.0,0.0,0.0,0.0,0.0,0.0,0.0,0.0,0.0,0.0,0.0,0.0,0.0,0.0,0.0,0.0,0.0,0.0,0.0,0.0,0.0,0.0,0.0,0.0,0.0,0.0,0.0,0.0,0.0,0.0,0.0,0.0,0.0,0.0,0.0,0.0,0.0,0.0,0.0,0.0,0.0,0.0,0.0,0.0,0.0,0.0,0.0,0.0,0.0,0.0,0.0,0.0,0.0,0.0,0.0,0.0,0.0,0.0,0.0,0.0,0.0,0.0,0.0,0.0,0.0,0.0,0.0,0.0,0.0,0.0,0.0,0.0,0.0,0.0,0.0,0.0,0.0,0.0,0.0,0.0,0.0,0.0,0.0,0.0,0.0,0.0,0.0,0.0,0.0,0.0,0.0,0.0,0.0,0.0,0.0,0.0,0.0,0.0,0.0,0.0,0.0,0.0,0.0,0.0,0.0,0.0,0.0,-2.3858,-2.3369,-2.2883,-2.2432,-2.2158,-2.1969,0.0,0.0,0.0,0.0,0.0,0.0,0.0,0.0,0.0,0.0,0.0,0.0,0.0,0.0,0.0,0.0,0.0,0.0,0.0,0.0,0.0,0.0,0.0,0.0,0.0,0.0,0.0,0.0,0.0,0.0,0.0,0.0,0.0,0.0,0.0,0.0,0.0,0.0,0.0,0.0,0.0,0.0,0.0,0.0,0.0,0.0,0.0,0.0,0.0,0.0,0.0,0.0,0.0,0.0,0.0,0.0,0.0,0.0,0.0,0.0,0.0,0.0,0.0,0.0,0.0,0.0,0.0,0.0,0.0,0.0,0.0,0.0,0.0,0.0,0.0,0.0,0.0,0.0,0.0,0.0,0.0,0.0,0.0,0.0,0.0,0.0,0.0,0.0,0.0,0.0,0.0,0.0,0.0,0.0,0.0,0.0,0.0,0.0,0.0,0.0,0.0,0.0,0.0,0.0,0.0,0.0,0.0,0.0,0.0,-2.3394,-2.2917,-2.2642,-2.2579,-2.2215,-2.194,0.0,0.0,0.0,0.0,0.0,0.0,0.0,0.0,0.0,0.0,0.0,0.0,0.0,0.0,0.0,0.0,0.0,0.0,0.0,0.0,0.0,0.0,0.0,0.0,0.0,0.0,0.0,0.0,0.0,0.0,0.0,0.0,0.0,0.0,0.0,0.0,0.0,0.0,0.0,0.0,0.0,0.0,0.0,0.0,0.0,0.0,0.0,0.0,0.0,0.0,0.0,0.0,0.0,0.0,0.0,0.0,0.0,0.0,0.0,0.0,0.0,0.0,0.0,0.0,0.0,0.0,0.0,0.0,0.0,0.0,0.0,0.0,0.0,0.0,0.0,0.0,0.0,0.0,0.0,0.0,0.0,0.0,0.0,0.0,0.0,0.0,0.0,0.0,0.0,0.0,0.0,0.0,0.0,0.0,0.0,0.0,0.0,0.0,0.0,0.0,0.0,0.0,0.0,0.0,0.0,0.0,0.0,0.0,0.0,-2.2977,0.0,-2.2432,-2.2453,-2.2044,-2.1705,0.0,0.0,0.0,0.0,0.0,0.0,0.0,0.0,0.0,0.0,0.0,0.0,0.0,0.0,0.0,0.0,0.0,0.0,0.0,0.0,0.0,0.0,0.0,0.0,0.0,0.0,0.0,0.0,0.0,0.0,0.0,0.0,0.0,0.0,0.0,0.0,0.0,0.0,0.0,0.0,0.0,0.0,0.0,0.0,0.0,0.0,0.0,0.0,0.0,0.0,0.0,0.0,0.0,0.0,0.0,0.0,0.0,0.0,0.0,0.0,0.0,0.0,0.0,0.0,0.0,0.0,0.0,0.0,0.0,0.0,0.0,0.0,0.0,0.0,0.0,0.0,0.0,0.0,0.0,0.0,0.0,0.0,0.0,0.0,0.0,0.0,0.0,0.0,0.0,0.0,0.0,0.0,0.0,0.0,0.0,0.0,0.0,0.0,0.0,0.0,0.0,0.0,0.0,0.0,0.0,0.0,0.0,0.0,-2.3242,-2.2721,-2.2515,-2.2304,-2.2027,-2.1645,-2.123,0.0,0.0,0.0,0.0,0.0,0.0,0.0,0.0,0.0,0.0,0.0,0.0,0.0,0.0,0.0,0.0,0.0,0.0,0.0,0.0,0.0,0.0,0.0,0.0,0.0,0.0,0.0,0.0,0.0,0.0,0.0,0.0,0.0,0.0,0.0,0.0,0.0,0.0,0.0,0.0,0.0,0.0,0.0,0.0,0.0,0.0,0.0,0.0,0.0,0.0,0.0,0.0,0.0,0.0,0.0,0.0,0.0,0.0,0.0,0.0,0.0,0.0,0.0,0.0,0.0,0.0,0.0,0.0,0.0,0.0,0.0,0.0,0.0,0.0,0.0,0.0,0.0,0.0,0.0,0.0,0.0,0.0,0.0,0.0,0.0,0.0,0.0,0.0,0.0,0.0,0.0,0.0,0.0,0.0,0.0,0.0,0.0,0.0,0.0,0.0,0.0,0.0,0.0,0.0,0.0,0.0,0.0,0.0,0.0,-2.2729,-2.247,-2.2343,-2.2398,-2.1721,-2.1309,0.0,0.0,0.0,0.0,0.0,0.0,0.0,0.0,0.0,0.0,0.0,0.0,0.0,0.0,0.0,0.0,0.0,0.0,0.0,0.0,0.0,0.0,0.0,0.0,0.0,0.0,0.0,0.0,0.0,0.0,0.0,0.0,0.0,0.0,0.0,0.0,0.0,0.0,0.0,0.0,0.0,0.0,0.0,0.0,0.0,0.0,0.0,0.0,0.0,0.0,0.0,0.0,0.0,0.0,0.0,0.0,0.0,0.0,0.0,0.0,0.0,0.0,0.0,0.0,0.0,0.0,0.0,0.0,0.0,0.0,0.0,0.0,0.0,0.0,0.0,0.0,0.0,0.0,0.0,0.0,0.0,0.0,0.0,0.0,0.0,0.0,0.0,0.0,0.0,0.0,0.0,0.0,0.0,0.0,0.0,0.0,0.0,0.0,0.0,0.0,0.0,0.0,0.0,0.0,0.0,0.0,0.0,0.0,0.0,-2.2659,-2.247,-2.2388,-2.2409,-2.1705,-2.1293,-2.1245,0.0,0.0,0.0,0.0,0.0,0.0,0.0,0.0,0.0,0.0,0.0,0.0,0.0,0.0,0.0,0.0,0.0,0.0,0.0,0.0,0.0,0.0,0.0,0.0,0.0,0.0,0.0,0.0,0.0,0.0,0.0,0.0,0.0,0.0,0.0,0.0,0.0,0.0,0.0,0.0,0.0,0.0,0.0,0.0,0.0,0.0,0.0,0.0,0.0,0.0,0.0,0.0,0.0,0.0,0.0,0.0,0.0,0.0,0.0,0.0,0.0,0.0,0.0,0.0,0.0,0.0,0.0,0.0,0.0,0.0,0.0,0.0,0.0,0.0,0.0,0.0,0.0,0.0,0.0,0.0,0.0,0.0,0.0,0.0,0.0,0.0,0.0,0.0,0.0,0.0,0.0,0.0,0.0,0.0,0.0,0.0,0.0,0.0,0.0,0.0,0.0,0.0,0.0,0.0,0.0,0.0,0.0,0.0,-2.2579,-2.2497,-2.2388,-2.2141,-2.1645,-2.1276,0.0,0.0,0.0,0.0,0.0,0.0,0.0,0.0,0.0,0.0,0.0,0.0,0.0,0.0,0.0,0.0,0.0,0.0,0.0,0.0,0.0,0.0,0.0,0.0,0.0,0.0,0.0,0.0,0.0,0.0,0.0,0.0,0.0,0.0,0.0,0.0,0.0,0.0,0.0,0.0,0.0,0.0,0.0,0.0,0.0,0.0,0.0,0.0,0.0,0.0,0.0,0.0,0.0,0.0,0.0,0.0,0.0,0.0,0.0,0.0,0.0,0.0,0.0,0.0,0.0,0.0,0.0,0.0,0.0,0.0,0.0,0.0,0.0,0.0,0.0,0.0,0.0,0.0,0.0,0.0,0.0,0.0,0.0,0.0,0.0,0.0,0.0,0.0,0.0,0.0,0.0,0.0,0.0,0.0,0.0,0.0,0.0,0.0,0.0,0.0,0.0,0.0,0.0,0.0,0.0,0.0,0.0,0.0,0.0,-2.246,-2.2394,-2.2349,-2.2304,-2.1675,-2.1308,0.0,0.0,0.0,0.0,0.0,0.0,0.0,0.0,0.0,0.0,0.0,0.0,0.0,0.0,0.0,0.0,0.0,0.0,0.0,0.0,0.0,0.0,0.0,0.0,0.0,0.0,0.0,0.0,0.0,0.0,0.0,0.0,0.0,0.0,0.0,0.0,0.0,0.0,0.0,0.0,0.0,0.0,0.0,0.0,0.0,0.0,0.0,0.0,0.0,0.0,0.0,0.0,0.0,0.0,0.0,0.0,0.0,0.0,0.0,0.0,0.0,0.0,0.0,0.0,0.0,0.0,0.0,0.0,0.0,0.0,0.0,0.0,0.0,0.0,0.0,0.0,0.0,0.0,0.0,0.0,0.0,0.0,0.0,0.0,0.0,0.0,0.0,0.0,0.0,0.0,0.0,0.0,0.0,0.0,0.0,0.0,0.0,0.0,0.0,0.0,0.0,0.0,0.0,0.0,0.0,0.0,0.0,0.0,-2.2613,-2.2864,-2.2796,-2.2948,-2.3282,-2.2438,-2.2113,0.0,0.0,0.0,0.0,0.0,0.0,0.0,0.0,0.0,0.0,0.0,0.0,0.0,0.0,0.0,0.0,0.0,0.0,0.0,0.0,0.0,0.0,0.0,0.0,0.0,0.0,0.0,0.0,0.0,0.0,0.0,0.0,0.0,0.0,0.0,0.0,0.0,0.0,0.0,0.0,0.0,0.0,0.0,0.0,0.0,0.0,0.0,0.0,0.0,0.0,0.0,0.0,0.0,0.0,0.0,0.0,0.0,0.0,0.0,0.0,0.0,0.0,0.0,0.0,0.0,0.0,0.0,0.0,0.0,0.0,0.0,0.0,0.0,0.0,0.0,0.0,0.0,0.0,0.0,0.0,0.0,0.0,0.0,0.0,0.0,0.0,0.0,0.0,0.0,0.0,0.0,0.0,0.0,0.0,0.0,0.0,0.0,0.0,0.0,0.0,0.0,0.0,0.0,0.0,0.0,0.0,0.0,0.0,-2.292,-2.3612,-2.3541,-2.3849,-2.4526,-2.3575,-2.3335,0.0,0.0,0.0,0.0,0.0,0.0,0.0,0.0,0.0,0.0,0.0,0.0,0.0,0.0,0.0,0.0,0.0,0.0,0.0,0.0,0.0,0.0,0.0,0.0,0.0,0.0,0.0,0.0,0.0,0.0,0.0,0.0,0.0,0.0,0.0,0.0,0.0,0.0,0.0,0.0,0.0,0.0,0.0,0.0,0.0,0.0,0.0,0.0,0.0,0.0,0.0,0.0,0.0,0.0,0.0,0.0,0.0,0.0,0.0,0.0,0.0,0.0,0.0,0.0,0.0,0.0,0.0,0.0,0.0,0.0,0.0,0.0,0.0,0.0,0.0,0.0,0.0,0.0,0.0,0.0,0.0,0.0,0.0,0.0,0.0,0.0,0.0,0.0,0.0,0.0,0.0,0.0,0.0,0.0,0.0,0.0,0.0,0.0,0.0,0.0,0.0,0.0,0.0,0.0,0.0,0.0,0.0,0.0,-2.36,-2.4282,-2.4286,-2.4611,-2.5338,-2.4327,-2.3834,0.0,0.0,0.0,0.0,0.0,0.0,0.0,0.0,0.0,0.0,0.0,0.0,0.0,0.0,0.0,0.0,0.0,0.0,0.0,0.0,0.0,0.0,0.0,0.0,0.0,0.0,0.0,0.0,0.0,0.0,0.0,0.0,0.0,0.0,0.0,0.0,0.0,0.0,0.0,0.0,0.0,0.0,0.0,0.0,0.0,0.0,0.0,0.0,-2.5523,0.0,0.0,0.0,0.0,0.0,0.0,0.0,0.0,0.0,0.0,0.0,0.0,0.0,0.0,0.0,0.0,0.0,0.0,0.0,0.0,0.0,0.0,0.0,0.0,0.0,0.0,0.0,0.0,0.0,0.0,0.0,0.0,0.0,0.0,0.0,0.0,0.0,0.0,0.0,0.0,0.0,0.0,0.0,0.0,0.0,0.0,0.0,0.0,0.0,0.0,0.0,0.0,0.0,0.0,0.0,0.0,0.0,0.0,0.0,-2.4333,-2.4983,-2.5017,-2.5372,-2.6065,-2.5563,-2.5279,0.0,0.0,0.0,0.0,0.0,0.0,0.0,0.0,0.0,0.0,0.0,0.0,0.0,0.0,0.0,0.0,0.0,0.0,0.0,0.0,0.0,0.0,0.0,0.0,0.0,0.0,0.0,0.0,0.0,0.0,0.0,0.0,0.0,0.0,0.0,0.0,0.0,0.0,0.0,0.0,0.0,0.0,0.0,0.0,0.0,0.0,0.0,0.0,0.0,0.0,0.0,0.0,0.0,0.0,0.0,0.0,0.0,0.0,0.0,0.0,0.0,0.0,0.0,0.0,0.0,0.0,0.0,0.0,0.0,0.0,0.0,0.0,0.0,0.0,0.0,0.0,0.0,0.0,0.0,0.0,0.0,0.0,0.0,0.0,0.0,0.0,0.0,0.0,0.0,0.0,0.0,0.0,0.0,0.0,0.0,0.0,0.0,0.0,0.0,0.0,0.0,0.0,0.0,0.0,0.0,0.0,0.0,-2.4462,-2.5096,-2.5727,-2.5778,-2.6065,-2.6674,-2.6691,-2.6657,-2.6674,0.0,0.0,0.0,0.0,0.0,0.0,0.0,0.0,0.0,0.0,0.0,0.0,0.0,0.0,0.0,0.0,0.0,0.0,0.0,0.0,0.0,0.0,0.0,0.0,0.0,0.0,0.0,0.0,0.0,0.0,0.0,0.0,0.0,0.0,0.0,0.0,0.0,0.0,-2.4703,-2.5647,0.0,0.0,0.0,0.0,0.0,0.0,0.0,0.0,-2.5988,0.0,0.0,0.0,0.0,0.0,0.0,0.0,0.0,0.0,0.0,0.0,0.0,0.0,0.0,0.0,0.0,0.0,0.0,0.0,0.0,0.0,0.0,0.0,0.0,0.0,0.0,0.0,0.0,0.0,0.0,0.0,0.0,0.0,0.0,0.0,0.0,0.0,0.0,0.0,0.0,0.0,0.0,0.0,0.0,0.0,0.0,0.0,0.0,0.0,0.0,0.0,0.0,0.0,0.0,0.0,0.0,-2.5346,-2.5418,-2.5778,-2.6488,-2.6505,-2.6573,-2.6691,-2.6657,-2.6589,-2.6606,0.0,0.0,0.0,0.0,0.0,0.0,0.0,0.0,0.0,0.0,0.0,0.0,0.0,0.0,0.0,0.0,0.0,0.0,0.0,0.0,0.0,0.0,0.0,0.0,0.0,0.0,0.0,0.0,0.0,0.0,0.0,0.0,0.0,0.0,0.0,0.0,0.0,0.0,0.0,-2.5742,-2.5453,0.0,0.0,0.0,0.0,0.0,0.0,0.0,0.0,-2.7237,0.0,0.0,0.0,0.0,0.0,0.0,0.0,0.0,0.0,0.0,0.0,0.0,0.0,0.0,0.0,0.0,0.0,0.0,0.0,0.0,0.0,0.0,0.0,0.0,0.0,0.0,0.0,0.0,0.0,0.0,0.0,0.0,0.0,0.0,0.0,0.0,0.0,0.0,0.0,0.0,0.0,0.0,0.0,0.0,0.0,0.0,0.0,0.0,0.0,0.0,0.0,0.0,0.0,0.0,0.0,-2.5768,-2.6046,-2.6353,-2.6691,-2.6708,-2.6657,-2.664,-2.6606,-2.6572,0.0,0.0,0.0,0.0,0.0,0.0,0.0,0.0,0.0,0.0,0.0,0.0,0.0,0.0,0.0,0.0,0.0,0.0,0.0,0.0,0.0,0.0,0.0,0.0,0.0,0.0,0.0,0.0,0.0,0.0,0.0,0.0,0.0,0.0,0.0,0.0,0.0,0.0,0.0,0.0,-2.5511,-2.5441,-2.5804,0.0,0.0,0.0,0.0,0.0,0.0,-2.7786,-2.8142,0.0,0.0,0.0,0.0,0.0,0.0,0.0,0.0,0.0,0.0,0.0,0.0,0.0,0.0,0.0,0.0,0.0,0.0,0.0,0.0,0.0,0.0,0.0,0.0,0.0,0.0,0.0,0.0,0.0,0.0,0.0,0.0,0.0,0.0,0.0,0.0,0.0,0.0,0.0,0.0,0.0,0.0,0.0,0.0,0.0,0.0,0.0,0.0,0.0,0.0,0.0,0.0,0.0,0.0,0.0,-2.6121,-2.6487,-2.6708,-2.6708,-2.6691,-2.664,-2.664,-2.6572,-2.6554,0.0,0.0,0.0,0.0,0.0,0.0,0.0,0.0,0.0,0.0,0.0,0.0,0.0,0.0,0.0,0.0,0.0,0.0,0.0,0.0,0.0,0.0,0.0,0.0,0.0,0.0,0.0,0.0,0.0,0.0,0.0,0.0,0.0,0.0,0.0,0.0,0.0,0.0,0.0,0.0,0.0,-2.6,-2.6552,-2.6126,0.0,0.0,0.0,0.0,-2.8298,-2.8678,0.0,0.0,0.0,0.0,0.0,0.0,0.0,0.0,0.0,0.0,0.0,0.0,0.0,0.0,0.0,0.0,0.0,0.0,0.0,0.0,0.0,0.0,0.0,0.0,0.0,0.0,0.0,0.0,0.0,0.0,0.0,0.0,0.0,0.0,0.0,0.0,0.0,0.0,0.0,0.0,0.0,0.0,0.0,0.0,0.0,0.0,0.0,0.0,0.0,0.0,0.0,0.0,0.0,0.0,0.0,0.0,-2.6773,-2.6741,-2.6708,-2.6708,-2.6657,-2.6623,-2.6708,-2.6572,-2.652,0.0,0.0,0.0,0.0,0.0,0.0,0.0,0.0,0.0,0.0,0.0,0.0,0.0,0.0,0.0,0.0,0.0,0.0,0.0,0.0,0.0,0.0,0.0,0.0,0.0,0.0,0.0,0.0,0.0,0.0,0.0,0.0,0.0,0.0,0.0,0.0,0.0,0.0,0.0,0.0,0.0,-2.7284,-2.7338,-2.7284,-2.7351,0.0,0.0,-2.8298,-2.8492,-2.949,0.0,0.0,0.0,0.0,0.0,0.0,0.0,0.0,0.0,0.0,0.0,0.0,0.0,0.0,0.0,0.0,0.0,0.0,0.0,0.0,0.0,0.0,0.0,0.0,0.0,0.0,0.0,0.0,0.0,0.0,0.0,0.0,0.0,0.0,0.0,0.0,0.0,0.0,0.0,0.0,0.0,0.0,0.0,0.0,0.0,0.0,0.0,0.0,0.0,0.0,0.0,0.0,0.0,0.0,0.0,-2.6635,-2.6876,-2.6792,-2.6708,-2.6708,-2.6674,-2.664,-2.6657,-2.6572,-2.6503,0.0,0.0,0.0,0.0,0.0,0.0,0.0,0.0,0.0,0.0,0.0,0.0,0.0,0.0,0.0,0.0,0.0,0.0,0.0,0.0,0.0,0.0,0.0,0.0,0.0,0.0,0.0,0.0,0.0,0.0,0.0,0.0,0.0,0.0,0.0,0.0,0.0,0.0,0.0,0.0,0.0,0.0,-2.7934,-2.7404,0.0,0.0,0.0,-2.8757,-2.9513,0.0,0.0,0.0,0.0,0.0,0.0,0.0,0.0,0.0,0.0,0.0,0.0,0.0,0.0,0.0,0.0,0.0,0.0,0.0,0.0,0.0,0.0,0.0,0.0,0.0,0.0,0.0,0.0,0.0,0.0,0.0,0.0,0.0,0.0,0.0,0.0,0.0,0.0,0.0,0.0,0.0,0.0,0.0,0.0,0.0,0.0,0.0,0.0,0.0,0.0,0.0,0.0,0.0,0.0,0.0,0.0,0.0,-2.6842,-2.6742,-2.6708,-2.6708,-2.6691,-2.664,-2.664,-2.6572,0.0,0.0,0.0,0.0,0.0,0.0,0.0,0.0,0.0,0.0,0.0,0.0,0.0,0.0,0.0,0.0,0.0,0.0,0.0,0.0,0.0,0.0,0.0,0.0,0.0,0.0,0.0,-2.8405,0.0,0.0,0.0,0.0,0.0,0.0,0.0,0.0,0.0,0.0,0.0,0.0,0.0,0.0,-2.7604,-2.8634,-2.7868,-2.7749,0.0,0.0,-2.9366,-3.0317,-3.119,-3.1878,0.0,0.0,0.0,0.0,0.0,0.0,0.0,0.0,0.0,0.0,0.0,0.0,0.0,0.0,0.0,0.0,0.0,0.0,0.0,0.0,0.0,0.0,0.0,0.0,0.0,0.0,0.0,0.0,0.0,0.0,0.0,0.0,0.0,0.0,0.0,0.0,0.0,0.0,0.0,0.0,0.0,0.0,0.0,0.0,0.0,0.0,0.0,0.0,0.0,0.0,0.0,0.0,0.0,0.0,0.0,-2.6708,-2.6691,-2.6708,-2.6708,-2.6623,-2.664,-2.6691,-2.6572,-2.652,0.0,0.0,0.0,0.0,0.0,0.0,0.0,0.0,0.0,0.0,0.0,0.0,0.0,0.0,0.0,0.0,0.0,0.0,0.0,0.0,0.0,0.0,0.0,0.0,0.0,0.0,0.0,0.0,0.0,0.0,0.0,0.0,0.0,0.0,0.0,0.0,0.0,0.0,0.0,0.0,0.0,-2.9401,-2.954,-2.9477,-2.9401,0.0,0.0,-3.0409,-3.053,-3.1555,-3.2356,-3.2384,0.0,0.0,0.0,0.0,0.0,0.0,0.0,0.0,0.0,0.0,0.0,0.0,0.0,0.0,0.0,0.0,0.0,0.0,0.0,0.0,0.0,0.0,0.0,0.0,0.0,0.0,0.0,0.0,0.0,0.0,0.0,0.0,0.0,0.0,0.0,0.0,0.0,0.0,0.0,0.0,0.0,0.0,0.0,0.0,0.0,0.0,0.0,0.0,0.0,0.0,0.0,0.0,0.0,-2.6842,-2.6708,-2.6708,-2.6708,-2.6708,-2.6674,-2.6674,-2.6708,-2.6623,-2.6554,0.0,0.0,0.0,0.0,0.0,0.0,0.0,0.0,0.0,0.0,0.0,0.0,0.0,0.0,0.0,0.0,0.0,0.0,0.0,0.0,0.0,0.0,0.0,0.0,0.0,0.0,0.0,0.0,-3.0437,-3.0582,-3.0507,0.0,0.0,0.0,0.0,0.0,0.0,0.0,0.0,0.0,0.0,-2.9107,-2.954,-2.9198,0.0,0.0,-3.0375,-3.0797,-3.1555,-3.2089,-3.2539,-3.2918,-3.3171,0.0,0.0,0.0,0.0,0.0,0.0,0.0,0.0,0.0,0.0,0.0,0.0,0.0,0.0,0.0,0.0,0.0,0.0,0.0,0.0,0.0,0.0,0.0,0.0,0.0,0.0,0.0,0.0,0.0,0.0,0.0,0.0,0.0,0.0,0.0,0.0,0.0,0.0,0.0,0.0,0.0,0.0,0.0,0.0,0.0,0.0,0.0,0.0,0.0,0.0,0.0,0.0,-2.6775,-2.6708,-2.6708,-2.6708,-2.6708,-2.6708,-2.681,-2.7012,-2.6909,-2.6974,0.0,0.0,0.0,0.0,0.0,0.0,0.0,0.0,0.0,0.0,0.0,0.0,0.0,0.0,0.0,0.0,0.0,0.0,0.0,0.0,0.0,0.0,0.0,0.0,0.0,0.0,0.0,0.0,-3.0568,-3.0507,-3.0462,0.0,0.0,0.0,0.0,0.0,0.0,0.0,0.0,0.0,0.0,-2.898,-2.954,-2.9337,-2.9408,-3.0395,-3.0853,-3.1401,-3.2272,-3.2567,-3.282,-3.3241,0.0,0.0,0.0,0.0,0.0,0.0,0.0,0.0,0.0,0.0,0.0,0.0,0.0,0.0,0.0,0.0,0.0,0.0,0.0,0.0,0.0,0.0,0.0,0.0,0.0,0.0,0.0,0.0,0.0,0.0,-2.5636,0.0,0.0,0.0,0.0,0.0,0.0,0.0,0.0,0.0,0.0,0.0,0.0,0.0,0.0,0.0,0.0,0.0,0.0,0.0,0.0,0.0,0.0,-2.6691,-2.6708,-2.6708,-2.6708,-2.6708,-2.6708,-2.7063,-2.7739,-2.7595,-2.7858,-2.8706,0.0,0.0,0.0,0.0,0.0,0.0,0.0,0.0,0.0,0.0,0.0,0.0,0.0,0.0,0.0,0.0,0.0,0.0,0.0,0.0,0.0,0.0,0.0,0.0,0.0,0.0,-3.0642,-3.0433,-3.0266,0.0,0.0,0.0,0.0,0.0,0.0,0.0,0.0,0.0,0.0,-2.954,-2.9602,-2.9631,-3.0059,-3.0423,-3.0493,-3.1569,-3.2356,-3.2412,-3.2918,-3.3297,0.0,0.0,0.0,0.0,0.0,0.0,0.0,0.0,0.0,0.0,0.0,0.0,0.0,0.0,0.0,0.0,0.0,0.0,0.0,0.0,0.0,0.0,0.0,0.0,0.0,0.0,0.0,-2.7363,-2.7425,0.0,0.0,0.0,0.0,0.0,0.0,0.0,0.0,0.0,0.0,0.0,-2.8594,-2.8594,0.0,0.0,0.0,0.0,0.0,0.0,0.0,0.0,0.0,0.0,0.0,0.0,-2.6708,-2.6708,-2.6708,-2.6945,-2.7418,-2.7452,-2.7772,-2.8443,-2.8367,-2.859,-2.9176,0.0,0.0,0.0,0.0,0.0,0.0,0.0,0.0,0.0,0.0,0.0,0.0,0.0,0.0,0.0,0.0,0.0,0.0,0.0,0.0,0.0,0.0,0.0,0.0,0.0,-3.0642,0.0,0.0,0.0,0.0,0.0,0.0,0.0,0.0,0.0,0.0,0.0,-2.9602,-2.9602,-2.9602,-2.9757,-3.015,-3.0389,-3.0811,0.0,0.0,0.0,0.0,0.0,0.0,0.0,0.0,0.0,0.0,0.0,0.0,0.0,0.0,-3.3963,-3.4681,-3.4499,-3.4232,-3.3888,0.0,0.0,0.0,0.0,0.0,0.0,0.0,0.0,0.0,0.0,0.0,0.0,0.0,0.0,-2.8237,0.0,-2.8265,0.0,0.0,0.0,0.0,0.0,0.0,0.0,0.0,-2.8554,-2.8621,-2.8998,-2.8975,-2.8975,0.0,-2.8905,-2.8583,0.0,0.0,0.0,0.0,0.0,0.0,0.0,0.0,-2.681,-2.708,-2.708,-2.7452,-2.818,-2.823,-2.8513,-2.9164,-2.9336,-2.9532,-2.9781,-2.9798,-2.9972,0.0,0.0,0.0,0.0,0.0,0.0,0.0,0.0,0.0,0.0,0.0,0.0,0.0,0.0,0.0,0.0,0.0,0.0,0.0,0.0,0.0,0.0,0.0,-3.0642,0.0,0.0,0.0,0.0,0.0,0.0,0.0,0.0,0.0,-2.9602,-2.9602,-2.9602,-2.9602,-2.9785,-3.008,-3.0459,0.0,0.0,0.0,0.0,0.0,0.0,0.0,-3.3312,-3.3312,-3.3312,-3.3325,-3.3223,-3.3328,-3.3661,-3.4443,0.0,0.0,-3.4821,-3.5049,-3.4964,-3.4511,-3.303,-3.181,-3.1704,-3.0655,-2.9837,0.0,0.0,0.0,0.0,0.0,0.0,0.0,0.0,-2.83,-2.8325,0.0,-2.8335,0.0,0.0,0.0,0.0,0.0,-2.9501,0.0,0.0,-2.9188,-2.8975,-2.8975,-2.8975,-2.8975,-2.8994,-2.8876,-2.8626,-2.8324,-2.8264,0.0,0.0,0.0,0.0,0.0,0.0,-2.7097,-2.7824,-2.7858,-2.823,-2.9011,-2.9062,-2.9327,-2.9905,-3.043,-3.0617,-3.051,-3.0452,-3.0468,-3.0468,-3.0468,0.0,0.0,0.0,0.0,0.0,0.0,0.0,0.0,0.0,0.0,0.0,0.0,0.0,0.0,0.0,0.0,0.0,0.0,0.0,0.0,-3.0642,0.0,0.0,0.0,0.0,0.0,0.0,0.0,0.0,0.0,0.0,-2.9602,-2.9602,-2.9617,-2.9645,0.0,0.0,0.0,0.0,-3.2412,-3.244,-3.2946,-3.3312,-3.3312,-3.3312,-3.3312,-3.3312,0.0,0.0,-3.4082,-3.4877,-3.5347,-3.5416,-3.525,-3.5154,-3.5154,-3.571,-3.6138,-3.6058,-3.465,-3.3623,-3.3369,-3.1565,-3.0181,-2.926,0.0,0.0,0.0,0.0,-2.9113,-2.9471,-3.0058,-3.0018,-2.9983,-2.9985,-2.992,0.0,0.0,0.0,0.0,0.0,0.0,-2.9643,-2.9608,-2.9203,-2.8975,-2.8975,-2.8975,-2.8975,-2.8994,-2.8876,-2.8743,-2.8651,-2.8543,-2.8219,-2.7742,0.0,0.0,0.0,0.0,-2.7998,-2.8939,-2.8779,-2.9136,-3.0123,-2.9901,-3.0049,-3.0616,-3.0575,-3.0526,-3.0468,-3.0468,-3.0468,-3.0468,-3.0468,0.0,0.0,0.0,0.0,0.0,0.0,0.0,0.0,0.0,0.0,0.0,0.0,0.0,0.0,0.0,0.0,0.0,0.0,0.0,-3.0628,-3.0642,-3.0642,0.0,0.0,0.0,0.0,0.0,0.0,0.0,0.0,0.0,-2.9602,-2.9602,-2.9771,0.0,0.0,-3.0853,-3.1752,-3.2174,-3.2553,-3.2988,-3.3213,0.0,-3.3312,-3.3312,-3.3312,-3.3312,-3.3449,-3.3706,-3.433,-3.4788,-3.52,-3.553,-3.5842,-3.6058,-3.5978,-3.5413,-3.4895,-3.4314,-3.3543,-3.2772,-3.2064,-3.1104,-3.0397,-3.0131,-2.9234,-2.9214,-2.9547,-3.0015,-3.0019,-3.0312,-3.0797,-3.0771,-3.0739,-3.0691,-3.0646,-3.0548,-3.049,-3.0411,0.0,0.0,0.0,-2.9624,-2.9474,-2.9228,-2.9089,-2.9017,-2.8975,-2.8994,-2.897,-2.8858,-2.8949,-2.9234,-2.9134,-2.9071,-2.8963,0.0,0.0,-2.8747,-2.844,-2.8744,-2.9674,-2.9544,-2.9975,-3.1007,-3.0913,-3.1005,-3.1278,-3.11,-3.0965,-3.0965,-3.0965,-3.0885,-3.074,-3.074,-3.0658,0.0,0.0,0.0,0.0,0.0,0.0,0.0,0.0,0.0,0.0,0.0,-3.1565,-3.2394,0.0,0.0,0.0,-3.1306,-3.0955,-3.0628,-3.0642,0.0,0.0,0.0,0.0,0.0,0.0,0.0,-2.9775,-2.9651,-2.9715,-2.994,-2.9968,-3.0108,-3.0488,-3.0951,-3.1555,-3.23,0.0,-3.2904,-3.3269,-3.3312,-3.3312,-3.3312,-3.3312,-3.3396,-3.3635,-3.3952,-3.4404,-3.503,-3.5488,-3.5843,-3.6174,-3.6298,-3.6405,-3.6405,-3.5562,-3.4895,-3.4564,-3.3784,-3.2834,-3.2064,-3.1193,-3.0397,-3.0735,-3.0784,-3.0786,-3.0796,-3.0801,-3.0801,-3.0797,-3.0801,-3.0799,-3.0762,-3.0677,-3.0594,-3.0563,-3.0471,-3.0355,0.0,-2.9927,-2.9877,-2.966,-2.9314,-2.9293,-2.9163,-2.8975,-2.8975,-2.8952,-2.8887,-2.8888,-2.9234,-2.9875,-2.9896,-3.0296,-3.1039,-2.9704,-2.9225,-2.9608,-2.9366,-2.9525,-3.0309,-3.0289,-3.0762,-3.1733,-3.1878,-3.1985,-3.1894,-3.1768,-3.1694,-3.1694,-3.1677,-3.1528,-3.1145,-3.1162,-3.0965,-3.0593,0.0,0.0,0.0,0.0,0.0,0.0,0.0,0.0,0.0,0.0,0.0,0.0,0.0,0.0,0.0,-3.097,0.0,-3.0642,-3.0642,0.0,0.0,0.0,-3.0462,-3.0111,-3.0111,-2.9988,-2.9665,0.0,0.0,-3.0459,-3.0614,-3.067,-3.067,-3.1668,-3.2412,-3.2483,-3.296,-3.3312,-3.3312,-3.3312,-3.3312,-3.3326,-3.3382,-3.3621,-3.4098,-3.4787,-3.5405,-3.5939,-3.6543,-3.6936,-3.69,-3.6679,-3.647,-3.647,-3.6138,-3.5978,-3.6314,-3.4881,-3.3467,-3.298,-3.1601,-3.0397,-3.0786,-3.08,-3.0799,-3.0793,-3.079,-3.0788,-3.0786,-3.0799,-3.0758,-3.0691,-3.0613,-3.049,-3.0389,-3.0279,-3.024,-3.0185,-3.0123,-2.982,-2.9626,-2.9513,-2.9206,-2.9044,-2.8998,-2.8975,-2.8994,-2.8989,-2.9479,-2.9813,-3.0006,-3.0485,-3.1111,-3.1854,-3.1261,-3.0982,-3.1083,-3.0828,-3.1198,-3.2153,-3.1899,-3.19,-3.2127,-3.2074,-3.1986,-3.1967,-3.1787,-3.1694,-3.1694,-3.1694,-3.164,-3.1565,-3.1582,-3.1393,-3.0965,-3.0982,0.0,0.0,0.0,0.0,0.0,0.0,0.0,0.0,0.0,-3.2914,-3.3925,0.0,-3.2933,0.0,-3.1233,-3.0642,-3.0642,-3.0642,0.0,0.0,-3.0642,-3.0462,-3.0111,-3.0111,-3.0003,-2.9665,-3.0024,-3.0361,-3.0502,-3.1373,-3.1963,-3.1963,-3.2216,-3.2581,-3.3031,-3.3213,-3.3312,-3.3312,-3.3312,-3.3312,-3.3368,-3.3733,-3.4056,-3.4139,-3.5138,-3.5897,-3.6051,-3.6585,-3.6978,-3.6978,-3.69,-3.6836,-3.6836,-3.6758,-3.6795,-3.693,-3.5269,-3.359,-3.3237,-3.2064,-3.096,-3.0798,-3.0801,-3.079,-3.0801,-3.0801,-3.0799,-3.0796,-3.0791,-3.0771,-3.0711,-3.0632,-3.0463,-3.0328,-3.0213,-3.0218,-3.0157,-3.0068,-2.9839,-2.9644,-2.9436,-2.9249,-2.9089,-2.8994,-2.9384,-2.9525,-2.952,-3.0191,-3.068,-3.1018,-3.1365,-3.1944,-3.2705,-3.2511,-3.2403,-3.2373,-3.1898,-3.1996,-3.2568,-3.2535,-3.2519,-3.2486,-3.2486,-3.2504,-3.2486,-3.2335,-3.2248,-3.2266,-3.2248,-3.2144,-3.1985,-3.1985,-3.1677,-3.1123,-3.1395,-3.1391,0.0,0.0,0.0,0.0,0.0,0.0,0.0,0.0,0.0,0.0,0.0,-3.2703,-3.2114,-3.1175,-3.0642,-3.0642,-3.0642,-3.0642,-3.0642,-3.0642,-3.0522,-3.0219,-3.0219,-3.0211,-3.0247,-3.051,-3.0934,-3.1746,-3.2164,-3.2565,-3.3078,-3.3175,-3.3317,-3.3561,-3.3437,-3.3452,-3.3908,-3.3839,-3.3746,-3.3987,-3.4143,-3.4421,-3.4983,-3.5616,-3.615,-3.6431,-3.6754,-3.6978,-3.6978,-3.6978,-3.6978,-3.6993,-3.7231,-3.7447,-3.7365,-3.6455,-3.5201,-3.4244,-3.3293,-3.2334,-3.1133,-3.1152,-3.1122,-3.1131,-3.1131,-3.1145,-3.1022,-3.0801,-3.0794,-3.074,-3.0646,-3.0452,-3.0304,-3.0226,-3.0218,-3.0113,-2.9921,-2.9888,-2.9737,-2.9504,-2.9439,-2.9385,-2.9347,-3.0026,-3.0332,-3.0277,-3.0987,-3.1674,-3.2274,-3.2317,-3.2705,-3.3357,-3.3393,-3.3393,-3.3364,-3.2766,-3.2453,-3.2453,-3.2716,-3.2862,-3.2798,-3.3024,-3.3135,-3.3135,-3.2979,-3.2948,-3.2979,-3.2948,-3.2705,-3.23,-3.2283,-3.1984,-3.1314,-3.1834,-3.2071,0.0,-3.2413,0.0,0.0,0.0,0.0,0.0,0.0,0.0,0.0,-3.2516,-3.2176,-3.1537,-3.097,-3.0642,-3.0642,-3.0642,-3.0642,-3.0642,-3.0642,-3.0507,-3.0326,-3.0326,-3.051,-3.1031,-3.0984,-3.1561,-3.3173,-3.2997,-3.305,-3.3941,-3.4163,-3.4177,-3.4274,-3.3825,-3.3785,-3.4758,-3.4631,-3.4513,-3.4821,-3.4825,-3.5077,-3.5874,-3.6302,-3.6437,-3.6866,-3.6964,-3.6978,-3.6978,-3.6978,-3.7007,-3.7077,-3.754,-3.7948,-3.8106,-3.7814,-3.6936,-3.5554,-3.4537,-3.3729,-3.2907,-3.2895,-3.2912,-3.2907,-3.2921,-3.2915,-3.2092,-3.0788,-3.0745,-3.0625,-3.0442,-3.0285,-3.0221,-3.0218,-3.0218,-3.0171,-3.0128,-2.9803,-2.9964,-3.0506,-3.0187,-3.0349,-3.0925,-3.1109,-3.1139,-3.1119,-3.1827,-3.222,-3.23,-3.2879,-3.3248,-3.3393,-3.3393,-3.3393,-3.3393,0.0,0.0,0.0,-3.3238,-3.3286,-3.3256,-3.3244,-3.3262,-3.3262,-3.3091,0.0,-3.2979,-3.2916,-3.2705,-3.2318,-3.2283,0.0,0.0,0.0,0.0,0.0,0.0,0.0,0.0,0.0,0.0,0.0,-3.435,-3.4218,-3.3968,-3.3018,-3.216,-3.1552,-3.097,-3.0642,-3.0642,-3.0642,-3.0642,-3.0642,-3.0642,-3.0507,-3.0326,-3.0326,-3.051,-3.1031,-3.1354,-3.2003,-3.3354,-3.3662,-3.4008,-3.4662,-3.4743,-3.4942,-3.5285,-3.4558,-3.4221,-3.4773,-3.5207,-3.5331,-3.5062,-3.6127,-3.6518,-3.6457,-3.6959,-3.7348,-3.7092,-3.6978,-3.6978,-3.6978,-3.6978,-3.7161,-3.7611,-3.7835,-3.8257,-3.9226,-3.878,-3.7658,-3.6236,-3.5175,-3.4173,-3.3387,-3.3398,-3.3398,-3.3395,0.0,-3.3379,-3.2892,-3.2088,-3.198,-3.1833,-3.1614,-3.1492,-3.1441,-3.1427,-3.1446,-3.1427,-3.1431,-3.1013,-3.1053,-3.1428,-3.0997,-3.0999,-3.1403,-3.1781,-3.1913,-3.1897,-3.2593,-3.292,-3.29,-3.3223,-3.3393,-3.3393,-3.3393,-3.3393,-3.3393,-3.3393,-3.3393,-3.3393,-3.3393,-3.3393,-3.3393,-3.3322,-3.334,-3.3352,-3.3122,0.0,0.0,0.0,0.0,0.0,0.0,0.0,0.0,-3.3015,0.0,-3.3271,-3.3922,-3.4336,-3.4259,-3.4589,-3.4739,-3.4611,-3.4497,-3.4084,-3.3455,-3.2477,-3.1709,-3.1146,-3.0732,-3.0642,-3.0642,-3.0642,-3.0642,-3.0642,-3.0642,-3.0568,-3.0536,-3.101,-3.1615,-3.2214,-3.2845,-3.3603,-3.4782,-3.4669,-3.4728,-3.5219,-3.5285,-3.5415,-3.5544,-3.5023,-3.4677,-3.5234,-3.557,-3.5884,-3.5904,-3.6331,-3.6991,-3.6688,-3.7076,-3.726,-3.707,-3.6978,-3.6978,-3.7007,-3.7217,-3.7555,-3.785,-3.8383,-3.9044,-3.9634,-3.9661,-3.8869,-3.7316,-3.6198,-3.5096,-3.3849,-3.3844,-3.3844,-3.3863,-3.3863,-3.3851,-3.3813,-3.3765,0.0,0.0,0.0,-3.2752,-3.2672,-3.2672,-3.2672,-3.2672,-3.2657,-3.2335,-3.2201,-3.2291,-3.1858,-3.1728,-3.1843,-3.2426,-3.2684,-3.2738,-3.3239,-3.3509,-3.3481,-3.3422,-3.3393,-3.3393,-3.3393,-3.3393,-3.3393,-3.3393,-3.3393,-3.3393,-3.3393,-3.3393,-3.3393,-3.3352,-3.3352,-3.3393,-3.3165,-3.3073,-3.3135,-3.3011,-3.2955,-3.3033,-3.3282,-3.3328,-3.3132,-3.3947,-3.4275,-3.4051,-3.4551,-3.4851,-3.4739,-3.4739,-3.4707,-3.4529,-3.4448,-3.3866,-3.2656,-3.2089,-3.1522,-3.0807,-3.0747,-3.0747,-3.0747,-3.0747,-3.0792,-3.0911,-3.0911,-3.0955,-3.1146,-3.1975,-3.293,-3.3728,-3.4363,-3.5154,-3.609,-3.5627,-3.5285,-3.5688,-3.5831,-3.5816,-3.5816,-3.5494,-3.5424,-3.5799,-3.6089,-3.6399,-3.681,-3.691,-3.677,-3.7161,-3.7183,-3.7134,-3.6978,-3.6978,-3.7021,-3.7189,-3.7583,-3.7948,-3.8243,-3.9044,-3.9788,-3.9929,-4.0166,-3.9867,-3.8251,-3.6964,-3.5879,-3.5561,-3.5642,-3.5642,-3.5642,-3.562,-3.5642,-3.5489,-3.5166,-3.3684,-3.2926,-3.2722,-3.2707,-3.2672,-3.2672,-3.2672,-3.2672,-3.2691,-3.2476,-3.2619,-3.3116,-3.2873,-3.3025,-3.3458,-3.3506,-3.3506,-3.3441,-3.3484,-3.3481,-3.3422,-3.3411,-3.3393,-3.3393,-3.3393,-3.3393,-3.3393,-3.3393,-3.3393,-3.3393,-3.3393,-3.3393,-3.3393,-3.3393,-3.3382,-3.3393,-3.3322,-3.328,-3.3262,-3.3091,-3.3155,-3.3458,-3.3477,-3.3723,-3.4236,-3.4414,-3.4555,-3.4714,-3.4833,-3.4899,-3.4883,-3.4835,-3.4804,-3.4691,-3.4659,-3.4267,-3.3355,-3.3093,-3.2555,-3.1537,-3.1364,-3.1379,-3.1364,-3.1379,-3.1537,-3.2048,-3.2104,-3.2359,-3.2821,-3.3119,-3.3802,-3.491,-3.5125,-3.5477,-3.6292,-3.618,-3.607,-3.6289,-3.6304,-3.6367,-3.6335,-3.6352,-3.6344,-3.6602,-3.7022,-3.7601,-3.8048,-3.8352,-3.8088,-3.7782,-3.7734,-3.7505,-3.7056,-3.7035,-3.7203,-3.7667,-3.7906,-3.8355,-3.9212,-3.9634,-4.0013,-4.0378,-4.0073,-3.9224,-3.8069,-3.6977,-3.5941,-3.5934,-3.6013,-3.601,-3.601,-3.601,-3.6013,-3.5846,-3.554,-3.4775,-3.4269,-3.406,-3.4063,-3.4063,-3.4063,-3.4063,-3.4063,-3.4047,-3.3695,-3.3691,-3.3923,-3.3579,-3.3545,-3.3716,-3.3689,-3.3587,-3.3549,-3.3462,-3.3441,-3.3411,-3.3393,-3.3393,-3.3393,-3.3393,-3.3393,-3.3393,-3.3393,-3.3393,-3.3393,-3.3393,-3.3393,-3.3393,-3.3393,-3.3393,-3.3393,-3.334,-3.3527,-3.3942,-3.3768,-3.3916,-3.4549,-3.464,-3.4833,-3.5157,-3.5341,-3.5462,-3.5565,-3.5407,-3.5287,-3.5287,-3.5024,-3.4835,-3.4787,-3.4739,-3.4529,-3.4136,-3.3665,-3.3024,-3.217,-3.2059,-3.2018,-3.1992,-3.1992,-3.2104,-3.2382,-3.2398,-3.2659,-3.3373,-3.412,-3.4898,-3.5822,-3.6381,-3.6786,-3.716,-3.6982,-3.6831,-3.68,-3.6631,-3.6599,-3.6969,-3.7046,-3.7059,-3.7185,-3.7459,-3.7874,-3.8487,-3.8106,-3.7904,-3.7886,-3.7596,-3.7352,-3.7084,-3.7203,-3.7569,-3.7892,-3.8397,-3.9072,-3.976,-4.0069,-4.0378,-4.0561,-4.0416,-3.9502,-3.816,-3.6602,-3.5295,-3.5934,-3.601,-3.601,-3.5988,-3.5981,-3.5958,-3.5806,-3.5588,-3.5554,-3.5418,-3.5207,-3.519,-3.519,-3.519,-3.519,-3.519,-3.5141,-3.4774,-3.4551,-3.4464,-3.4062,-3.3788,-3.3716,-3.3633,-3.3549,-3.3509,-3.3422,-3.3393,-3.3393,-3.3393,-3.3393,-3.3393,-3.3393,-3.3393,-3.3393,-3.3393,-3.3393,-3.3393,-3.3393,-3.3393,-3.3393,-3.3393,-3.3393,-3.3411,-3.3533,-3.3882,-3.4465,-3.4519,-3.487,-3.5626,-3.5829,-3.5905,-3.5966,-3.6232,-3.6316,-3.619,-3.582,-3.5543,-3.5453,-3.5102,-3.4899,-3.4899,-3.4787,-3.4756,-3.4691,-3.4235,-3.3598,-3.2902,-3.2741,-3.2703,-3.2625,-3.2586,-3.2656,-3.278,-3.2975,-3.342,-3.406,-3.5142,-3.6079,-3.6804,-3.755,-3.7927,-3.7886,-3.7695,-3.7373,-3.6999,-3.6754,-3.6894,-3.7338,-3.76,-3.7754,-3.7765,-3.7818,-3.818,-3.8697,-3.7899,-3.7477,-3.7962,-3.7505,-3.7219,-3.7217,-3.7625,-3.8074,-3.8355,-3.91,-3.9718,-3.9957,-4.035,-4.0631,-4.0702,-4.0616,-4.0055,-3.8173,-3.6118,-3.4726,-3.5954,-3.5994,-3.6082,-3.5951,-3.5929,-3.5879,-3.5743,-3.5626,-3.547,-3.5321,-3.5248,-3.519,-3.5209,-3.519,-3.519,-3.519,-3.5174,-3.4963,-3.4714,-3.4467,-3.4203,-3.3947,-3.3716,-3.3577,-3.3509,-3.3509,-3.3441,-3.3393,-3.3393,-3.3393,-3.3393,-3.3393,-3.3393,-3.3393,-3.3393,-3.3393,-3.3393,-3.3393,-3.3393,-3.3393,-3.3393,-3.3393,-3.3393,-3.3411,-3.4117,-3.4503,-3.4684,-3.52,-3.5876,-3.6481,-3.6539,-3.6594,-3.6784,-3.6808,-3.6643,-3.6274,-3.5803,-3.5407,-3.5024,-3.493,-3.4899,-3.4899,-3.4899,-3.4883,-3.4899,-3.4787,-3.4415,-3.37,-3.3375,-3.3339,-3.3287,-3.3198,-3.3319,-3.3761,-3.4394,-3.5207,-3.583,-3.6696,-3.7374,-3.8157,-3.8197,-3.8262,-3.8017,-3.7886,-3.761,-3.7121,-3.7047,-3.7173,-3.7571,-3.8092,-3.8433,-3.8402,-3.815,-3.856,-3.9436,-3.8384,-3.7658,-3.8248,-3.7749,-3.7374,-3.7597,-3.7906,-3.8187,-3.9114,-3.9634,-4.0013,-4.0378,-4.0688,-4.0688,-4.0616,-4.0516,-4.0069,-3.816,-3.6023,-3.4628,-3.7476,-3.7536,-3.7507,-3.716,-3.6645,-3.606,-3.5997,-3.6311,-3.6215,-3.6113,-3.5974,-3.5974,-3.5687,-3.5209,-3.519,-3.519,-3.5157,-3.4832,-3.4612,-3.4464,-3.408,-3.378,-3.3661,-3.3567,-3.3462,-3.3452,-3.3411,-3.3393,-3.3393,-3.3393,-3.3393,-3.3393,-3.3393,-3.3393,-3.3393,-3.3393,-3.3393,-3.3393,-3.3393,-3.361,-3.3991,-3.3628,-3.3628,-3.4081,-3.4443,-3.5095,-3.591,-3.6262,-3.6702,-3.7374,-3.7308,-3.731,-3.7358,-3.7319,-3.7243,-3.6995,-3.6357,-3.5644,-3.4947,-3.4899,-3.4899,-3.4899,-3.4899,-3.4899,-3.4899,-3.4899,-3.4723,-3.4464,-3.4235,-3.4102,-3.3951,-3.3901,-3.3917,-3.4182,-3.4732,-3.5493,-3.6222,-3.6902,-3.7598,-3.8262,-3.8391,-3.8335,-3.8205,-3.8017,-3.7711,-3.7392,-3.7402,-3.7732,-3.8065,-3.8677,-3.9069,-3.9149,-3.8761,-3.869,-3.9247,-3.8173,-3.7596,-3.7958,-3.791,-3.7681,-3.7892,-3.8636,-3.924,-3.9732,-4.0041,-4.0322,-4.0603,-4.0702,-4.0702,-4.0516,-3.9516,-3.8715,-3.79,-3.6036,-3.4617,-3.8545,-3.8567,-3.8514,-3.8146,-3.7498,-3.6793,-3.6745,-3.7112,-3.7063,-3.6961,-3.6833,-3.6833,-3.6489,-3.5878,-3.542,-3.519,-3.5141,-3.4715,-3.4486,-3.4401,-3.3928,-3.3615,-3.3577,-3.3509,-3.3452,-3.3393,-3.3393,-3.3393,-3.3393,-3.3393,-3.3393,-3.3393,-3.3393,-3.3393,-3.3393,-3.3393,-3.3393,-3.3411,-3.3592,-3.4027,-3.448,-3.4244,-3.4335,-3.4896,-3.5168,-3.582,-3.6924,-3.7112,-3.744,-3.7948,-3.7845,-3.7739,-3.7685,-3.7649,-3.7559,-3.7374,-3.6643,-3.589,-3.5165,-3.4994,-3.4899,-3.4899,-3.4899,-3.4899,-3.4899,-3.4899,-3.4899,-3.4851,-3.4787,-3.4643,-3.4448,-3.4349,-3.4315,-3.4443,-3.5107,-3.5785,-3.6513,-3.7193,-3.7825,-3.8311,-3.8391,-3.8391,-3.8335,-3.8205,-3.8008,-3.7943,-3.8115,-3.8482,-3.8862,-3.9283,-3.952,-3.9489,-3.9002,-3.8694,-3.8708,-3.781,-3.7457,-3.7819,-3.8033,-3.7976,-3.8271,-3.9311,-3.9929,-4.0097,-4.0477,-4.0659,-4.0688,-4.0702,-4.0516,-4.0069,-3.9073,-3.7795,-3.715,-3.5559,-3.4531,-3.8567,-3.8553,-3.8512,-3.8516,-3.8396,-3.8183,-3.8083,-3.804,-3.7896,-3.7766,-3.7653,-3.7636,-3.7617,-3.7387,-3.5993,-3.5248,-3.516,-3.4771,-3.4502,-3.4353,-3.385,-3.3577,-3.3509,-3.3422,-3.3393,-3.3393,-3.3393,-3.3393,-3.3393,-3.3393,-3.3393,-3.3393,-3.3393,-3.3393,-3.3393,-3.3447,-3.3411,-3.3538,-3.419,-3.4606,-3.4751,-3.5349,-3.5693,-3.5874,-3.6453,-3.6834,-3.712,-3.7739,-3.8104,-3.8018,-3.7984,-3.788,-3.7739,-3.7703,-3.7468,-3.6978,-3.6481,-3.602,-3.5588,-3.5165,-3.4899,-3.4899,-3.4899,-3.4899,-3.4899,-3.4899,-3.4899,-3.4899,-3.4899,-3.4787,-3.4707,-3.4497,-3.4627,-3.5212,-3.5857,-3.6448,-3.7161,-3.7809,-3.8294,-3.8391,-3.8391,-3.8391,-3.8391,-3.8391,-3.8527,-3.8729,-3.8898,-3.9182,-3.975,-3.9745,-3.9505,-3.917,-3.8723,-3.8352,-3.856,-3.781,-3.7621,-3.8069,-3.8224,-3.8313,-3.9128,-3.9831,-4.0154,-4.0393,-4.0589,-4.0702,-4.0702,-4.0516,-4.0243,-3.9604,-3.8702,-3.7612,-3.6671,-3.5199,-3.4162,-4.0184,-4.0106,-3.956,-3.933,-3.9247,-3.851,-3.8465,-3.889,-3.8677,-3.8567,-3.8534,-3.8534,-3.8228,-3.7674,-3.7082,-3.642,-3.578,-3.5484,-3.4922,-3.424,-3.3788,-3.3577,-3.3491,-3.3422,-3.3393,-3.3393,-3.3393,-3.3393,-3.3393,-3.3393,-3.3393,-3.3393,-3.3393,-3.3393,-3.3484,-3.3936,-3.4172,-3.4262,-3.495,-3.562,-3.6055,-3.6417,-3.6798,-3.7268,-3.7087,-3.7232,-3.7739,-3.8047,-3.8174,-3.814,-3.8036,-3.7933,-3.7846,-3.7685,-3.7411,-3.6956,-3.6464,-3.602,-3.5616,-3.5148,-3.4899,-3.4899,-3.4899,-3.4899,-3.4899,-3.4899,-3.4899,-3.4899,-3.4899,-3.4899,-3.4787,-3.4643,-3.4792,-3.5361,-3.5991,-3.6632,-3.7242,-3.7954,-3.8391,-3.8391,-3.8391,-3.8391,-3.8391,-3.8408,-3.8569,-3.8937,-3.939,-3.9893,-4.0228,-4.022,-3.9895,-3.9459,-3.8841,-3.8202,-3.781,-3.7443,-3.7267,-3.7924,-3.8309,-3.8901,-3.955,-4.0126,-4.0505,-4.0533,-4.0688,-4.0702,-4.0702,-4.0702,-4.0243,-3.9237,-3.8342,-3.7322,-3.62,-3.4823,-3.4162,-4.1109,-4.1013,-4.0471,-4.0207,-4.0117,-3.9305,-3.9282,-3.9767,-3.9531,-3.9431,-3.9412,-3.9412,-3.9088,-3.861,-3.8534,-3.7965,-3.6936,-3.644,-3.5745,-3.5002,-3.4578,-3.436,-3.4273,-3.4202,-3.4172,-3.4135,-3.39,-3.3665,-3.3411,-3.3393,-3.3538,-3.3791,-3.3791,-3.3936,-3.4226,-3.4733,-3.4987,-3.5131,-3.5783,-3.6453,-3.6975,-3.7232,-3.7612,-3.8029,-3.7649,-3.7645,-3.8174,-3.8192,-3.8192,-3.8192,-3.8122,-3.802,-3.7899,-3.7703,-3.7449,-3.7111,-3.6522,-3.6105,-3.5793,-3.5258,-3.4899,-3.4899,-3.4899,-3.4899,-3.4899,-3.4899,-3.4899,-3.4899,-3.4916,-3.4949,-3.5197,-3.5167,-3.535,-3.5856,-3.6473,-3.7101,-3.7637,-3.8156,-3.8432,-3.8408,-3.8391,-3.8391,-3.844,-3.8634,-3.8972,-3.9409,-4.0055,-4.0622,-4.0992,-4.068,-4.0309,-3.9733,-3.8841,-3.8347,-3.8141,-3.7976,-3.7839,-3.8375,-3.8898,-3.9408,-3.9831,-4.0393,-4.0659,-4.0702,-4.0702,-4.0702,-4.0702,-4.0702,-4.0055,-3.9046,-3.8121,-3.7111,-3.5916,-3.4628,-3.3965,-4.1115,-4.1091,-4.1103,-4.1007,-4.0921,-4.0604,-4.0616,-4.0532,-4.0336,-4.0177,-4.0157,-4.0234,-4.0119,-4.0177,-4.0005,-3.9605,-3.8588,-3.7593,-3.6897,-3.6547,-3.6076,-3.5781,-3.5672,-3.5561,-3.5548,-3.5548,-3.495,-3.4226,-3.3647,-3.3683,-3.3973,-3.4498,-3.4624,-3.4914,-3.5729,-3.5711,-3.582,-3.5983,-3.6598,-3.7029,-3.7069,-3.7739,-3.8119,-3.8192,-3.8138,-3.8119,-3.8192,-3.8192,-3.8192,-3.8192,-3.8192,-3.8124,-3.7899,-3.7703,-3.7577,-3.7411,-3.6741,-3.6291,-3.6156,-3.5407,-3.4899,-3.4899,-3.4899,-3.4899,-3.4899,-3.4899,-3.4899,-3.4899,-3.4998,-3.5214,-3.581,-3.6075,-3.629,-3.6832,-3.7334,-3.7866,-3.8394,-3.8567,-3.856,-3.8432,-3.8343,-3.8375,-3.8553,-3.8958,-3.9606,-4.0324,-4.097,-4.1555,-4.171,-4.1064,-4.0347,-3.9834,-3.9062,-3.8457,-3.8606,-3.8767,-3.8837,-3.9007,-3.9516,-4.0053,-4.0294,-4.0688,-4.0688,-4.0702,-4.0702,-4.0702,-4.0702,-4.0616,-3.9706,-3.8778,-3.7848,-3.6739,-3.5367,-3.4162,-3.3866,-4.1115,-4.1111,-4.1103,-4.1038,-4.0963,-4.0784,-4.0662,-4.053,-4.04,-4.0329,-4.0329,-4.0329,-4.0329,-4.0329,-4.031,-4.012,-3.9737,-3.8916,-3.7885,-3.676,-3.6229,-3.6018,-3.5926,-3.5851,-3.5802,-3.5783,-3.5566,-3.5313,-3.5077,-3.5023,-3.5222,-3.5403,-3.5439,-3.5548,-3.5892,-3.6327,-3.6616,-3.6707,-3.7395,-3.7812,-3.7812,-3.8047,-3.8192,-3.8192,-3.8192,-3.8192,-3.8192,-3.8192,-3.8192,-3.8192,-3.8192,-3.8124,-3.7899,-3.7703,-3.7613,-3.7485,-3.6724,-3.6215,-3.6105,-3.5436,-3.4899,-3.4899,-3.4899,-3.4899,-3.4899,-3.4899,-3.4916,-3.4982,-3.5346,-3.581,-3.6092,-3.697,-3.7481,-3.7607,-3.7817,-3.8159,-3.8504,-3.8231,-3.8089,-3.8286,-3.797,-3.81,-3.8877,-3.9444,-4.0027,-4.0982,-4.1452,-4.1811,-4.2029,-4.1178,-4.0416,-4.017,-3.9372,-3.876,-3.8937,-3.9377,-3.9805,-3.9737,-4.0066,-4.0322,-4.0576,-4.0702,-4.0702,-4.0702,-4.0702,-4.0702,-4.0702,-4.043,-3.9618,-3.8612,-3.7782,-3.6389,-3.4628,-3.3878,-3.358,-4.1111,-4.1106,-4.1103,-4.103,-4.0878,-4.0754,-4.0615,-4.0508,-4.0363,-4.0329,-4.0329,-4.0329,-4.0329,-4.0329,-4.0329,-4.0329,-4.0234,-3.9614,-3.8644,-3.7596,-3.7033,-3.6825,-3.678,-3.6703,-3.649,-3.6272,-3.6236,-3.6073,-3.5802,-3.582,-3.5965,-3.6182,-3.6236,-3.6417,-3.6671,-3.716,-3.7431,-3.7522,-3.792,-3.8192,-3.8192,-3.8192,-3.8192,-3.8192,-3.8192,-3.8192,-3.8192,-3.8192,-3.8192,-3.8192,-3.8174,-3.8072,-3.7899,-3.7739,-3.7559,-3.7243,-3.6684,-3.6147,-3.5933,-3.5316,-3.4899,-3.4899,-3.4899,-3.4899,-3.4899,-3.4899,-3.4965,-3.5346,-3.5694,-3.6224,-3.687,-3.7582,-3.8127,-3.8107,-3.8372,-3.843,-3.8466,-3.8155,-3.7877,-3.8059,-3.8084,-3.8586,-3.9201,-4.0092,-4.0513,-4.1419,-4.1808,-4.1832,-4.1965,-4.1162,-4.0569,-4.0097,-3.9432,-3.9193,-3.9333,-3.9945,-4.0656,-4.0639,-4.0588,-4.0619,-4.0717,-4.0702,-4.0702,-4.0702,-4.0702,-4.0702,-4.0702,-4.0702,-4.0156,-3.897,-3.7612,-3.62,-3.4799,-3.3866,-3.3481,-4.1106,-4.1114,-4.1117,-4.1023,-4.0869,-4.0742,-4.0602,-4.0476,-4.0345,-4.0329,-4.0329,-4.0329,-4.0329,-4.0329,-4.0329,-4.0329,-4.0195,-3.9656,-3.9296,-3.8984,-3.8527,-3.8164,-3.8081,-3.795,-3.7624,-3.7249,-3.713,-3.6771,-3.6331,-3.6263,-3.6309,-3.7029,-3.7069,-3.7395,-3.7848,-3.8156,-3.8101,-3.8083,-3.8156,-3.8192,-3.8192,-3.8192,-3.8192,-3.8192,-3.8192,-3.8192,-3.8192,-3.8192,-3.8192,-3.8192,-3.8088,-3.7967,-3.7899,-3.7757,-3.7468,-3.6995,-3.6481,-3.602,-3.5616,-3.5195,-3.4899,-3.4899,-3.4899,-3.4899,-3.4899,-3.5048,-3.5313,-3.5827,-3.6158,-3.6721,-3.7698,-3.8146,-3.8162,-3.8212,-3.846,-3.8471,-3.7908,-3.8106,-3.7991,-3.7832,-3.8537,-3.9509,-3.9671,-4.0772,-4.1338,-4.1759,-4.2118,-4.1997,-4.1625,-4.0909,-4.0115,-3.9751,-3.9532,-3.9736,-3.9946,-4.0449,-4.1101,-4.0981,-4.0858,-4.0774,-4.0745,-4.0688,-4.0702,-4.0702,-4.0702,-4.0702,-4.0616,-4.0516,-3.9779,-3.8328,-3.7124,-3.5998,-3.4969,-3.3953,-3.3481,-4.11,-4.1114,-4.1117,-4.0971,-4.0754,-4.0706,-4.0564,-4.0363,-4.0329,-4.0329,-4.0329,-4.0329,-4.0329,-4.0329,-4.0329,-4.0329,-4.0176,-3.9807,-3.9585,-3.9513,-3.9082,-3.8718,-3.851,-3.8322,-3.8323,-3.8368,-3.8181,-3.8071,-3.7906,-3.776,-3.7817,-3.7866,-3.7827,-3.7972,-3.8174,-3.8192,-3.8192,-3.8192,-3.8192,-3.8192,-3.8192,-3.8192,-3.8192,-3.8192,-3.8192,-3.8192,-3.8192,-3.8192,-3.8192,-3.8192,-3.8088,-3.7967,-3.7881,-3.7757,-3.7468,-3.69,-3.644,-3.602,-3.5616,-3.5165,-3.4947,-3.4899,-3.4899,-3.4899,-3.4932,-3.5413,-3.576,-3.6191,-3.6887,-3.7483,-3.7549,-3.7847,-3.7897,-3.7516,-3.7632,-3.7614,-3.7291,-3.7203,-3.7404,-3.8121,-3.8561,-3.9476,-4.0594,-4.1306,-4.1792,-4.2072,-4.1981,-4.1672,-4.1111,-4.057,-3.9745,-4.0054,-4.0094,-4.0354,-4.0662,-4.1136,-4.1417,-4.1267,-4.1141,-4.0845,-4.0759,-4.0702,-4.0702,-4.0702,-4.0702,-4.0702,-4.043,-4.0142,-3.8868,-3.7769,-3.6646,-3.5618,-3.4605,-3.3679,-3.3481,-4.1109,-4.1103,-4.111,-4.0943,-4.0725,-4.0713,-4.0549,-4.0328,-4.0329,-4.0329,-4.0329,-4.0329,-4.0329,-4.0329,-4.0329,-4.0329,-4.0234,-3.9892,-3.9717,-3.9604,-3.9216,-3.8915,-3.8759,-3.8597,-3.87,-3.8943,-3.8828,-3.877,-3.8722,-3.8759,-3.8597,-3.8396,-3.8368,-3.8322,-3.8192,-3.8192,-3.8192,-3.8192,-3.8192,-3.8192,-3.8192,-3.8192,-3.8192,-3.8192,-3.8192,-3.8192,-3.8192,-3.8192,-3.8192,-3.8174,-3.8122,-3.802,-3.7899,-3.781,-3.7431,-3.6684,-3.634,-3.5933,-3.5407,-3.5024,-3.4947,-3.4899,-3.4899,-3.5081,-3.5346,-3.5794,-3.6059,-3.6572,-3.7317,-3.7433,-3.7235,-3.7251,-3.7018,-3.6637,-3.6521,-3.662,-3.6798,-3.7383,-3.7812,-3.8479,-3.9275,-4.0075,-4.1484,-4.1792,-4.1961,-4.1997,-4.1739,-4.1178,-4.0585,-3.9975,-3.9698,-3.9993,-4.0397,-4.0648,-4.0761,-4.1159,-4.1239,-4.1198,-4.1043,-4.0845,-4.0773,-4.0702,-4.0702,-4.0702,-4.0702,-4.0616,-4.0329,-3.9867,-3.8751,-3.756,-3.6445,-3.5246,-3.4237,-3.358,-3.3481,-4.1103,-4.111,-4.111,-4.0963,-4.0742,-4.0694,-4.0564,-4.0364,-4.031,-4.0329,-4.0329,-4.0329,-4.0329,-4.0329,-4.0329,-4.0272,-4.0273,-3.9954,-3.9785,-3.9628,-3.9371,-3.9163,-3.9163,-3.8971,-3.9027,-3.9163,-3.9109,-3.9063,-3.9054,-3.9054,-3.8876,-3.8646,-3.8554,-3.8433,-3.8259,-3.8192,-3.8192,-3.8192,-3.8192,-3.8192,-3.8192,-3.8192,-3.8192,-3.8192,-3.8192,-3.8192,-3.8192,-3.8192,-3.8192,-3.8192,-3.8192,-3.8072,-3.7952,-3.7864,-3.7319,-3.6481,-3.613,-3.5715,-3.5102,-3.4947,-3.4899,-3.4916,-3.4982,-3.5263,-3.581,-3.6092,-3.6456,-3.6936,-3.7102,-3.7102,-3.6803,-3.6357,-3.6109,-3.5992,-3.5959,-3.6319,-3.6921,-3.8014,-3.8721,-3.8756,-4.0491,-4.1355,-4.1824,-4.2102,-4.2349,-4.2125,-4.1704,-4.0966,-4.0445,-3.9976,-3.983,-3.9916,-4.0415,-4.0923,-4.0943,-4.1108,-4.0986,-4.0972,-4.0873,-4.0787,-4.0787,-4.0702,-4.0702,-4.0702,-4.0702,-4.0702,-4.0602,-3.9766,-3.8379,-3.7271,-3.5974,-3.4872,-3.3854,-3.358,-3.3381,-4.111,-4.111,-4.111,-4.1015,-4.0868,-4.0742,-4.0607,-4.0463,-4.0346,-4.0329,-4.0329,-4.0329,-4.0329,-4.0329,-4.0329,-4.0291,-4.0234,-4.0057,-3.9973,-3.9848,-3.9781,-3.9717,-3.958,-3.9268,-3.9294,-3.9489,-3.9483,-3.9408,-3.9408,-3.9338,-3.91,-3.8658,-3.8646,-3.8496,-3.8241,-3.8225,-3.8192,-3.8192,-3.8192,-3.8192,-3.8192,-3.8192,-3.8192,-3.8192,-3.8192,-3.8192,-3.8192,-3.8192,-3.8192,-3.8192,-3.8158,-3.8038,-3.7846,-3.7577,-3.6999,-3.6357,-3.5907,-3.5481,-3.5041,-3.4932,-3.4916,-3.5015,-3.5413,-3.5827,-3.5992,-3.6506,-3.6837,-3.7102,-3.7102,-3.677,-3.6274,-3.5976,-3.5876,-3.6023,-3.6643,-3.749,-3.8084,-3.8469,-3.9137,-4.0105,-4.0961,-4.1776,-4.2294,-4.2423,-4.2429,-4.2222,-4.1601,-4.0916,-4.0395,-3.9981,-4.0118,-4.0234,-4.0662,-4.1203,-4.1202,-4.1181,-4.093,-4.0787,-4.0787,-4.0702,-4.0702,-4.0702,-4.0702,-4.0702,-4.0702,-4.0616,-4.0315,-3.8841,-3.7363,-3.6433,-3.551,-3.4397,-3.3568,-3.3381,-3.3281,-4.111,-4.1085,-4.103,-4.0926,-4.0787,-4.0675,-4.0534,-4.0413,-4.0346,-4.0329,-4.0329,-4.0329,-4.0329,-4.0329,-4.031,-4.0272,-4.0234,-4.0137,-4.0015,-3.9911,-3.9889,-3.9889,-3.9867,-3.9628,-3.9604,-3.9848,-3.9739,-3.9693,-3.967,-3.9604,-3.9364,-3.8828,-3.8789,-3.8676,-3.8401,-3.8274,-3.8307,-3.8354,-3.8241,-3.8192,-3.8192,-3.8192,-3.8192,-3.8192,-3.8192,-3.8192,-3.8192,-3.8192,-3.8192,-3.814,-3.8002,-3.7828,-3.7685,-3.7413,-3.6882,-3.6122,-3.5837,-3.5407,-3.5105,-3.5214,-3.5429,-3.5379,-3.5794,-3.6158,-3.6324,-3.6638,-3.6555,-3.6589,-3.6555,-3.634,-3.5877,-3.6073,-3.617,-3.6689,-3.7486,-3.8453,-3.9276,-3.9568,-3.9926,-4.094,-4.1675,-4.2148,-4.2504,-4.2555,-4.198,-4.1573,-4.1591,-4.0944,-4.0248,-4.0011,-4.0529,-4.0844,-4.1184,-4.141,-4.1392,-4.1254,-4.0901,-4.0787,-4.0716,-4.0702,-4.0702,-4.0702,-4.0702,-4.0616,-4.053,-3.9853,-3.9285,-3.7821,-3.6527,-3.5688,-3.486,-3.393,-3.3381,-3.3281,-3.3281,-4.111,-4.1104,-4.098,-4.0849,-4.0718,-4.0607,-4.0476,-4.0364,-4.031,-4.0329,-4.0329,-4.0329,-4.0329,-4.0329,-4.0329,-4.0291,-4.0234,-4.0137,-4.0015,-3.9911,-3.9889,-3.9889,-3.9889,-3.9848,-3.9826,-3.9889,-3.9848,-3.9848,-3.9848,-3.9848,-3.958,-3.9163,-3.9063,-3.8915,-3.8658,-3.8401,-3.8368,-3.851,-3.8322,-3.8192,-3.8192,-3.8192,-3.8192,-3.8192,-3.8192,-3.814,-3.814,-3.814,-3.8106,-3.802,-3.7685,-3.7395,-3.7208,-3.715,-3.686,-3.5888,-3.583,-3.5547,-3.5191,-3.5479,-3.5893,-3.5893,-3.5959,-3.6241,-3.6572,-3.6406,-3.6307,-3.6307,-3.6357,-3.6307,-3.6025,-3.6662,-3.7143,-3.7688,-3.8414,-3.9495,-4.0361,-4.0843,-4.1281,-4.1659,-4.2083,-4.2472,-4.2443,-4.2365,-4.1654,-4.1044,-4.1155,-4.1104,-4.0406,-4.0083,-4.064,-4.1117,-4.1328,-4.1277,-4.1296,-4.1128,-4.0787,-4.0688,-4.0616,-4.043,-4.0329,-3.9779,-3.959,-4.0343,-4.0243,-3.9489,-3.8649,-3.7363,-3.6257,-3.5222,-3.4299,-3.3557,-3.3281,-3.3281,-3.3281,-4.111,-4.111,-4.1078,-4.0988,-4.0868,-4.0718,-4.0579,-4.046,-4.0345,-4.0329,-4.0329,-4.0329,-4.031,-4.0329,-4.0329,-4.0234,-4.0157,-4.0057,-3.9994,-3.9911,-3.9889,-3.9889,-3.9889,-3.9889,-3.9889,-3.9889,-3.9889,-3.9889,-3.9889,-3.9848,-3.9693,-3.9458,-3.9389,-3.9234,-3.8915,-3.867,-3.851,-3.8572,-3.8354,-3.8225,-3.8192,-3.8192,-3.8192,-3.8192,-3.8122,-3.807,-3.8036,-3.8002,-3.7827,-3.7432,-3.7377,-3.6904,-3.655,-3.6402,-3.6208,-3.6014,-3.5996,-3.5783,-3.5378,-3.5694,-3.5644,-3.5413,-3.581,-3.6092,-3.6257,-3.6191,-3.6373,-3.6738,-3.6853,-3.6852,-3.6596,-3.7637,-3.8248,-3.8764,-3.9778,-4.101,-4.1448,-4.1776,-4.2083,-4.2294,-4.252,-4.2508,-4.2318,-4.2092,-4.1689,-4.1133,-4.1013,-4.1235,-4.1067,-4.072,-4.0732,-4.105,-4.138,-4.124,-4.1085,-4.0944,-4.0702,-4.0516,-4.0329,-3.9766,-3.9401,-3.8379,-3.8392,-3.9224,-3.9502,-3.9135,-3.8107,-3.682,-3.5879,-3.4763,-3.4028,-3.3281,-3.3281,-3.3281,-3.3281,-4.111,-4.1085,-4.103,-4.0952,-4.0888,-4.0681,-4.0564,-4.0508,-4.0427,-4.0363,-4.0327,-4.0363,-4.0363,-4.0329,-4.0329,-4.0234,-4.0117,-4.0096,-3.9994,-3.9911,-3.9889,-3.9889,-3.9889,-3.9889,-3.9889,-3.9889,-3.9889,-3.9889,-3.9889,-3.9889,-3.9758,-3.9532,-3.9483,-3.9338,-3.9027,-3.873,-3.8615,-3.8541,-3.8354,-3.8192,-3.8192,-3.8192,-3.8192,-3.8192,-3.807,-3.8018,-3.7949,-3.7667,-3.7487,-3.719,-3.6808,-3.6589,-3.6465,-3.6287,-3.6214,-3.6081,-3.6181,-3.6255,-3.6174,-3.6704,-3.7003,-3.6787,-3.6936,-3.7119,-3.7019,-3.6936,-3.6787,-3.7101,-3.7804,-3.7912,-3.7871,-3.8933,-3.9699,-4.0167,-4.1015,-4.1646,-4.2083,-4.2423,-4.2569,-4.2587,-4.254,-4.235,-4.1882,-4.1677,-4.1563,-4.1296,-4.095,-4.1104,-4.1383,-4.1203,-4.0884,-4.1041,-4.1297,-4.1114,-4.093,-4.0859,-4.0702,-4.0516,-3.9954,-3.9387,-3.8827,-3.8003,-3.773,-3.8185,-3.8289,-3.8225,-3.7099,-3.5618,-3.5054,-3.4495,-3.3843,-3.3281,-3.3281,-3.3281,-3.3281,-4.111,-4.1085,-4.0988,-4.0926,-4.0859,-4.0668,-4.0579,-4.0549,-4.0549,-4.0492,-4.0396,-4.0444,-4.0427,-4.0345,-4.0291,-4.0196,-4.0117,-4.0096,-3.9996,-3.9911,-3.9889,-3.9889,-3.9889,-3.9889,-3.9889,-3.9889,-3.9889,-3.9889,-3.9889,-3.9889,-3.9781,-3.9647,-3.9551,-3.9389,-3.9109,-3.8807,-3.8676,-3.851,-3.8372,-3.8225,-3.8192,-3.8192,-3.8192,-3.8192,-3.8054,-3.7967,-3.7915,-3.7487,-3.7312,-3.7031,-3.6703,-3.6399,-3.6831,-3.6726,-3.6575,-3.657,-3.662,-3.687,-3.7086,-3.7682,-3.7864,-3.7516,-3.7847,-3.793,-3.788,-3.7433,-3.7417,-3.7612,-3.8397,-3.91,-3.925,-4.0105,-4.0848,-4.129,-4.1581,-4.197,-4.2359,-4.2601,-4.2601,-4.2603,-4.2589,-4.2365,-4.1983,-4.1501,-4.1401,-4.1324,-4.0964,-4.0808,-4.1069,-4.1122,-4.1,-4.1029,-4.1043,-4.0944,-4.0773,-4.0787,-4.0702,-4.0616,-3.9766,-3.8841,-3.8379,-3.7821,-3.7455,-3.69,-3.6926,-3.6658,-3.5547,-3.4787,-3.4409,-3.4028,-3.3568,-3.3281,-3.3281,-3.3281,-3.3281,-4.111,-4.111,-4.1078,-4.1023,-4.0907,-4.0859,-4.0765,-4.0681,-4.0668,-4.0668,-4.0602,-4.0549,-4.0504,-4.0427,-4.0291,-4.0176,-4.0117,-4.0057,-3.9975,-3.9911,-3.9889,-3.9889,-3.9889,-3.9889,-3.9889,-3.9889,-3.9889,-3.9889,-3.9889,-3.9889,-3.9867,-3.9781,-3.9575,-3.9433,-3.9208,-3.8807,-3.8615,-3.8572,-3.8322,-3.8192,-3.8192,-3.8192,-3.8192,-3.8158,-3.8038,-3.7881,-3.7793,-3.737,-3.7154,-3.7197,-3.6891,-3.6831,-3.7036,-3.7053,-3.7435,-3.7801,-3.8001,-3.787,-3.7517,-3.793,-3.8146,-3.7798,-3.7549,-3.7317,-3.7748,-3.811,-3.8322,-3.8793,-3.9545,-4.0033,-4.0417,-4.1173,-4.1541,-4.1805,-4.2116,-4.2342,-4.2571,-4.2461,-4.2524,-4.2543,-4.2476,-4.2481,-4.226,-4.1727,-4.124,-4.1122,-4.1004,-4.0875,-4.0843,-4.0916,-4.0958,-4.0958,-4.0958,-4.0773,-4.0773,-4.0702,-4.0616,-4.0616,-3.9779,-3.8572,-3.803,-3.7284,-3.5821,-3.5367,-3.5463,-3.5547,-3.4884,-3.4409,-3.404,-3.3755,-3.3381,-3.3281,-3.3281,-3.3281,-3.3281,-4.111,-4.111,-4.111,-4.1071,-4.1015,-4.0935,-4.0859,-4.0828,-4.0818,-4.0784,-4.0718,-4.075,-4.0642,-4.0489,-4.0327,-4.0196,-4.0117,-4.0057,-3.9996,-3.9911,-3.9889,-3.9889,-3.9889,-3.9889,-3.9889,-3.9889,-3.9889,-3.9889,-3.9889,-3.9867,-3.9845,-3.967,-3.9551,-3.9261,-3.9073,-3.8748,-3.8541,-3.8368,-3.8241,-3.8192,-3.8192,-3.8192,-3.8174,-3.8088,-3.7969,-3.7775,-3.7498,-3.7369,-3.7076,-3.703,-3.6885,-3.7235,-3.7601,-3.7783,-3.8048,-3.8709,-3.8864,-3.8714,-3.846,-3.8642,-3.851,-3.8444,-3.8328,-3.8609,-3.8874,-3.9098,-3.9539,-4.0226,-4.0746,-4.1096,-4.1352,-4.1882,-4.2096,-4.2294,-4.2423,-4.2442,-4.2508,-4.2397,-4.235,-4.2361,-4.2359,-4.2318,-4.2202,-4.1625,-4.1107,-4.0779,-4.0832,-4.0843,-4.0774,-4.0788,-4.0787,-4.0787,-4.0787,-4.0702,-4.0702,-4.0702,-4.0443,-4.0343,-4.017,-3.897,-3.7874,-3.6764,-3.5463,-3.4605,-3.4775,-3.4678,-3.4299,-3.4409,-3.4421,-3.3854,-3.3281,-3.3281,-3.3281,-3.3281,-3.3281,-4.0448,-4.0487,-4.0916,-4.111,-4.1104,-4.0988,-4.0963,-4.0943,-4.0943,-4.0907,-4.0839,-4.0859,-4.0742,-4.0519,-4.0379,-4.0234,-4.0117,-4.0077,-4.0015,-3.9933,-3.9889,-3.9889,-3.9889,-3.9889,-3.9889,-3.9889,-3.9889,-3.9826,-3.9781,-3.9758,-3.967,-3.9483,-3.9261,-3.9045,-3.8718,-3.851,-3.8387,-3.8259,-3.8225,-3.8192,-3.8192,-3.8192,-3.8122,-3.8056,-3.7936,-3.7825,-3.7474,-3.7413,-3.7234,-3.7449,-3.7369,-3.7766,-3.8311,-3.8529,-3.8662,-3.9143,-3.9209,-3.9209,-3.909,-3.9172,-3.9272,-3.9322,-3.957,-3.9719,-4.0326,-4.0479,-4.0573,-4.1156,-4.1422,-4.1727,-4.2012,-4.2405,-4.2439,-4.252,-4.2539,-4.2555,-4.2509,-4.2543,-4.2277,-4.2092,-4.2054,-4.1982,-4.1773,-4.1389,-4.0992,-4.053,-4.0576,-4.0717,-4.0787,-4.0787,-4.0787,-4.0702,-4.0702,-4.0702,-4.0702,-4.0616,-4.0343,-3.9996,-3.9821,-3.9278,-3.8082,-3.6858,-3.5534,-3.4957,-3.4581,-3.4115,-3.3941,-3.4323,-3.4714,-3.3953,-3.3281,-3.3281,-3.3281,-3.3281,-3.317,-3.8675,-3.8811,-4.0409,-4.1033,-4.1052,-4.1104,-4.1059,-4.1071,-4.1078,-4.1071,-4.1023,-4.0954,-4.0754,-4.0564,-4.0441,-4.0307,-4.0098,-4.0017,-3.9975,-3.9911,-3.9889,-3.9889,-3.9889,-3.9889,-3.9889,-3.9889,-3.9848,-3.9735,-3.9575,-3.9477,-3.9483,-3.9433,-3.9017,-3.8748,-3.8523,-3.8368,-3.8307,-3.8192,-3.8192,-3.8192,-3.8192,-3.821,-3.8124,-3.8096,-3.8164,-3.8227,-3.8099,-3.7927,-3.7939,-3.8301,-3.8236,-3.8328,-3.8874,-3.906,-3.9193,-3.9276,-3.9437,-3.9454,-3.9471,-3.9454,-3.9355,-3.9504,-3.9918,-4.0558,-4.1123,-4.1148,-4.1337,-4.1716,-4.1938,-4.2061,-4.2356,-4.2601,-4.2571,-4.2556,-4.2558,-4.2575,-4.2638,-4.2842,-4.2564,-4.1961,-4.1782,-4.1788,-4.1577,-4.1208,-4.1036,-4.0619,-4.0576,-4.0787,-4.0787,-4.0702,-4.0702,-4.0702,-4.0702,-4.0702,-4.0616,-4.0443,-4.0097,-3.9543,-3.91,-3.8832,-3.8213,-3.6964,-3.5726,-3.5054,-3.4593,-3.4028,-3.3568,-3.3854,-3.3953,-3.3568,-3.3281,-3.3281,-3.3181,-3.317,-3.2958,-3.8519,-3.8578,-3.924,-3.9805,-4.0312,-4.0312,-4.0604,-4.1052,-4.111,-4.111,-4.1104,-4.0952,-4.0849,-4.0718,-4.0515,-4.0372,-4.0214,-4.0099,-3.9996,-3.9933,-3.9889,-3.9889,-3.9889,-3.9889,-3.9889,-3.9848,-3.9758,-3.9623,-3.9508,-3.92,-3.898,-3.8836,-3.8658,-3.851,-3.8354,-3.8274,-3.8225,-3.8192,-3.8192,-3.8192,-3.8192,-3.8194,-3.8202,-3.8198,-3.8247,-3.8157,-3.8023,-3.8329,-3.8386,-3.8488,-3.8714,-3.901,-3.9222,-3.9288,-3.9355,-3.9421,-3.9686,-3.9934,-3.9967,-3.9984,-4.0117,-4.058,-4.0816,-4.1189,-4.1749,-4.1714,-4.1912,-4.2199,-4.2304,-4.2421,-4.2504,-4.2555,-4.2587,-4.2478,-4.2527,-4.2605,-4.2658,-4.29,-4.2669,-4.2053,-4.176,-4.1686,-4.1372,-4.1098,-4.093,-4.0731,-4.0773,-4.0702,-4.0702,-4.0702,-4.0702,-4.0616,-4.0616,-4.0443,-4.0357,-4.0097,-3.9747,-3.9203,-3.8472,-3.8109,-3.7756,-3.7268,-3.6131,-3.5463,-3.4593,-3.404,-3.3568,-3.3381,-3.3281,-3.3281,-3.3281,-3.3281,-3.3181,-3.2958,-3.2633,-3.772,-3.772,-3.772,-3.8539,-3.9727,-3.9805,-4.0292,-4.1013,-4.111,-4.111,-4.1104,-4.0996,-4.0907,-4.0807,-4.0655,-4.0406,-4.0251,-4.0118,-4.0017,-3.9933,-3.9889,-3.9889,-3.9889,-3.9889,-3.9845,-3.9758,-3.9599,-3.9458,-3.9154,-3.8778,-3.8615,-3.8523,-3.8478,-3.8354,-3.8274,-3.8192,-3.8192,-3.8192,-3.8192,-3.8106,-3.802,-3.8186,-3.8132,-3.8214,-3.8332,-3.8442,-3.8401,-3.8622,-3.8789,-3.885,-3.901,-3.9259,-3.9355,-3.9454,-3.9624,-3.9835,-4.0199,-4.0647,-4.0696,-4.0746,-4.1011,-4.1427,-4.1552,-4.1897,-4.2239,-4.2272,-4.2411,-4.2564,-4.2664,-4.2587,-4.2587,-4.2571,-4.267,-4.2639,-4.2831,-4.289,-4.2667,-4.2714,-4.2434,-4.1998,-4.1818,-4.1607,-4.1162,-4.0887,-4.0816,-4.0688,-4.0688,-4.0702,-4.0702,-4.0702,-4.0702,-4.0616,-4.0516,-4.0343,-4.0083,-3.9645,-3.9216,-3.8845,-3.82,-3.7559,-3.7095,-3.6615,-3.6036,-3.5066,-3.4311,-3.3843,-3.3568,-3.3381,-3.3281,-3.3281,-3.3181,-3.2958,-3.2757,-3.2544,-3.2128,-3.6025,-3.5967,-3.6025,-3.7467,-3.9532,-3.9766,-4.0273,-4.1052,-4.111,-4.111,-4.111,-4.1078,-4.0943,-4.0765,-4.0681,-4.0466,-4.0215,-4.0118,-3.9996,-3.9933,-3.9889,-3.9889,-3.9889,-3.9889,-3.9804,-3.9556,-3.9408,-3.9154,-3.8748,-3.8603,-3.8433,-3.8322,-3.8274,-3.8259,-3.8192,-3.8192,-3.8192,-3.8192,-3.8192,-3.7985,-3.79,-3.8182,-3.8139,-3.8285,-3.8573,-3.8755,-3.8823,-3.8955,-3.9096,-3.9159,-3.9156,-3.9338,-3.9487,-3.9967,-4.0216,-4.0398,-4.1028,-4.1375,-4.1425,-4.1409,-4.1741,-4.2153,-4.2242,-4.2403,-4.2778,-4.2834,-4.2675,-4.2696,-4.2634,-4.2603,-4.2603,-4.2668,-4.2784,-4.294,-4.3094,-4.3053,-4.2829,-4.2827,-4.262,-4.2065,-4.1724,-4.1492,-4.1071,-4.0702,-4.0688,-4.0688,-4.0688,-4.0702,-4.0616,-4.0443,-4.0357,-4.027,-4.0083,-3.9908,-3.9571,-3.9038,-3.8589,-3.8317,-3.7848,-3.7294,-3.6521,-3.5941,-3.5259,-3.4483,-3.4028,-3.3568,-3.3481,-3.3281,-3.3181,-3.3069,-3.2745,-3.2521,-3.2319,-3.2015,-3.1607,-3.5889,-3.5889,-3.5889,-3.6746,-3.8071,-3.8714,-3.9747,-4.0955,-4.111,-4.111,-4.111,-4.111,-4.1003,-4.0849,-4.0694,-4.0477,-4.025,-4.0058,-3.9975,-3.9911,-3.9889,-3.9889,-3.9889,-3.987,-3.9826,-3.9651,-3.9414,-3.9109,-3.8915,-3.8554,-3.8322,-3.8225,-3.8192,-3.8192,-3.8192,-3.8192,-3.8192,-3.8192,-3.8194,-3.8202,-3.8237,-3.8348,-3.8515,-3.8614,-3.886,-3.8991,-3.9107,-3.9279,-3.9342,-3.9355,-3.9388,-3.957,-3.9901,-4.0448,-4.0663,-4.1077,-4.174,-4.2328,-4.2567,-4.2739,-4.2789,-4.2867,-4.2813,-4.2729,-4.2899,-4.2775,-4.2696,-4.2666,-4.2668,-4.2766,-4.2896,-4.2944,-4.3033,-4.3126,-4.3224,-4.3154,-4.3059,-4.3244,-4.3109,-4.2247,-4.1673,-4.1269,-4.0859,-4.053,-4.043,-4.0257,-4.017,-4.0184,-4.0184,-3.9834,-3.9659,-3.9645,-3.9557,-3.9305,-3.9051,-3.8692,-3.8434,-3.8161,-3.7782,-3.7214,-3.6439,-3.5463,-3.4702,-3.4028,-3.3656,-3.3281,-3.3281,-3.3181,-3.2958,-3.2745,-3.2386,-3.2048,-3.1812,-3.1505,-3.1094,-3.5889,-3.5889,-3.5889,-3.6415,-3.7272,-3.8129,-3.9493,-4.0916,-4.111,-4.111,-4.111,-4.111,-4.0988,-4.0819,-4.0655,-4.0446,-4.0232,-4.008,-3.9954,-3.9911,-3.9889,-3.9889,-3.9889,-3.9848,-3.9698,-3.9561,-3.9242,-3.8924,-3.864,-3.8368,-3.8207,-3.8192,-3.8192,-3.8192,-3.8192,-3.8192,-3.8192,-3.8282,-3.8411,-3.8492,-3.851,-3.8626,-3.8938,-3.8921,-3.9009,-3.9158,-3.9282,-3.9322,-3.9421,-3.9537,-3.9752,-4.0001,-4.0531,-4.1028,-4.1293,-4.1872,-4.2427,-4.2964,-4.3234,-4.3196,-4.3087,-4.3108,-4.3023,-4.2899,-4.2837,-4.2696,-4.286,-4.2878,-4.2847,-4.3089,-4.3373,-4.3419,-4.3379,-4.345,-4.3506,-4.3494,-4.2982,-4.315,-4.2746,-4.1908,-4.1353,-4.093,-4.0588,-4.043,-4.0257,-3.9908,-3.9659,-3.9659,-3.9747,-3.9394,-3.9127,-3.9127,-3.9127,-3.8948,-3.8782,-3.8434,-3.8175,-3.7913,-3.7518,-3.7028,-3.6143,-3.5174,-3.4421,-3.3668,-3.3481,-3.3281,-3.3181,-3.3081,-3.2791,-3.2453,-3.2042,-3.1771,-3.1446,-3.112,-3.0821,-3.5889,-3.5889,-3.5889,-3.6415,-3.7272,-3.8227,-3.9591,-4.1071,-4.111,-4.111,-4.111,-4.111,-4.0971,-4.073,-4.0617,-4.0415,-4.0139,-4.0017,-3.9954,-3.9911,-3.9889,-3.9889,-3.9867,-3.9804,-3.9556,-3.9216,-3.8943,-3.873,-3.8289,-3.8207,-3.8225,-3.8192,-3.8192,-3.8192,-3.8192,-3.8269,-3.8271,-3.8435,-3.867,-3.8663,-3.8579,-3.9094,-3.9123,-3.9059,-3.907,-3.9232,-3.9322,-3.9421,-3.9769,-4.0067,-4.0382,-4.0829,-4.1392,-4.2104,-4.2369,-4.2734,-4.3188,-4.3343,-4.3339,-4.3157,-4.3199,-4.3157,-4.3062,-4.2856,-4.2826,-4.2893,-4.3201,-4.3412,-4.3492,-4.3744,-4.4026,-4.3891,-4.3764,-4.3903,-4.4086,-4.3624,-4.2917,-4.2496,-4.199,-4.1437,-4.0944,-4.053,-4.0083,-3.9922,-3.9821,-3.9482,-3.9141,-3.9038,-3.9038,-3.9038,-3.8859,-3.8859,-3.8769,-3.8602,-3.8434,-3.8175,-3.8083,-3.79,-3.7214,-3.6628,-3.575,-3.4981,-3.4225,-3.3656,-3.3381,-3.3181,-3.2969,-3.2701,-3.2363,-3.2064,-3.1891,-3.1546,-3.1168,-3.1095,-3.0922,-3.5889,-3.5889,-3.5889,-3.6395,-3.735,-3.8772,-4.0078,-4.1033,-4.111,-4.111,-4.111,-4.111,-4.0954,-4.0706,-4.059,-4.0351,-4.0139,-3.9994,-3.9951,-3.9911,-3.9889,-3.9781,-3.9689,-3.9599,-3.9338,-3.9054,-3.8818,-3.8628,-3.8478,-3.8322,-3.8192,-3.8192,-3.8192,-3.8192,-3.8307,-3.8402,-3.8456,-3.8616,-3.8902,-3.8876,-3.8851,-3.9284,-3.9257,-3.9259,-3.9179,-3.9358,-3.9421,-3.9802,-4.0183,-4.0415,-4.0895,-4.1442,-4.217,-4.2435,-4.2634,-4.3205,-4.3393,-4.3372,-4.3174,-4.3084,-4.3127,-4.3425,-4.3475,-4.3475,-4.3411,-4.3444,-4.3703,-4.3976,-4.4,-4.4113,-4.4266,-4.4252,-4.4128,-4.4219,-4.4304,-4.3762,-4.3061,-4.24,-4.1825,-4.0845,-4.0357,-4.0009,-3.9659,-3.9482,-3.9292,-3.8962,-3.8692,-3.8512,-3.8512,-3.8512,-3.8512,-3.8512,-3.8421,-3.8253,-3.8161,-3.7992,-3.7992,-3.7795,-3.7201,-3.6521,-3.575,-3.4981,-3.4225,-3.3645,-3.3358,-3.2958,-3.2633,-3.2341,-3.2163,-3.2043,-3.1742,-3.136,-3.105,-3.1096,-3.1174,-3.5889,-3.5889,-3.5889,-3.659,-3.7837,-3.9221,-4.0312,-4.1013,-4.111,-4.111,-4.1085,-4.1038,-4.0898,-4.0662,-4.0487,-4.0281,-4.0058,-3.9954,-3.9889,-3.9889,-3.987,-3.9735,-3.9599,-3.9433,-3.9227,-3.8933,-3.8688,-3.8523,-3.8433,-3.8322,-3.8192,-3.8192,-3.8192,-3.8289,-3.8384,-3.8524,-3.8752,-3.8947,-3.9171,-3.9234,-3.9307,-3.9467,-3.9581,-3.9404,-3.9325,-3.9475,-3.9702,-4.0249,-4.0597,-4.1094,-4.174,-4.2187,-4.28,-4.2999,-4.2989,-4.3426,-4.3416,-4.3481,-4.3477,-4.3434,-4.3699,-4.3977,-4.4156,-4.4269,-4.4153,-4.4152,-4.4442,-4.468,-4.4432,-4.4252,-4.4479,-4.4596,-4.4549,-4.4586,-4.4282,-4.3989,-4.3269,-4.2534,-4.1463,-4.0402,-3.9821,-3.9469,-3.9203,-3.9127,-3.8859,-3.8525,-3.8253,-3.8253,-3.8161,-3.8161,-3.8161,-3.8161,-3.807,-3.7992,-3.79,-3.79,-3.7703,-3.7703,-3.7598,-3.6815,-3.5953,-3.5367,-3.4896,-3.4115,-3.3235,-3.2903,-3.2532,-3.2262,-3.2086,-3.1987,-3.1888,-3.1678,-3.16,-3.1594,-3.1619,-3.5889,-3.5928,-3.6045,-3.7155,-3.8617,-3.9591,-4.0409,-4.1071,-4.111,-4.111,-4.1078,-4.0971,-4.0798,-4.0604,-4.0412,-4.0194,-4.0039,-3.9933,-3.9889,-3.987,-3.9804,-3.9647,-3.9458,-3.9383,-3.9008,-3.8688,-3.8541,-3.8401,-3.8274,-3.8192,-3.8192,-3.8158,-3.8287,-3.8312,-3.8394,-3.873,-3.9,-3.9311,-3.9524,-3.9686,-3.9529,-3.9696,-3.9919,-3.9432,-3.9491,-3.9653,-4.0199,-4.0696,-4.116,-4.2054,-4.2684,-4.2965,-4.328,-4.3453,-4.3443,-4.3454,-4.3493,-4.3682,-4.3872,-4.3942,-4.4318,-4.4659,-4.4885,-4.5008,-4.4986,-4.4709,-4.4886,-4.5112,-4.4899,-4.4739,-4.4809,-4.4414,-4.422,-4.4159,-4.3912,-4.3284,-4.2467,-4.163,-4.0631,-3.9733,-3.9305,-3.9038,-3.8692,-3.8512,-3.8512,-3.8083,-3.7992,-3.7992,-3.79,-3.79,-3.79,-3.79,-3.79,-3.79,-3.79,-3.7795,-3.7505,-3.7492,-3.7492,-3.6922,-3.5858,-3.5655,-3.575,-3.4433,-3.3037,-3.2881,-3.2546,-3.2354,-3.2169,-3.2123,-3.2012,-3.2093,-3.2085,-3.2043,-3.2075,-3.5889,-3.6025,-3.7311,-3.8539,-3.9532,-4.0409,-4.0877,-4.111,-4.111,-4.1104,-4.1071,-4.0896,-4.0726,-4.0544,-4.0315,-4.012,-4.0017,-3.9933,-3.9911,-3.9804,-3.9693,-3.9439,-3.9136,-3.899,-3.8658,-3.8401,-3.8274,-3.8289,-3.8225,-3.814,-3.8038,-3.7829,-3.8115,-3.8429,-3.8425,-3.8863,-3.9351,-3.9538,-3.9657,-3.9763,-3.9649,-3.9495,-3.9537,-3.9524,-3.9757,-4.0133,-4.0746,-4.1491,-4.1939,-4.2535,-4.3115,-4.3413,-4.3595,-4.3492,-4.3432,-4.3471,-4.3715,-4.3905,-4.4202,-4.448,-4.4934,-4.5372,-4.5594,-4.5761,-4.5704,-4.5314,-4.5154,-4.5294,-4.529,-4.518,-4.4946,-4.4373,-4.3864,-4.3693,-4.3442,-4.2548,-4.1576,-4.0645,-3.9719,-3.9203,-3.8872,-3.8525,-3.8266,-3.8083,-3.7992,-3.7992,-3.79,-3.79,-3.79,-3.79,-3.79,-3.79,-3.79,-3.79,-3.79,-3.7795,-3.7598,-3.7307,-3.7214,-3.6534,-3.5667,-3.509,-3.4605,-3.365,-3.2791,-3.259,-3.2485,-3.2566,-3.2441,-3.2322,-3.2288,-3.2333,-3.2447,-3.2447,-3.2509,-3.5889,-3.6123,-3.7779,-3.9006,-3.9864,-4.074,-4.111,-4.111,-4.111,-4.1045,-4.096,-4.077,-4.061,-4.0427,-4.0193,-4.0061,-3.9975,-3.9933,-3.9804,-3.9689,-3.9526,-3.9234,-3.8933,-3.8658,-3.8478,-3.8274,-3.8225,-3.8225,-3.8158,-3.8194,-3.8075,-3.7987,-3.8427,-3.8669,-3.8641,-3.9284,-3.9559,-3.9659,-3.9664,-3.9609,-3.959,-3.9484,-3.9628,-3.9839,-4.0133,-4.063,-4.1442,-4.2187,-4.2551,-4.2932,-4.3413,-4.3545,-4.3568,-4.3492,-4.357,-4.3744,-4.3984,-4.4251,-4.4643,-4.5096,-4.5548,-4.5986,-4.6277,-4.6394,-4.5849,-4.5508,-4.5294,-4.5416,-4.5048,-4.4843,-4.4601,-4.4174,-4.3864,-4.363,-4.3046,-4.2222,-4.1057,-3.9881,-3.9114,-3.8512,-3.8253,-3.8266,-3.7992,-3.7992,-3.79,-3.79,-3.79,-3.79,-3.79,-3.79,-3.79,-3.79,-3.79,-3.79,-3.79,-3.7795,-3.7611,-3.732,-3.7015,-3.6131,-3.5259,-3.4213,-3.3381,-3.2915,-3.259,-3.2325,-3.2351,-3.2526,-3.2553,-3.2415,-3.2478,-3.2675,-3.2727,-3.2727,-3.2706,-3.6045,-3.6454,-3.7876,-3.9084,-4.0,-4.076,-4.111,-4.1104,-4.1078,-4.0952,-4.0759,-4.0597,-4.0412,-4.0211,-4.004,-3.9956,-3.9889,-3.9804,-3.9689,-3.9551,-3.9383,-3.9045,-3.8778,-3.8541,-3.8336,-3.8274,-3.8225,-3.8106,-3.802,-3.8184,-3.8367,-3.8498,-3.87,-3.8965,-3.9347,-3.9542,-3.9542,-3.9632,-3.9642,-3.9554,-3.9448,-3.9412,-3.9757,-4.0083,-4.058,-4.1243,-4.2088,-4.2734,-4.3065,-4.3297,-4.3519,-4.3535,-4.3624,-4.357,-4.3793,-4.3968,-4.4413,-4.4854,-4.5437,-4.5791,-4.6261,-4.6649,-4.6828,-4.6528,-4.5961,-4.5672,-4.5526,-4.5157,-4.4723,-4.4496,-4.4266,-4.3942,-4.363,-4.3061,-4.24,-4.163,-4.0374,-3.9203,-3.8589,-3.79,-3.79,-3.7913,-3.79,-3.79,-3.79,-3.79,-3.79,-3.79,-3.79,-3.79,-3.79,-3.79,-3.79,-3.79,-3.79,-3.7808,-3.7703,-3.7108,-3.6615,-3.5726,-3.4787,-3.3673,-3.2983,-3.2911,-3.2492,-3.2319,-3.2268,-3.2378,-3.2488,-3.2613,-3.2664,-3.2727,-3.2727,-3.2727,-3.2727,-3.6727,-3.8032,-3.8383,-3.9396,-4.074,-4.1033,-4.111,-4.1078,-4.0924,-4.0759,-4.0565,-4.0377,-4.0229,-4.0193,-4.0,-3.9911,-3.9867,-3.9735,-3.9599,-3.9483,-3.9091,-3.8778,-3.8603,-3.8401,-3.8274,-3.8192,-3.8106,-3.7985,-3.7847,-3.8186,-3.8199,-3.784,-3.8953,-3.9135,-3.9016,-3.9244,-3.958,-3.9642,-3.9554,-3.9465,-3.9462,-3.9524,-3.979,-4.0266,-4.0945,-4.1674,-4.2419,-4.3098,-4.3413,-4.3595,-4.3602,-4.3525,-4.368,-4.3777,-4.4063,-4.4509,-4.4887,-4.5372,-4.5905,-4.6309,-4.6714,-4.671,-4.6668,-4.6317,-4.5817,-4.5468,-4.5157,-4.4783,-4.4419,-4.4174,-4.3942,-4.3205,-4.2739,-4.1825,-4.1085,-4.0215,-3.9114,-3.8589,-3.807,-3.79,-3.79,-3.79,-3.79,-3.79,-3.79,-3.79,-3.79,-3.79,-3.79,-3.79,-3.79,-3.79,-3.79,-3.79,-3.79,-3.79,-3.7703,-3.7002,-3.6036,-3.4908,-3.3884,-3.3062,-3.2471,-3.2496,-3.2609,-3.2537,-3.2452,-3.2446,-3.2489,-3.2685,-3.2696,-3.2727,-3.2727,-3.2727,-3.2727]}]]